[[{"header":{"parameterUnit":"m.s-1","parameterCategory":1,"la1":30.6,"la2":28.766,"lo1":-90.7593,"lo2":-88.6598,"dy":0.0162,"dx":0.0183,"nx":116,"ny":114,"refTime":"2023-05-23T00:00:00:Z","depth":0,"parameterNumber":2,"parameterNumberName":"U-component_of_WINDS"},"data":[0.0,0.0,0.0,0.0,0.0,0.0,0.0,0.0,0.0,0.0,0.0,0.0,0.0,0.0,0.0,0.0,0.0,0.0,0.0,0.0,0.0,0.0,0.0,0.0,0.0,0.0,0.0,0.0,0.0,0.0,0.0,0.0,0.0,0.0,0.0,0.0,0.0,0.0,0.0,0.0,0.0,0.0,0.0,0.0,0.0,0.0,0.0,0.0,0.0,0.0,0.0,0.0,0.0,0.0,0.0,0.0,0.0,0.0,0.0,0.0,0.0,0.0,0.0,0.0,0.0,0.0,0.0,0.0,0.0,0.0,0.0,0.0,0.0,0.0,0.0,0.0,0.0,0.0,0.0,0.0,0.0,0.0,0.0,0.0,0.0,0.0,0.0,0.0,0.0,0.0,0.0,0.0,0.0,0.0,0.0,0.0,0.0,0.0,0.0,0.0,0.0,0.0,0.0,0.0,0.0,0.0,0.0,0.0,0.0,0.0,0.0,0.0,0.0,0.0,0.0,0.0,0.0,0.0,0.0,0.0,0.0,0.0,0.0,0.0,0.0,0.0,0.0,0.0,0.0,0.0,0.0,0.0,0.0,0.0,0.0,0.0,0.0,0.0,0.0,0.0,0.0,0.0,0.0,0.0,0.0,0.0,0.0,0.0,0.0,0.0,0.0,0.0,0.0,0.0,0.0,0.0,0.0,0.0,0.0,0.0,0.0,0.0,0.0,0.0,0.0,0.0,0.0,0.0,0.0,0.0,0.0,0.0,0.0,0.0,0.0,0.0,0.0,0.0,0.0,0.0,0.0,0.0,0.0,0.0,0.0,0.0,0.0,0.0,0.0,0.0,0.0,0.0,0.0,0.0,0.0,0.0,0.0,0.0,0.0,0.0,0.0,0.0,0.0,0.0,0.0,0.0,0.0,0.0,0.0,0.0,0.0,0.0,0.0,0.0,0.0,0.0,0.0,0.0,0.0,0.0,0.0,0.0,0.0,0.0,0.0,0.0,0.0,0.0,0.0,0.0,0.0,0.0,0.0,0.0,0.0,0.0,0.0,0.0,0.0,0.0,0.0,0.0,0.0,0.0,0.0,0.0,0.0,0.0,0.0,0.0,0.0,0.0,0.0,0.0,0.0,0.0,0.0,0.0,0.0,0.0,0.0,0.0,0.0,0.0,0.0,0.0,0.0,0.0,0.0,0.0,0.0,0.0,0.0,0.0,0.0,0.0,0.0,0.0,0.0,0.0,0.0,0.0,0.0,0.0,0.0,0.0,0.0,0.0,0.0,0.0,0.0,0.0,0.0,0.0,0.0,0.0,0.0,0.0,0.0,0.0,0.0,0.0,0.0,0.0,0.0,0.0,0.0,0.0,0.0,0.0,0.0,0.0,0.0,0.0,0.0,0.0,0.0,0.0,0.0,0.0,0.0,0.0,0.0,0.0,0.0,0.0,0.0,0.0,0.0,0.0,0.0,0.0,0.0,0.0,0.0,0.0,0.0,0.0,0.0,0.0,0.0,0.0,0.0,0.0,0.0,0.0,0.0,0.0,0.0,0.0,0.0,0.0,0.0,0.0,0.0,0.0,0.0,0.0,0.0,0.0,0.0,0.0,0.0,0.0,0.0,0.0,0.0,0.0,0.0,0.0,0.0,0.0,0.0,0.0,0.0,0.0,0.0,0.0,0.0,0.0,0.0,0.0,0.0,0.0,0.0,0.0,0.0,0.0,0.0,0.0,0.0,0.0,0.0,0.0,0.0,0.0,0.0,0.0,0.0,0.0,0.0,0.0,0.0,0.0,0.0,0.0,0.0,0.0,0.0,0.0,0.0,0.0,0.0,0.0,0.0,0.0,0.0,0.0,0.0,0.0,0.0,0.0,0.0,0.0,0.0,0.0,0.0,0.0,0.0,0.0,0.0,0.0,0.0,0.0,0.0,0.0,0.0,0.0,0.0,0.0,0.0,0.0,0.0,0.0,0.0,0.0,0.0,0.0,0.0,0.0,0.0,0.0,0.0,0.0,0.0,0.0,0.0,0.0,0.0,0.0,0.0,0.0,0.0,0.0,0.0,0.0,0.0,0.0,0.0,0.0,0.0,0.0,0.0,0.0,0.0,0.0,0.0,0.0,0.0,0.0,0.0,0.0,0.0,0.0,0.0,0.0,0.0,0.0,0.0,0.0,0.0,0.0,0.0,0.0,0.0,0.0,0.0,0.0,0.0,0.0,0.0,0.0,0.0,0.0,0.0,0.0,0.0,0.0,0.0,0.0,0.0,0.0,0.0,0.0,0.0,0.0,0.0,0.0,0.0,0.0,0.0,0.0,0.0,0.0,0.0,0.0,0.0,0.0,0.0,0.0,0.0,0.0,0.0,0.0,0.0,0.0,0.0,0.0,0.0,0.0,0.0,0.0,0.0,0.0,0.0,0.0,0.0,0.0,0.0,0.0,0.0,0.0,0.0,0.0,0.0,0.0,0.0,0.0,0.0,0.0,0.0,0.0,0.0,0.0,0.0,0.0,0.0,0.0,0.0,0.0,0.0,0.0,0.0,0.0,0.0,0.0,0.0,0.0,0.0,0.0,0.0,0.0,0.0,0.0,0.0,0.0,0.0,0.0,0.0,0.0,0.0,0.0,0.0,0.0,0.0,0.0,0.0,0.0,0.0,0.0,0.0,0.0,0.0,0.0,0.0,0.0,0.0,0.0,0.0,0.0,0.0,0.0,0.0,0.0,0.0,0.0,0.0,0.0,0.0,0.0,0.0,0.0,0.0,0.0,0.0,0.0,0.0,0.0,0.0,0.0,0.0,0.0,0.0,0.0,0.0,0.0,0.0,0.0,0.0,0.0,0.0,0.0,0.0,0.0,0.0,0.0,0.0,0.0,0.0,0.0,0.0,0.0,0.0,0.0,0.0,0.0,0.0,0.0,0.0,0.0,0.0,0.0,0.0,0.0,0.0,0.0,0.0,0.0,0.0,0.0,0.0,0.0,0.0,0.0,0.0,0.0,0.0,0.0,0.0,0.0,0.0,0.0,0.0,0.0,0.0,0.0,0.0,0.0,0.0,0.0,0.0,0.0,0.0,0.0,0.0,0.0,0.0,0.0,0.0,0.0,0.0,0.0,0.0,0.0,0.0,0.0,0.0,0.0,0.0,0.0,0.0,0.0,0.0,0.0,0.0,0.0,0.0,0.0,0.0,0.0,0.0,0.0,0.0,0.0,0.0,0.0,0.0,0.0,0.0,0.0,0.0,0.0,0.0,0.0,0.0,0.0,0.0,0.0,0.0,0.0,0.0,0.0,0.0,0.0,0.0,0.0,0.0,0.0,0.0,0.0,0.0,0.0,0.0,0.0,0.0,0.0,0.0,0.0,0.0,0.0,0.0,0.0,0.0,0.0,0.0,0.0,0.0,0.0,0.0,0.0,0.0,0.0,0.0,0.0,0.0,0.0,0.0,0.0,0.0,0.0,0.0,0.0,0.0,0.0,0.0,0.0,0.0,0.0,0.0,0.0,0.0,0.0,0.0,0.0,0.0,0.0,0.0,0.0,0.0,0.0,0.0,0.0,0.0,0.0,0.0,0.0,0.0,0.0,0.0,0.0,0.0,0.0,0.0,0.0,0.0,0.0,0.0,0.0,0.0,0.0,0.0,0.0,0.0,0.0,0.0,0.0,0.0,0.0,0.0,0.0,0.0,0.0,0.0,0.0,0.0,0.0,0.0,0.0,0.0,0.0,0.0,0.0,0.0,0.0,0.0,0.0,0.0,0.0,0.0,0.0,0.0,0.0,0.0,0.0,0.0,0.0,0.0,0.0,0.0,0.0,0.0,0.0,0.0,0.0,0.0,0.0,0.0,0.0,0.0,0.0,0.0,0.0,0.0,0.0,0.0,0.0,0.0,0.0,0.0,0.0,0.0,0.0,0.0,0.0,0.0,0.0,0.0,0.0,0.0,0.0,0.0,0.0,0.0,0.0,0.0,0.0,0.0,0.0,0.0,0.0,0.0,0.0,0.0,0.0,0.0,0.0,0.0,0.0,0.0,0.0,0.0,0.0,0.0,0.0,0.0,0.0,0.0,0.0,0.0,0.0,0.0,0.0,0.0,0.0,0.0,0.0,0.0,0.0,0.0,0.0,0.0,0.0,0.0,0.0,0.0,0.0,0.0,0.0,0.0,0.0,0.0,0.0,0.0,0.0,0.0,0.0,0.0,0.0,0.0,0.0,0.0,0.0,0.0,0.0,0.0,0.0,0.0,0.0,0.0,0.0,0.0,0.0,0.0,0.0,0.0,0.0,0.0,0.0,0.0,0.0,0.0,0.0,0.0,0.0,0.0,0.0,0.0,0.0,0.0,0.0,0.0,0.0,0.0,0.0,0.0,0.0,0.0,0.0,0.0,0.0,0.0,0.0,0.0,0.0,0.0,0.0,0.0,0.0,0.0,0.0,0.0,0.0,0.0,0.0,0.0,0.0,0.0,0.0,0.0,0.0,0.0,0.0,0.0,0.0,0.0,0.0,0.0,0.0,0.0,0.0,0.0,0.0,0.0,0.0,0.0,0.0,0.0,0.0,0.0,0.0,0.0,0.0,0.0,0.0,0.0,0.0,0.0,0.0,0.0,0.0,0.0,0.0,0.0,0.0,0.0,0.0,0.0,0.0,0.0,0.0,0.0,0.0,0.0,0.0,0.0,0.0,0.0,0.0,0.0,0.0,0.0,0.0,0.0,0.0,0.0,0.0,0.0,0.0,0.0,0.0,0.0,0.0,0.0,0.0,0.0,0.0,0.0,0.0,0.0,0.0,0.0,0.0,0.0,0.0,0.0,0.0,0.0,0.0,0.0,0.0,0.0,0.0,0.0,0.0,0.0,0.0,0.0,0.0,0.0,0.0,0.0,0.0,0.0,0.0,0.0,0.0,0.0,0.0,0.0,0.0,0.0,0.0,0.0,0.0,0.0,0.0,0.0,0.0,0.0,0.0,0.0,0.0,0.0,0.0,0.0,0.0,0.0,0.0,0.0,0.0,0.0,0.0,0.0,0.0,0.0,0.0,0.0,0.0,0.0,0.0,0.0,0.0,0.0,0.0,0.0,0.0,0.0,0.0,0.0,0.0,0.0,0.0,0.0,0.0,0.0,0.0,0.0,0.0,0.0,0.0,0.0,0.0,0.0,0.0,0.0,0.0,0.0,0.0,0.0,0.0,0.0,0.0,0.0,0.0,0.0,0.0,0.0,0.0,0.0,0.0,0.0,0.0,0.0,0.0,0.0,0.0,0.0,0.0,0.0,0.0,0.0,0.0,0.0,0.0,0.0,0.0,0.0,0.0,0.0,0.0,0.0,0.0,0.0,0.0,0.0,0.0,0.0,0.0,0.0,0.0,0.0,0.0,0.0,0.0,0.0,0.0,0.0,0.0,0.0,0.0,0.0,0.0,0.0,0.0,0.0,0.0,0.0,0.0,0.0,0.0,0.0,0.0,0.0,0.0,0.0,0.0,0.0,0.0,0.0,0.0,0.0,0.0,0.0,0.0,0.0,0.0,0.0,0.0,0.0,0.0,0.0,0.0,0.0,0.0,0.0,0.0,0.0,0.0,0.0,0.0,0.0,0.0,0.0,0.0,0.0,0.0,0.0,0.0,0.0,0.0,0.0,0.0,0.0,0.0,0.0,0.0,0.0,0.0,0.0,0.0,0.0,0.0,0.0,0.0,0.0,0.0,0.0,0.0,0.0,0.0,0.0,0.0,0.0,0.0,0.0,0.0,0.0,0.0,0.0,0.0,0.0,0.0,0.0,0.0,0.0,0.0,0.0,0.0,0.0,0.0,0.0,0.0,0.0,0.0,0.0,0.0,0.0,0.0,0.0,0.0,0.0,0.0,0.0,0.0,0.0,0.0,0.0,0.0,0.0,0.0,0.0,0.0,0.0,0.0,0.0,0.0,0.0,0.0,0.0,0.0,0.0,0.0,0.0,0.0,0.0,0.0,0.0,0.0,0.0,0.0,0.0,0.0,0.0,0.0,0.0,0.0,0.0,0.0,0.0,0.0,0.0,0.0,0.0,0.0,0.0,0.0,0.0,0.0,0.0,0.0,0.0,0.0,0.0,0.0,0.0,0.0,0.0,0.0,0.0,0.0,3.2164,0.0,0.0,0.0,0.0,0.0,0.0,0.0,0.0,0.0,0.0,0.0,0.0,0.0,0.0,0.0,0.0,0.0,0.0,0.0,0.0,0.0,0.0,0.0,0.0,0.0,0.0,0.0,0.0,0.0,0.0,0.0,0.0,0.0,0.0,0.0,0.0,0.0,0.0,0.0,2.334,2.3555,2.375,2.375,2.3535,2.3319,0.0,0.0,0.0,0.0,0.0,0.0,0.0,0.0,0.0,0.0,0.0,0.0,0.0,0.0,0.0,0.0,0.0,0.0,0.0,0.0,0.0,0.0,0.0,0.0,0.0,0.0,0.0,0.0,0.0,0.0,0.0,0.0,0.0,0.0,0.0,0.0,0.0,0.0,0.0,0.0,0.0,0.0,0.0,0.0,0.0,0.0,0.0,0.0,0.0,0.0,0.0,0.0,0.0,0.0,0.0,0.0,0.0,0.0,0.0,0.0,0.0,0.0,0.0,0.0,0.0,0.0,0.0,0.0,0.0,0.0,0.0,3.2993,0.0,0.0,0.0,0.0,0.0,0.0,0.0,0.0,0.0,0.0,0.0,0.0,0.0,0.0,0.0,0.0,0.0,0.0,0.0,0.0,0.0,0.0,0.0,0.0,0.0,0.0,0.0,0.0,0.0,0.0,0.0,0.0,0.0,0.0,0.0,2.3135,2.3242,2.3242,2.3691,2.4082,2.4414,2.4414,2.4134,2.3819,2.3994,0.0,0.0,0.0,0.0,0.0,0.0,0.0,0.0,0.0,0.0,0.0,0.0,0.0,0.0,0.0,0.0,0.0,0.0,0.0,0.0,0.0,0.0,0.0,0.0,0.0,0.0,0.0,0.0,0.0,0.0,0.0,0.0,0.0,0.0,0.0,0.0,0.0,0.0,0.0,0.0,0.0,0.0,0.0,0.0,0.0,0.0,0.0,0.0,0.0,0.0,0.0,0.0,0.0,0.0,0.0,0.0,0.0,0.0,0.0,0.0,0.0,0.0,0.0,0.0,0.0,3.6935,3.696,3.696,3.6885,3.5981,3.5353,3.4951,0.0,0.0,0.0,0.0,0.0,0.0,0.0,0.0,0.0,0.0,0.0,0.0,0.0,0.0,0.0,0.0,0.0,0.0,0.0,0.0,0.0,0.0,0.0,2.2441,2.2441,2.2441,2.2441,0.0,0.0,0.0,0.0,0.0,0.0,2.2794,2.3427,2.3711,2.3711,2.4121,2.4355,2.4414,2.4414,2.4651,2.5007,2.5007,2.5056,2.5109,0.0,0.0,0.0,0.0,0.0,0.0,0.0,0.0,0.0,0.0,0.0,0.0,0.0,0.0,0.0,0.0,0.0,0.0,0.0,0.0,0.0,0.0,0.0,0.0,0.0,0.0,0.0,0.0,0.0,0.0,0.0,0.0,0.0,0.0,0.0,0.0,0.0,0.0,0.0,0.0,0.0,3.1311,3.1386,0.0,0.0,0.0,0.0,0.0,0.0,0.0,0.0,0.0,0.0,0.0,0.0,0.0,0.0,3.8417,3.8994,3.9245,3.9245,3.9245,3.9245,3.9245,3.9245,3.9245,3.9245,3.9094,0.0,3.6107,3.5554,0.0,0.0,0.0,0.0,0.0,0.0,0.0,0.0,0.0,0.0,0.0,0.0,0.0,0.0,0.0,0.0,0.0,0.0,0.0,0.0,0.0,2.2353,2.2176,2.1998,2.1998,2.1998,2.1998,0.0,0.0,0.0,0.0,2.2872,2.2872,2.3544,2.4074,2.4512,2.4941,2.5293,2.5527,2.5762,2.6074,2.6443,2.63,2.6125,2.5853,2.6119,0.0,0.0,0.0,0.0,0.0,0.0,0.0,0.0,0.0,0.0,0.0,0.0,0.0,0.0,0.0,0.0,0.0,0.0,0.0,0.0,0.0,0.0,0.0,0.0,0.0,0.0,0.0,0.0,0.0,0.0,0.0,0.0,0.0,0.0,0.0,0.0,0.0,0.0,0.0,3.219,3.2566,3.3194,3.347,3.3847,0.0,0.0,0.0,0.0,0.0,0.0,0.0,0.0,0.0,3.8592,3.9421,3.9998,4.0249,4.1103,4.153,4.153,4.153,4.153,4.153,4.153,4.153,4.153,4.153,4.0978,3.9948,3.814,3.7412,3.7337,0.0,0.0,0.0,0.0,0.0,3.5655,0.0,0.0,0.0,0.0,0.0,0.0,0.0,0.0,0.0,0.0,0.0,0.0,2.2415,2.2147,2.2023,2.1862,2.1771,2.1771,2.1771,2.1953,0.0,0.0,2.2775,2.3035,2.3126,2.3803,2.4583,2.5314,2.5742,2.6131,2.6562,2.6875,2.7114,2.7379,2.7362,2.7023,2.6522,2.6668,2.7169,2.7722,0.0,0.0,0.0,0.0,0.0,0.0,0.0,0.0,0.0,0.0,0.0,0.0,0.0,0.0,0.0,0.0,0.0,0.0,0.0,0.0,0.0,0.0,0.0,0.0,0.0,0.0,0.0,0.0,0.0,0.0,0.0,0.0,0.0,0.0,0.0,0.0,0.0,3.352,3.4022,3.4826,3.5177,3.5579,0.0,0.0,0.0,0.0,0.0,0.0,3.8843,3.9923,4.0526,4.0526,4.1605,4.2183,4.2183,4.3288,4.3815,4.3815,4.3815,4.3815,4.3815,4.3815,4.384,4.3701,4.3551,4.3501,4.3187,4.052,3.9496,3.9396,3.8166,3.7715,0.0,3.7192,3.7042,3.7017,0.0,0.0,0.0,0.0,0.0,0.0,0.0,0.0,0.0,0.0,0.0,2.2147,2.2245,2.2117,2.1985,2.2097,2.2037,2.2037,2.2037,2.2132,2.2227,2.251,2.2717,2.3017,2.3299,2.4371,2.5172,2.591,2.6333,2.6749,2.6992,2.7012,2.7114,2.7399,2.7683,2.7577,2.7179,2.721,2.7403,2.7789,2.8181,0.0,0.0,0.0,0.0,0.0,0.0,0.0,0.0,0.0,0.0,0.0,0.0,0.0,0.0,0.0,0.0,0.0,0.0,0.0,0.0,0.0,0.0,0.0,0.0,0.0,0.0,0.0,0.0,0.0,0.0,0.0,0.0,0.0,0.0,0.0,0.0,0.0,0.0,3.5504,3.6433,0.0,0.0,0.0,0.0,3.9496,4.0551,4.1178,4.1178,4.2208,4.2811,4.2811,4.389,4.4443,4.4443,4.5573,4.615,4.615,4.615,4.615,4.615,4.615,4.591,4.5619,4.5097,4.4754,4.4319,4.2027,4.1229,4.0996,3.9686,3.9158,3.903,3.8797,3.8693,3.8669,0.0,0.0,0.0,0.0,0.0,0.0,0.0,0.0,0.0,2.2315,2.2131,2.1989,2.2025,2.1888,2.1725,2.1692,2.1596,2.15,2.1422,2.1692,2.1882,2.1977,2.2512,2.3178,2.4177,2.4831,2.5507,2.6066,2.675,2.7304,2.7641,2.8076,2.8544,2.8849,2.8787,2.8665,2.8452,2.8607,2.8666,2.8866,2.9195,2.9392,0.0,0.0,0.0,0.0,0.0,0.0,0.0,0.0,0.0,0.0,0.0,0.0,0.0,0.0,0.0,0.0,0.0,0.0,0.0,0.0,0.0,0.0,0.0,0.0,0.0,0.0,0.0,0.0,0.0,0.0,0.0,0.0,0.0,0.0,0.0,0.0,0.0,3.7638,3.8668,0.0,0.0,4.0651,4.1204,4.1756,4.2836,4.3463,4.3463,4.4518,4.5121,4.5121,4.5849,4.625,4.625,4.6979,4.733,4.733,4.7109,4.6985,4.6985,4.6737,4.6612,4.6488,4.6291,4.6192,4.597,4.4907,4.3523,4.2164,4.1312,4.104,4.104,4.0906,4.0906,4.0906,0.0,0.0,0.0,0.0,0.0,0.0,0.0,0.0,2.1663,2.1943,2.1898,2.1821,2.176,2.1752,2.1741,2.1489,2.1489,2.1391,2.1195,2.1489,2.1782,2.1862,2.2536,2.3444,2.4615,2.5158,2.566,2.6312,2.7116,2.7729,2.8186,2.8649,2.9122,2.9439,2.9388,2.9421,2.9534,2.9891,2.9806,2.9567,2.9925,3.0261,3.0464,0.0,0.0,0.0,0.0,0.0,0.0,0.0,0.0,0.0,0.0,0.0,0.0,0.0,0.0,0.0,0.0,0.0,0.0,0.0,0.0,0.0,0.0,0.0,0.0,0.0,0.0,0.0,0.0,0.0,0.0,0.0,0.0,0.0,0.0,0.0,3.927,3.9647,4.0852,4.1831,4.2384,4.2961,4.3514,4.4066,4.4945,4.5547,4.5723,4.6627,4.723,4.7405,4.7958,4.8109,4.8008,4.8634,4.8782,4.8654,4.8422,4.8293,4.8293,4.8035,4.7881,4.7597,4.7255,4.6956,4.665,4.5924,4.4812,4.3433,4.2891,4.2665,4.2525,4.2214,4.205,4.1934,0.0,0.0,0.0,0.0,0.0,0.0,0.0,2.1294,2.1344,2.1621,2.1789,2.1742,2.1466,2.165,2.1827,2.1692,2.1623,2.1623,2.1623,2.164,2.1843,2.2063,2.3049,2.386,2.4421,2.5198,2.5934,2.6646,2.7304,2.8029,2.8634,2.8634,2.888,2.9199,2.9405,2.9964,3.054,3.1093,3.079,2.9904,3.0449,3.1105,3.1754,0.0,0.0,0.0,0.0,0.0,0.0,0.0,0.0,0.0,0.0,0.0,0.0,0.0,0.0,0.0,0.0,0.0,0.0,0.0,0.0,0.0,0.0,0.0,0.0,0.0,0.0,0.0,0.0,0.0,0.0,0.0,0.0,0.0,3.8341,4.0023,4.143,4.143,4.2886,4.4116,4.4669,4.5246,4.5824,4.6376,4.6928,4.7456,4.7958,4.8535,4.9088,4.9615,5.0167,5.0181,4.9967,5.0439,5.0443,5.0173,5.0038,5.0038,5.0038,5.0014,4.9607,4.8851,4.7978,4.7146,4.6382,4.524,4.4818,4.4783,4.4251,4.3869,4.3455,4.2687,4.2134,4.1892,0.0,0.0,0.0,0.0,0.0,0.0,0.0,2.1021,2.1147,2.1044,2.1446,2.1649,2.1466,2.1374,2.1345,2.1097,2.0925,2.0719,2.0601,2.0955,2.1522,2.2201,2.3237,2.3947,2.4377,2.5336,2.6099,2.684,2.757,2.8419,2.9305,2.9499,3.0129,3.0969,3.095,3.125,3.154,3.1888,3.181,3.1312,3.1365,3.1639,3.1945,0.0,0.0,0.0,0.0,0.0,0.0,0.0,0.0,0.0,0.0,0.0,0.0,0.0,0.0,0.0,0.0,0.0,0.0,0.0,0.0,0.0,0.0,0.0,0.0,0.0,0.0,0.0,0.0,0.0,0.0,0.0,0.0,4.1856,4.0601,4.2333,4.3714,4.3714,4.5196,4.6426,4.6954,4.7531,4.8109,4.8661,4.9213,4.959,4.9715,5.0268,5.0513,5.0373,5.0522,5.0489,5.0087,5.0235,5.0173,5.0014,4.9607,4.931,4.931,4.8786,4.8373,4.8211,4.7927,4.7557,4.7073,4.6398,4.6006,4.5595,4.4854,4.4498,4.4475,4.4206,4.4031,4.3914,0.0,0.0,0.0,0.0,0.0,0.0,0.0,2.0945,2.1025,2.0638,2.1194,2.1462,2.1083,2.108,2.0945,2.079,2.0514,2.0292,2.0086,2.0511,2.1308,2.2386,2.3134,2.3893,2.4581,2.5512,2.6236,2.6953,2.7696,2.836,2.9082,2.9686,3.0309,3.1049,3.1294,3.1648,3.1997,3.2475,3.2763,3.2768,3.259,3.2507,3.2498,3.281,3.2938,3.3074,3.3529,3.3621,3.3489,3.3539,0.0,0.0,0.0,0.0,0.0,0.0,0.0,0.0,0.0,0.0,0.0,0.0,0.0,0.0,0.0,0.0,0.0,0.0,0.0,0.0,0.0,0.0,0.0,0.0,4.3087,4.4041,4.4091,4.5196,4.5999,4.5999,4.7481,4.8636,4.8937,4.949,4.9967,5.0268,5.0594,5.087,5.1122,5.1289,5.143,5.1383,5.1272,5.0974,5.0563,5.0425,5.0287,5.0149,4.9432,4.9153,4.9153,4.8592,4.8192,0.0,4.7677,4.7302,4.6996,4.6469,4.6124,0.0,0.0,0.0,0.0,0.0,4.394,4.3871,0.0,0.0,0.0,0.0,0.0,0.0,0.0,2.0869,2.095,2.0392,2.1015,2.1264,2.0633,2.0606,2.068,2.0436,2.0174,2.0117,2.0089,2.0559,2.1294,2.2343,2.2839,2.3689,2.4852,2.5635,2.629,2.7044,2.7756,2.8357,2.8824,2.9582,3.0067,3.0442,3.1189,3.1807,3.2441,3.3032,3.3578,3.4036,3.4018,3.3678,3.3224,3.4223,3.4051,3.3407,3.4158,3.3934,3.3407,3.3566,0.0,0.0,0.0,0.0,0.0,0.0,0.0,0.0,0.0,0.0,0.0,0.0,0.0,0.0,0.0,0.0,0.0,0.0,0.0,0.0,0.0,0.0,0.0,0.0,4.5045,4.6376,4.7883,4.8259,4.8335,4.8209,4.9565,5.0544,5.0594,5.1122,5.1498,5.1548,5.1624,5.1875,5.2352,0.0,0.0,0.0,0.0,5.159,5.1071,5.0789,5.0364,4.9961,4.9509,4.9365,4.9221,4.891,4.8499,4.8209,4.7295,4.6658,4.6223,4.5711,4.5488,4.543,4.4732,4.43,4.3804,4.3085,4.2795,0.0,0.0,0.0,0.0,0.0,0.0,0.0,0.0,2.0434,2.0522,2.0,2.0359,2.0567,2.0235,2.0248,2.0114,1.9775,1.9743,1.9911,2.0126,2.1048,2.1699,2.215,2.3291,2.4055,2.4255,2.5486,2.6376,2.7162,2.8162,2.9155,3.0135,3.0804,3.1468,3.2129,3.2918,3.344,3.3849,3.4477,3.4572,3.4409,3.4943,3.4677,3.4074,3.3988,3.4146,3.4418,3.4208,3.4434,3.4722,3.4078,3.4074,3.4283,3.4023,0.0,0.0,0.0,0.0,0.0,0.0,0.0,0.0,0.0,0.0,0.0,0.0,0.0,0.0,0.0,0.0,0.0,0.0,0.0,0.0,4.502,4.6828,4.841,4.9163,5.0444,5.0946,5.0042,5.0619,5.1297,5.1724,5.2277,5.2779,5.3206,5.3378,5.3562,5.3661,5.3236,0.0,5.2152,5.175,5.1129,5.0388,4.9938,4.9509,4.9054,0.0,0.0,4.8086,4.7772,4.7332,4.6891,4.678,4.6293,4.5531,4.5053,4.4473,4.3939,4.4242,4.4013,4.3222,4.3134,4.325,4.3503,0.0,0.0,0.0,0.0,0.0,0.0,0.0,2.0248,2.0398,1.996,2.0161,2.0288,1.9945,1.9968,1.9828,1.9668,1.9657,1.9832,1.999,2.0739,2.1496,2.2125,2.3137,2.3968,2.4607,2.5627,2.6401,2.7201,2.8035,2.8989,2.9883,3.0837,3.1531,3.207,3.3254,3.3804,3.3936,3.4838,3.5102,3.4812,3.535,3.5209,3.4891,3.4523,3.4538,3.4594,3.4735,3.475,3.4621,3.4426,3.4364,3.4342,3.4096,3.3942,3.3766,0.0,0.0,0.0,0.0,0.0,0.0,0.0,0.0,0.0,0.0,0.0,0.0,0.0,0.0,4.2007,0.0,0.0,4.5824,4.6954,4.8284,4.9565,5.0695,5.1574,5.19,5.1322,5.2,5.2603,5.2879,5.3406,5.3718,5.3828,5.3985,5.3849,5.3706,5.313,5.255,5.2139,5.1321,5.0625,4.9908,4.9217,4.8812,4.8354,4.7772,4.7355,4.7186,4.6596,4.6151,4.6002,4.5853,4.5405,4.5084,4.4849,4.4188,4.3131,4.3252,4.3193,4.2883,4.2646,4.27,4.2818,0.0,0.0,0.0,0.0,0.0,0.0,0.0,0.0,2.0235,1.9916,2.0063,2.0114,1.985,1.9685,1.9558,1.9537,1.9643,1.9721,1.9785,2.0458,2.1203,2.2019,2.2783,2.3662,2.4847,2.5591,2.6405,2.7137,2.7893,2.8777,2.9534,3.0635,3.1335,3.1762,3.323,3.3899,3.4032,3.4961,3.5258,3.5191,3.5497,3.5537,3.5273,3.5072,3.4853,3.4556,3.4971,3.4713,3.4142,3.4536,3.4463,3.4264,3.403,3.4126,3.4147,3.3922,3.382,0.0,0.0,0.0,0.0,0.0,0.0,0.0,0.0,0.0,4.0345,4.1347,4.261,4.3765,4.4769,4.605,4.738,4.8711,4.959,5.0569,5.1925,5.2201,5.2277,5.2277,5.3105,5.3758,5.3718,5.4244,5.4427,5.4022,5.4097,5.3883,5.3448,5.2841,5.2206,5.1963,5.0878,4.9963,4.9407,4.8484,4.7794,4.7502,4.6743,4.6299,4.6299,4.5555,4.5256,4.4955,4.4504,4.4352,4.4352,4.4352,4.369,4.2693,4.2307,4.2167,4.2352,4.1783,4.1735,4.1735,0.0,0.0,0.0,0.0,0.0,0.0,0.0,0.0,0.0,1.9842,1.9578,1.9414,1.9727,1.9397,1.9178,1.9205,1.9317,1.9488,1.9771,2.0673,2.1228,2.1343,2.2708,2.3638,2.3738,2.5292,2.6481,2.7215,2.8255,2.9292,3.031,3.1422,3.2141,3.2577,3.4084,3.477,3.477,3.5588,3.5677,3.521,3.5561,3.5422,3.4943,3.47,3.4752,3.5037,3.423,3.4088,3.4207,3.4165,3.3862,3.3744,3.3993,3.3761,3.3384,3.3433,0.0,3.2724,3.3005,3.4052,3.5502,3.729,3.8128,3.8644,0.0,0.0,4.1618,4.2215,4.3861,4.5397,4.5999,4.7832,4.9289,4.9464,5.082,5.19,5.2076,5.2528,5.2829,5.2829,5.3356,5.3768,5.3985,5.439,5.4568,5.4156,5.4279,5.4227,5.3804,5.3354,5.2538,5.1315,5.0354,4.9548,4.8646,4.7432,4.6596,4.6151,4.5704,4.5405,4.4955,4.4955,4.4504,4.3767,4.2984,4.2677,4.2677,4.2677,4.2637,4.2362,4.1534,4.1319,4.1178,4.0636,4.074,4.1025,0.0,0.0,0.0,0.0,0.0,0.0,0.0,0.0,0.0,0.0,1.9542,1.9466,1.9297,1.8994,1.8879,1.8859,1.9269,1.9462,1.9499,2.0601,2.1327,2.1811,2.2978,2.3782,2.4232,2.5275,2.625,2.7137,2.7896,2.8948,3.0442,3.1418,3.2123,3.2701,3.4232,3.4921,3.4902,3.5491,3.5563,3.5587,3.544,3.5113,3.482,3.4403,3.4202,3.4075,3.3833,3.3702,0.0,0.0,3.3379,3.3147,3.3269,3.3406,3.3441,3.3441,3.3684,0.0,3.4351,3.5141,0.0,0.0,3.8524,3.9455,4.0525,4.1531,4.2643,4.3826,4.4759,4.5842,4.7184,4.8507,4.9556,0.0,5.1448,5.2226,5.2528,5.2779,5.2917,5.3078,5.3303,5.3412,5.3495,5.3849,5.3861,5.3447,5.3542,5.3485,5.3195,5.2459,5.1907,5.1393,4.9677,4.8552,4.7898,4.6523,4.5704,4.5256,4.4654,4.4201,4.405,4.3594,4.3289,4.283,4.2524,4.237,4.237,4.237,4.2216,4.2022,4.1383,4.0833,4.0365,4.0056,4.0002,4.0289,0.0,0.0,0.0,0.0,0.0,0.0,0.0,0.0,0.0,0.0,1.9474,1.9354,1.8828,1.8803,1.8719,1.8612,1.9079,1.9376,1.9276,2.0301,2.1085,2.1612,2.2749,2.3537,2.4029,2.4979,2.5918,2.6863,2.729,2.846,3.0128,3.0831,3.167,3.2382,3.3879,3.458,3.4543,3.5065,3.5191,3.531,3.504,3.4814,3.4452,3.3932,3.3422,3.3119,3.3304,3.3074,3.2618,3.29,3.2766,3.2544,3.2645,3.2946,3.3269,3.3407,3.4116,3.4946,3.548,0.0,0.0,3.7958,3.9006,4.0248,4.1389,4.2341,4.333,4.4793,4.5429,4.6191,4.7774,4.8719,4.9619,5.0989,5.159,5.2166,5.2854,5.2792,5.2804,5.2899,5.2808,5.2668,5.2527,5.2833,5.2962,5.2641,5.2369,5.2285,5.2049,5.1309,5.0916,5.0743,4.8873,4.775,4.7137,4.5728,4.4805,4.4504,4.3767,4.331,4.331,4.2524,4.2216,4.2216,4.2082,4.2082,4.2082,4.2082,4.1927,4.1578,4.1144,4.0558,3.9805,3.9612,3.9525,3.959,0.0,0.0,0.0,0.0,0.0,0.0,0.0,0.0,0.0,0.0,0.0,0.0,0.0,1.8762,1.8807,1.8703,1.8728,1.8814,1.9124,1.988,2.0217,2.0284,2.1718,2.2649,2.2649,2.4276,2.5472,2.628,2.6817,2.7833,2.9369,3.0054,3.0871,3.1566,3.3025,3.369,3.3823,3.4464,3.4367,3.3981,3.4318,3.4166,3.3534,3.3004,3.2747,3.2664,3.2546,3.2099,3.1635,3.2267,3.2044,3.1732,3.2342,3.2544,0.0,3.3128,3.4042,3.5137,3.5659,3.6943,3.8271,3.943,4.0317,4.1116,4.1657,4.2613,4.3625,4.4178,4.5643,4.7076,4.7641,4.86,4.9643,5.0613,5.1184,5.1893,5.2854,5.2654,5.2377,5.2402,5.1681,5.1095,0.0,5.1754,5.2235,5.182,5.0936,5.0573,5.0627,5.0346,4.9628,4.9044,4.8101,4.7137,4.623,4.499,4.405,4.3615,4.3157,4.2851,4.237,4.2082,4.1773,4.1773,4.1483,4.1172,4.1172,4.1172,4.1172,4.1133,4.0703,4.0254,3.9844,3.9355,3.922,3.9321,0.0,0.0,0.0,0.0,0.0,0.0,0.0,0.0,0.0,0.0,0.0,0.0,0.0,0.0,0.0,0.0,1.858,1.8889,1.9269,1.9836,2.0398,2.1045,2.1904,2.2471,2.2661,2.3775,2.4855,2.5605,2.63,2.7445,2.8626,2.9543,3.0338,3.1127,3.232,3.2967,3.3206,3.3555,3.3763,3.3817,3.3458,3.3228,3.2963,3.2168,3.1443,3.0864,0.0,3.0538,3.0747,3.0563,3.0536,3.0643,3.0846,3.1266,3.1848,3.3175,3.4075,3.4936,3.6337,3.7233,3.8213,3.9272,4.0312,4.1099,4.1777,4.2444,4.3208,4.3978,4.4864,4.5652,4.6311,4.7564,4.8763,4.9199,5.0122,5.0913,5.1594,5.1531,5.1516,5.1607,5.1211,0.0,0.0,0.0,0.0,5.008,4.9661,4.9445,4.9041,4.8917,4.841,4.7636,4.669,4.575,4.497,4.3905,4.3157,4.283,4.239,4.1927,4.1618,4.1463,4.1327,4.1327,4.1327,4.1172,4.1172,4.1172,4.1172,4.1133,4.0684,4.0273,3.9844,3.9375,3.9092,3.8885,0.0,0.0,0.0,0.0,0.0,0.0,0.0,0.0,0.0,0.0,0.0,0.0,0.0,0.0,0.0,0.0,0.0,1.8859,1.9161,1.9552,2.0136,2.1023,2.1487,2.1861,2.2157,2.317,2.4067,2.4781,2.5612,2.66,2.7872,2.8621,2.9365,3.0139,3.114,3.1779,3.2131,3.245,3.2735,3.2892,3.2493,3.2262,3.1989,3.1204,3.058,0.0,2.9245,2.9203,2.9593,2.9373,2.9621,3.0003,3.0024,3.0888,3.2104,3.3267,3.4415,3.5388,3.6556,3.7658,3.8737,3.9543,4.0486,4.1347,4.1856,4.2224,4.2708,4.3601,4.3937,4.4286,4.5357,4.6319,4.7239,4.806,4.8876,4.9719,5.0567,5.07,5.0669,5.0756,5.0386,5.008,0.0,0.0,0.0,4.8837,4.8248,4.788,4.7617,4.7334,4.6958,4.6209,4.5574,4.4722,4.3812,4.3228,4.2544,4.2216,4.1773,4.1483,4.1172,4.1172,4.1172,4.1172,4.1172,4.1172,4.1172,4.1172,4.1172,4.1133,4.0684,4.0273,3.9844,3.9375,3.8945,3.8574,0.0,0.0,0.0,0.0,0.0,0.0,0.0,0.0,0.0,0.0,0.0,0.0,0.0,0.0,0.0,0.0,0.0,0.0,1.87,1.9018,1.9537,2.004,2.0681,2.1061,2.1505,2.2498,2.3237,2.3927,2.4642,2.5603,2.6936,2.7279,2.7878,2.8847,2.9554,3.014,3.0742,3.107,3.1291,3.1431,3.1182,3.1054,3.0853,3.0257,2.9998,2.977,2.8663,2.825,2.8334,2.8775,2.9258,2.9698,2.9965,3.136,3.2929,3.3438,3.488,3.6321,3.6427,3.7996,3.9757,4.0171,4.0913,4.1507,4.1748,4.1736,4.1897,4.2784,4.2847,4.3158,0.0,0.0,4.5167,4.7088,4.7641,4.845,4.9793,4.9834,4.9782,0.0,0.0,0.0,0.0,0.0,0.0,4.8232,0.0,4.6199,4.6528,4.5812,4.5237,4.4877,4.4484,4.3792,4.3014,4.2591,4.2236,4.1773,4.1327,4.1172,4.1172,4.1172,4.1172,4.1172,4.1172,4.1172,4.1172,4.1172,4.1172,4.1133,4.0664,4.0254,3.9844,3.9355,3.8926,3.8574,0.0,0.0,0.0,0.0,0.0,0.0,0.0,0.0,0.0,0.0,0.0,0.0,0.0,0.0,0.0,0.0,0.0,0.0,1.8581,1.884,1.9317,2.0098,2.0006,2.028,2.0856,2.1976,2.2608,2.2718,2.4102,2.4922,2.5264,2.6282,2.7066,2.7493,2.8066,2.8616,2.9293,2.949,2.9951,3.0237,3.012,2.995,2.9627,2.8815,2.8338,2.7861,2.7083,2.6991,2.7275,2.7639,2.8359,2.9209,2.9908,3.1011,3.2227,3.3003,3.4044,3.5353,3.7244,3.8082,3.8786,3.979,4.0094,4.036,4.0257,4.019,4.0246,4.0807,4.0932,4.1159,0.0,0.0,0.0,4.4262,4.4839,0.0,4.7155,4.7353,0.0,4.8474,0.0,4.8085,4.7895,4.7186,0.0,0.0,4.6299,4.5598,4.4824,4.4726,4.4194,4.3505,4.34,4.3028,4.2086,4.1677,4.1483,4.1327,4.1172,4.1172,4.1172,4.1172,4.1172,4.1172,4.1172,4.1172,4.1172,4.1172,4.1172,4.1094,4.0351,4.0,3.9805,3.9023,3.8672,3.8574,0.0,0.0,0.0,0.0,0.0,0.0,0.0,0.0,0.0,0.0,0.0,0.0,0.0,0.0,0.0,0.0,0.0,0.0,0.0,1.8564,1.9053,1.9553,1.9657,1.9906,2.0459,2.1393,2.1874,2.2078,2.3233,2.4032,2.4456,2.5089,2.5718,2.622,2.6653,2.7168,2.7782,2.8087,2.8471,0.0,0.0,2.8742,2.8688,2.7957,2.7618,2.7428,2.679,2.6732,2.6982,2.7476,2.8205,2.9021,3.0214,3.1277,3.229,3.3357,3.4443,3.5679,3.731,3.82,3.8808,3.9396,3.9553,3.9656,3.9359,3.9067,3.8912,3.8969,3.8852,0.0,3.9484,4.0243,0.0,0.0,0.0,0.0,4.5186,4.5745,4.6285,0.0,4.6894,0.0,4.6703,4.6189,4.5555,0.0,4.5256,4.4805,4.3919,4.3863,4.3269,4.2564,4.2476,4.2166,4.1483,4.1327,4.1172,4.1172,4.1172,4.1172,4.1172,4.1172,4.1172,4.1172,0.0,4.1172,4.1172,4.1172,4.1055,4.082,4.0156,3.9766,3.9512,3.8828,3.8574,3.8574,0.0,0.0,0.0,0.0,0.0,0.0,0.0,0.0,0.0,0.0,0.0,0.0,0.0,0.0,0.0,0.0,0.0,0.0,0.0,0.0,1.869,1.9006,1.9385,1.9675,2.0052,2.0805,2.1294,2.1578,2.2292,2.3036,2.384,2.384,2.4365,2.5083,2.5257,2.5777,2.6411,2.673,2.7087,2.742,2.7323,2.745,2.761,0.0,2.7217,2.7348,2.6952,2.6828,2.6961,2.7774,2.8411,2.908,3.058,3.1652,3.2674,3.3997,3.524,3.6302,3.6884,3.8004,3.8809,3.8844,3.8979,3.8966,3.8437,3.7908,3.7486,3.7326,0.0,3.6566,3.7414,3.8022,3.8738,3.9833,0.0,4.257,4.3487,4.4318,4.4983,4.5206,4.5444,4.5508,4.5157,4.5125,4.4805,4.4201,4.405,4.3746,4.3615,4.3157,4.2544,4.1773,4.1773,4.1618,4.1172,4.1172,4.1172,4.1327,4.1327,4.1327,4.1327,4.1327,4.1327,4.1327,0.0,0.0,4.1172,4.1113,4.0859,4.0469,4.0,3.9551,3.9141,3.873,3.8574,3.8574,0.0,0.0,0.0,0.0,0.0,0.0,0.0,0.0,0.0,0.0,1.7903,1.8155,0.0,0.0,0.0,0.0,0.0,0.0,0.0,0.0,0.0,1.8921,1.9181,1.9498,1.9877,2.0584,2.1085,2.1085,2.1825,2.2226,2.2335,2.2787,2.3319,2.401,2.4283,2.4866,2.5666,2.555,2.5743,2.6232,2.6109,2.6016,2.5915,2.5991,0.0,0.0,2.6023,2.614,2.6389,2.711,2.8045,2.9273,3.0346,3.1406,3.2548,3.3701,3.4485,3.5323,3.6757,3.737,3.7668,3.7883,3.7718,3.7348,3.6848,3.6328,0.0,0.0,3.4955,3.4927,3.5172,3.5571,3.6396,3.796,3.8709,3.9724,4.1572,4.2316,4.2906,0.0,0.0,0.0,0.0,0.0,0.0,0.0,0.0,0.0,4.3157,4.239,4.1773,4.1327,4.1327,4.1327,4.1172,4.1172,4.1327,4.1618,4.1618,4.1927,4.2216,4.2216,4.2082,4.1618,0.0,0.0,4.1152,4.0781,4.0586,4.0449,3.9629,3.9277,3.9141,3.873,3.8574,3.8574,0.0,0.0,0.0,0.0,0.0,0.0,0.0,0.0,1.772,1.772,1.7745,1.7981,1.8529,1.8552,0.0,0.0,0.0,0.0,0.0,0.0,0.0,0.0,1.9051,1.9221,1.935,1.9949,2.0298,2.042,0.0,2.14,2.1712,2.214,2.2512,2.2945,2.3288,2.375,2.4296,2.4409,2.4661,2.4973,2.5126,2.5231,0.0,0.0,0.0,0.0,2.5635,2.5828,2.6178,2.6927,2.7742,2.8645,2.9984,3.1074,3.2129,3.3633,3.4551,3.5293,3.6642,3.7094,3.7153,3.6975,3.6654,3.611,3.5027,0.0,0.0,3.2892,3.2742,3.2674,3.2769,3.3353,3.409,3.5386,3.6604,3.7835,3.9274,4.0278,4.1264,4.2042,0.0,0.0,0.0,0.0,0.0,0.0,0.0,0.0,4.239,4.1773,4.1327,4.1172,4.1172,4.1327,4.1463,4.1463,4.1773,4.2062,4.2062,4.2216,4.237,4.237,4.2096,4.1742,0.0,0.0,4.0774,4.0273,4.0059,3.9785,3.9375,3.9062,3.8848,3.8652,3.8574,3.8574,0.0,0.0,0.0,0.0,0.0,0.0,0.0,1.759,1.7778,1.7778,1.7865,1.8047,1.8541,1.8599,1.8468,0.0,0.0,0.0,0.0,0.0,0.0,0.0,0.0,0.0,0.0,0.0,0.0,0.0,0.0,0.0,0.0,0.0,0.0,0.0,0.0,0.0,2.3244,2.3541,2.3758,0.0,0.0,0.0,0.0,0.0,0.0,0.0,0.0,2.5508,2.5889,2.6755,2.7268,2.7783,2.947,3.0643,3.1719,3.3437,3.4434,3.5156,3.6016,3.6484,3.6562,3.5801,3.554,3.4902,3.3386,3.2793,3.2113,3.088,3.0677,3.0663,3.0664,3.1317,3.2231,3.3279,3.4769,3.6144,3.7441,3.8595,3.984,0.0,4.1193,0.0,0.0,0.0,0.0,0.0,0.0,0.0,4.1618,4.1327,4.1172,4.1172,4.1327,4.1463,4.1773,4.1927,4.2022,4.2382,4.2382,4.2342,4.2393,4.2393,4.2059,4.1605,0.0,0.0,0.0,3.9916,3.9531,3.9199,3.9101,3.8867,3.8574,3.8574,3.8574,3.8574,0.0,0.0,0.0,0.0,0.0,0.0,0.0,1.7865,1.803,1.803,1.8356,1.8541,1.8581,1.8498,1.8547,0.0,0.0,0.0,0.0,0.0,0.0,0.0,0.0,0.0,0.0,0.0,0.0,0.0,0.0,0.0,0.0,0.0,0.0,0.0,0.0,0.0,0.0,2.3281,0.0,0.0,0.0,0.0,0.0,0.0,0.0,0.0,0.0,2.5016,2.5402,2.6277,2.6689,2.7114,2.875,3.0056,3.1289,3.2988,3.3535,3.3789,3.4648,3.4902,3.4824,3.4375,3.3926,3.3368,3.2295,3.1656,3.0974,2.9962,2.9538,2.9393,2.9258,2.9908,3.0937,3.221,3.3279,3.456,3.6438,3.7506,3.8465,3.9467,0.0,0.0,0.0,0.0,0.0,0.0,0.0,0.0,0.0,4.1172,4.1172,4.1172,4.1618,4.1773,4.1773,4.2216,4.2322,4.2241,4.2241,4.2338,4.2373,4.2373,4.2056,4.157,0.0,0.0,0.0,3.9582,3.9238,3.916,3.8789,3.8613,3.8574,3.8574,3.8574,3.8574,0.0,0.0,0.0,0.0,0.0,0.0,1.7452,1.7732,1.806,1.8363,1.8518,1.8625,1.8625,1.8573,1.8562,0.0,0.0,0.0,0.0,0.0,0.0,0.0,0.0,0.0,0.0,0.0,0.0,0.0,0.0,0.0,0.0,0.0,0.0,0.0,0.0,0.0,0.0,0.0,0.0,0.0,0.0,0.0,0.0,0.0,0.0,0.0,0.0,0.0,2.4716,2.5571,2.5915,2.6238,2.7955,2.892,2.9808,3.188,3.2686,3.308,3.3691,3.3926,3.3769,3.3105,3.2721,3.2096,3.0655,3.0269,2.9769,2.8635,2.8407,2.8421,2.8333,2.8682,2.9349,3.0663,3.1734,3.2993,3.484,3.6018,3.7144,3.8253,3.9117,0.0,0.0,0.0,0.0,0.0,0.0,0.0,0.0,4.1172,4.1172,4.1172,4.1618,4.1808,4.1702,4.214,4.2371,4.222,4.222,4.2287,4.2249,4.2249,4.2104,4.1542,0.0,0.0,0.0,3.918,3.8828,3.8809,3.8633,3.8574,3.8574,3.8302,3.8302,3.8117,0.0,0.0,0.0,0.0,0.0,1.6577,1.7185,1.7459,1.7851,1.8424,1.8548,1.8596,1.8815,1.8839,1.8786,1.8679,0.0,0.0,0.0,0.0,0.0,0.0,0.0,0.0,0.0,0.0,0.0,0.0,0.0,0.0,0.0,0.0,0.0,0.0,0.0,0.0,0.0,0.0,0.0,0.0,0.0,0.0,0.0,0.0,0.0,0.0,0.0,0.0,0.0,0.0,0.0,2.5802,2.7387,2.8115,2.8728,3.0942,3.1836,3.2157,3.2808,3.2922,3.2745,3.2017,3.1604,3.1102,2.963,2.9051,2.8574,2.7476,2.7318,2.7365,2.7489,2.7634,2.8173,2.9559,3.0574,3.1795,3.3617,3.4799,3.6013,3.7248,0.0,0.0,0.0,0.0,0.0,0.0,0.0,0.0,0.0,4.0976,4.0976,4.0976,4.144,4.1682,4.1545,4.1997,4.22,4.2042,4.2042,4.1979,4.1855,4.1855,4.1669,0.0,0.0,0.0,0.0,3.8865,3.8574,3.8555,3.8437,3.8379,3.8214,3.7808,3.7479,3.7441,0.0,0.0,0.0,0.0,0.0,0.0,0.0,1.7142,1.7431,1.8133,1.8307,1.8653,1.9319,1.9368,1.9368,1.9368,0.0,0.0,0.0,0.0,0.0,0.0,0.0,0.0,0.0,0.0,1.9397,1.9125,1.9641,0.0,0.0,0.0,0.0,0.0,0.0,0.0,0.0,0.0,0.0,0.0,0.0,0.0,0.0,0.0,0.0,0.0,0.0,0.0,0.0,0.0,0.0,0.0,0.0,2.7564,2.833,3.0196,3.0811,3.0903,3.1586,3.1712,3.1612,3.1244,3.0802,3.0238,2.9333,2.833,2.7354,2.6886,2.6352,2.6041,2.6496,2.6951,2.7717,2.9083,3.0098,3.1319,3.3141,3.3937,3.4942,0.0,0.0,0.0,0.0,0.0,0.0,0.0,0.0,0.0,0.0,4.0527,4.0527,4.0527,4.1291,4.1525,4.1062,4.1953,4.2042,4.1565,4.1565,4.1338,4.0882,4.0882,0.0,0.0,0.0,0.0,0.0,3.8865,3.8574,3.8535,3.8105,3.7643,3.7316,3.6893,3.6456,3.6171,0.0,0.0,0.0,0.0,0.0,0.0,0.0,1.6764,1.7123,1.7702,1.7922,1.8069,1.829,1.8658,1.888,1.888,0.0,0.0,0.0,0.0,0.0,0.0,0.0,0.0,0.0,0.0,1.9826,1.9794,2.0325,2.0464,2.014,2.0139,0.0,0.0,0.0,0.0,0.0,0.0,0.0,0.0,0.0,0.0,0.0,0.0,0.0,0.0,0.0,0.0,0.0,0.0,0.0,0.0,0.0,0.0,0.0,2.8593,2.9274,2.9766,3.0273,3.0411,3.0309,2.9946,2.9826,2.9518,2.84,2.7973,2.7641,2.6865,2.6557,2.6494,2.6957,2.7167,2.7715,2.8927,2.991,3.0954,3.225,0.0,0.0,3.5517,3.6578,0.0,0.0,0.0,0.0,0.0,0.0,0.0,0.0,4.0098,4.0098,4.0098,4.0833,4.1062,4.0599,4.148,4.1545,4.1089,4.1089,4.0862,4.0427,4.0406,0.0,0.0,0.0,0.0,0.0,3.798,3.7695,3.7695,3.7559,3.7216,3.6912,3.6494,3.6152,3.5669,0.0,0.0,0.0,0.0,0.0,0.0,0.0,1.6442,1.6797,1.7382,1.7503,1.7671,1.7941,1.8264,1.8462,1.8511,0.0,0.0,0.0,0.0,0.0,0.0,0.0,0.0,0.0,1.9502,1.9843,1.9992,2.0494,2.0669,2.0593,2.0377,2.0313,2.0313,0.0,0.0,0.0,0.0,0.0,0.0,0.0,0.0,2.0974,0.0,0.0,0.0,0.0,0.0,0.0,0.0,0.0,0.0,0.0,0.0,0.0,0.0,2.8029,2.85,2.9239,2.9442,2.9279,2.8985,2.8894,2.8634,2.7673,2.7302,2.7062,2.6466,2.6211,2.6275,2.6934,2.7062,2.748,2.8873,2.9905,3.0768,0.0,0.0,0.0,3.5411,0.0,0.0,0.0,0.0,0.0,0.0,0.0,0.0,0.0,0.0,3.957,3.9394,4.0127,4.0452,4.0011,4.0555,4.076,4.0471,4.0306,4.0241,3.9972,0.0,0.0,0.0,0.0,0.0,0.0,3.7445,3.7305,3.7285,3.7129,3.677,3.6188,3.5895,3.5398,3.4796,0.0,0.0,0.0,0.0,0.0,0.0,0.0,0.0,1.646,1.7045,1.7165,1.741,1.8028,1.8129,1.8176,1.8316,0.0,0.0,0.0,0.0,0.0,0.0,0.0,0.0,0.0,1.9395,1.9696,1.9948,2.028,2.0602,2.0955,2.0786,2.0744,2.0744,2.0529,2.0399,0.0,0.0,0.0,0.0,0.0,0.0,0.0,0.0,0.0,0.0,0.0,0.0,0.0,0.0,0.0,0.0,0.0,0.0,0.0,0.0,0.0,0.0,0.0,2.869,2.85,2.838,2.7963,2.7549,2.7323,2.664,0.0,2.5957,2.5594,2.5573,2.6533,2.6704,2.7323,2.9104,0.0,0.0,0.0,3.3169,0.0,0.0,0.0,0.0,0.0,0.0,0.0,0.0,0.0,0.0,0.0,0.0,3.8926,3.8535,3.918,3.9493,3.9136,3.9394,3.9596,3.9575,3.9466,3.9378,3.9357,0.0,0.0,0.0,0.0,0.0,0.0,3.7347,3.7207,3.7168,3.6777,3.6205,3.5452,3.5054,3.437,3.3817,0.0,0.0,0.0,0.0,0.0,0.0,0.0,0.0,0.0,0.0,1.6635,1.6729,1.6898,1.73,1.7597,0.0,0.0,0.0,0.0,0.0,0.0,0.0,0.0,0.0,0.0,1.9829,2.0145,2.0355,2.0879,2.1219,2.1509,2.1233,2.1106,2.1106,2.0786,2.0616,2.0616,0.0,0.0,0.0,0.0,0.0,0.0,0.0,0.0,0.0,2.2466,2.2931,0.0,0.0,0.0,0.0,0.0,0.0,0.0,0.0,2.7016,2.7351,2.7669,0.0,2.7895,2.8187,2.8121,2.7767,0.0,2.7125,2.6838,2.6462,2.639,2.6528,2.7327,2.7436,2.7981,0.0,0.0,0.0,3.2259,0.0,0.0,0.0,0.0,0.0,0.0,0.0,0.0,0.0,0.0,0.0,0.0,0.0,3.8184,3.8086,3.8014,3.8157,3.868,3.8789,3.8707,3.8707,3.8746,3.8523,3.8178,0.0,0.0,0.0,0.0,0.0,3.6465,3.6328,3.6328,3.6309,3.6211,3.5761,3.5054,3.4959,3.437,3.3817,0.0,0.0,0.0,0.0,0.0,0.0,0.0,0.0,0.0,0.0,0.0,0.0,0.0,0.0,0.0,0.0,0.0,0.0,0.0,0.0,0.0,0.0,0.0,1.9914,1.9708,1.9902,2.0232,2.0758,2.0875,2.1284,2.1949,2.1549,2.1423,2.1423,2.1106,2.085,2.068,2.068,2.0786,0.0,2.0914,0.0,0.0,0.0,0.0,0.0,2.2823,2.3265,0.0,2.4064,2.4545,2.5009,0.0,0.0,0.0,0.0,2.6739,2.6901,2.7354,2.7244,2.714,2.7313,2.7318,2.7205,2.6851,2.688,2.6886,2.6617,2.6752,2.7048,2.7568,2.8055,2.8668,0.0,3.0606,0.0,0.0,0.0,0.0,0.0,0.0,0.0,0.0,0.0,0.0,0.0,0.0,0.0,0.0,0.0,3.7637,3.7637,3.7226,3.7347,3.7921,3.7928,3.7848,3.7848,3.7903,3.7682,3.7441,0.0,0.0,0.0,0.0,0.0,3.541,3.541,3.541,3.541,3.541,3.5027,3.4623,3.4334,3.3928,3.3521,0.0,0.0,0.0,0.0,0.0,0.0,0.0,0.0,0.0,0.0,0.0,0.0,0.0,0.0,0.0,0.0,0.0,0.0,0.0,0.0,0.0,0.0,0.0,2.0118,1.9914,1.9862,2.0257,2.1099,2.0758,2.1198,2.2259,2.1949,2.1761,2.1698,2.1423,2.1106,2.085,2.085,2.1042,2.1296,2.1296,0.0,0.0,0.0,0.0,0.0,0.0,0.0,0.0,2.4279,2.4797,2.5196,2.54,0.0,0.0,0.0,0.0,0.0,2.7181,2.6989,2.6569,2.6387,2.6426,2.6507,2.6211,2.6436,2.6715,2.6715,2.7037,2.7469,2.77,2.8475,0.0,0.0,0.0,0.0,3.3428,0.0,0.0,0.0,0.0,0.0,0.0,0.0,0.0,0.0,0.0,0.0,0.0,0.0,0.0,3.7207,3.6738,3.6641,3.7012,3.6937,3.6877,3.6877,3.6829,3.6743,3.6723,3.6077,0.0,0.0,0.0,0.0,3.4707,3.4707,3.4707,3.4707,3.4707,3.4464,3.422,3.3936,3.352,3.3121,0.0,0.0,0.0,0.0,0.0,0.0,0.0,0.0,0.0,0.0,0.0,0.0,0.0,0.0,0.0,0.0,0.0,0.0,0.0,0.0,0.0,1.9843,2.0239,2.0398,2.0398,2.0093,2.0416,2.1437,2.1269,2.1666,2.2629,2.2259,2.1949,2.1698,2.1635,2.1572,2.1572,2.1572,2.1572,2.1635,2.1737,0.0,0.0,0.0,0.0,0.0,0.0,0.0,0.0,2.5021,2.53,2.5382,2.5577,0.0,0.0,0.0,0.0,0.0,2.6778,2.6739,2.6706,2.6769,2.699,2.7058,2.6688,2.7002,2.729,2.7149,2.7538,2.7895,2.7962,2.8768,2.9697,0.0,0.0,0.0,0.0,0.0,0.0,0.0,0.0,0.0,0.0,0.0,0.0,0.0,0.0,0.0,0.0,0.0,0.0,3.6758,3.5996,3.5625,3.5684,3.5625,3.572,3.572,3.525,3.5034,3.5034,3.4956,3.4936,0.0,0.0,3.4707,3.4707,3.4707,3.4707,3.4707,3.4707,3.4464,3.422,3.4087,3.3823,3.3539,0.0,0.0,0.0,0.0,0.0,0.0,0.0,0.0,0.0,0.0,0.0,0.0,0.0,0.0,0.0,0.0,0.0,0.0,0.0,0.0,0.0,1.929,1.9843,2.0237,2.0498,2.0246,2.0574,2.1579,2.1381,2.184,2.2787,2.2482,2.2197,2.1949,2.1886,2.1761,2.1698,2.1698,2.1824,2.2011,0.0,0.0,0.0,0.0,0.0,0.0,0.0,0.0,0.0,0.0,2.577,2.5825,2.5934,0.0,0.0,0.0,0.0,0.0,2.6876,2.6947,2.7054,2.711,2.7112,2.7038,2.6956,2.7475,2.7869,2.7644,2.8156,2.8669,2.8746,0.0,3.0198,3.108,0.0,0.0,0.0,0.0,0.0,0.0,0.0,0.0,0.0,0.0,0.0,0.0,0.0,0.0,0.0,0.0,0.0,0.0,3.5351,3.5019,3.5019,3.4805,3.4805,3.5019,3.4805,3.4707,3.4687,3.4473,3.4355,3.4336,0.0,3.4004,3.4004,3.4004,3.4004,3.4004,3.4004,3.3895,3.3785,3.3527,3.3249,3.299,0.0,0.0,0.0,0.0,0.0,0.0,0.0,0.0,0.0,0.0,0.0,0.0,0.0,0.0,0.0,0.0,0.0,0.0,0.0,0.0,1.814,1.8689,1.929,1.9869,2.0549,2.0347,2.0732,2.1623,2.1473,2.1956,2.2969,2.2665,2.242,2.2321,2.2173,2.2011,2.1949,2.1949,2.2073,2.2383,0.0,0.0,0.0,0.0,0.0,0.0,0.0,0.0,0.0,0.0,0.0,0.0,0.0,0.0,0.0,2.6581,2.6856,2.7072,2.6952,2.717,2.7369,2.7435,2.7286,2.7103,2.7285,2.7836,2.8347,2.8126,0.0,0.0,0.0,2.9935,0.0,0.0,0.0,0.0,0.0,0.0,0.0,0.0,0.0,0.0,0.0,0.0,0.0,0.0,0.0,0.0,0.0,0.0,0.0,0.0,3.4785,3.4551,3.4551,3.4121,3.4141,3.4551,3.4453,3.4394,3.4394,3.4062,3.3926,3.3906,3.3574,3.3418,3.3418,3.3418,3.3418,3.3418,3.3418,3.3418,3.3418,3.3165,3.2804,3.2676,0.0,0.0,0.0,0.0,0.0,0.0,0.0,0.0,0.0,0.0,0.0,0.0,0.0,0.0,0.0,0.0,0.0,0.0,0.0,0.0,1.7539,1.814,1.8689,1.9499,2.0673,2.0575,2.0759,2.1327,2.1655,2.2274,2.3065,2.2909,2.2787,2.269,2.2629,2.2629,2.2629,2.2629,2.2726,2.2848,2.303,0.0,0.0,0.0,0.0,0.0,0.0,0.0,0.0,0.0,0.0,0.0,0.0,0.0,2.6688,2.629,2.675,2.7349,2.6715,2.6982,2.7582,2.7889,2.768,2.7553,2.7949,2.8292,2.8524,2.8414,0.0,0.0,0.0,2.9928,3.1377,0.0,0.0,0.0,0.0,0.0,0.0,0.0,0.0,0.0,0.0,0.0,0.0,0.0,0.0,0.0,0.0,0.0,0.0,0.0,0.0,3.4121,3.4121,3.3691,3.3691,3.4121,3.3711,3.3516,3.3516,3.3476,3.3476,3.3476,3.3437,3.3418,3.3418,3.3418,3.3418,3.3418,3.3418,3.3418,3.3418,3.3418,3.3292,3.3292,0.0,0.0,0.0,0.0,0.0,0.0,0.0,0.0,0.0,0.0,0.0,0.0,0.0,0.0,0.0,0.0,0.0,0.0,0.0,1.7199,1.746,1.8061,1.861,1.929,2.01,2.0393,2.0733,2.1302,2.2069,2.2623,2.2941,2.3119,2.309,2.2969,2.2848,2.2787,2.269,2.2787,2.2909,2.309,2.3365,2.378,0.0,0.0,0.0,0.0,0.0,0.0,0.0,0.0,2.7233,2.7386,2.7386,2.7284,2.7078,2.6765,2.7226,2.7734,2.7143,2.7541,2.8229,2.8303,2.83,2.8246,2.8407,2.8644,2.8912,2.9215,2.9371,0.0,0.0,0.0,0.0,0.0,0.0,0.0,0.0,0.0,0.0,0.0,0.0,0.0,0.0,0.0,0.0,0.0,0.0,0.0,0.0,0.0,0.0,0.0,0.0,3.3535,3.3281,3.3125,3.2988,3.2891,3.3242,3.3281,3.3027,3.3027,3.2891,3.2637,3.2637,3.2637,3.2656,3.293,3.3027,3.3066,3.332,3.3418,3.3418,3.3418,3.3418,3.3418,0.0,0.0,0.0,0.0,0.0,0.0,0.0,0.0,0.0,0.0,0.0,0.0,0.0,0.0,0.0,0.0,0.0,0.0,1.724,1.724,1.745,1.7843,1.8349,1.8924,1.9546,2.01,2.0625,2.1147,2.2001,2.2592,2.2897,2.3167,2.3272,2.3245,2.315,2.309,2.2969,2.309,2.3271,2.345,2.3747,2.4131,0.0,0.0,0.0,0.0,0.0,0.0,0.0,0.0,2.769,2.779,2.779,2.769,2.7437,2.7181,2.7556,2.7967,2.7381,2.7894,2.8585,2.8523,2.8599,2.8667,2.8704,2.9044,2.9435,2.9736,2.9789,0.0,0.0,0.0,0.0,0.0,0.0,0.0,0.0,0.0,0.0,0.0,0.0,0.0,0.0,0.0,0.0,0.0,0.0,0.0,0.0,0.0,0.0,0.0,0.0,0.0,3.2598,3.2598,3.2461,3.2168,3.2754,3.2871,3.2598,3.2598,3.2441,3.2168,3.2168,3.2168,3.2187,3.248,3.2598,3.2617,3.291,3.3105,3.3223,3.3223,3.3301,3.3418,0.0,0.0,0.0,0.0,0.0,0.0,0.0,0.0,0.0,0.0,0.0,0.0,0.0,0.0,0.0,0.0,0.0,0.0,1.7418,1.7418,1.7418,1.7418,1.7843,1.8438,1.9054,1.9661,2.0294,2.0901,2.1429,2.2193,2.321,2.3041,2.318,2.3603,2.3628,2.3628,2.3628,2.3628,2.3806,2.4125,2.4125,2.4447,2.5048,0.0,0.0,0.0,0.0,0.0,0.0,0.0,2.8088,2.8186,2.8186,2.8039,2.774,2.7335,2.7665,2.7967,2.7381,2.7894,2.8585,2.838,2.8472,2.8763,2.8981,2.9616,3.0125,2.9875,3.0127,3.058,3.1174,0.0,0.0,0.0,0.0,0.0,0.0,0.0,0.0,0.0,0.0,0.0,0.0,0.0,0.0,0.0,0.0,0.0,0.0,0.0,0.0,0.0,0.0,0.0,3.2168,3.2168,3.2168,3.2148,3.2148,3.2148,3.2168,3.2168,3.2168,3.2148,3.2148,3.2148,3.2148,3.2168,3.2168,3.2168,3.2168,3.2422,3.2793,3.2793,3.3047,3.3418,0.0,0.0,0.0,0.0,0.0,0.0,0.0,0.0,0.0,0.0,0.0,0.0,0.0,0.0,0.0,0.0,0.0,0.0,1.7447,1.7447,1.7447,1.7447,1.8031,1.8385,1.8587,1.9752,2.0555,2.0947,2.1581,2.1981,2.2273,2.2669,2.3034,2.3472,2.3358,2.3476,2.3832,2.3923,2.3982,2.4125,2.4563,2.4935,2.5356,0.0,0.0,0.0,0.0,0.0,0.0,0.0,0.0,0.0,2.8525,2.8332,2.8088,2.764,2.8012,2.8425,2.7734,2.8447,2.9197,2.8574,2.9015,0.0,2.906,2.9327,2.9658,0.0,3.016,3.0636,0.0,0.0,0.0,0.0,0.0,0.0,0.0,0.0,0.0,0.0,0.0,0.0,0.0,0.0,0.0,0.0,0.0,0.0,0.0,0.0,0.0,0.0,0.0,0.0,3.2296,3.2276,3.2255,3.1956,3.1721,3.1643,3.1719,3.1719,3.1543,3.1269,3.1269,3.1269,3.1289,3.1582,3.1894,3.2168,3.2168,3.2246,3.2363,3.2363,3.2422,3.2539,0.0,0.0,0.0,0.0,0.0,0.0,0.0,0.0,0.0,0.0,0.0,0.0,0.0,0.0,0.0,0.0,0.0,0.0,0.0,1.757,1.757,1.757,1.7876,1.8345,1.8886,2.0053,2.0887,2.1313,2.1691,2.1938,2.2129,2.2454,2.2831,2.3228,2.3118,2.3323,2.3843,2.39,2.4121,2.4505,2.4905,2.5328,2.5742,0.0,0.0,0.0,0.0,0.0,0.0,0.0,0.0,0.0,2.8763,2.8621,2.8381,2.784,2.8225,2.8652,2.7879,2.8648,2.9478,2.8672,2.9238,2.9915,2.9532,0.0,0.0,0.0,0.0,0.0,0.0,0.0,0.0,0.0,0.0,0.0,0.0,0.0,0.0,0.0,0.0,0.0,0.0,0.0,0.0,0.0,0.0,0.0,0.0,0.0,0.0,0.0,0.0,0.0,3.219,3.217,3.2049,3.1787,3.1556,3.1463,3.1368,3.1269,3.1133,3.0898,3.0898,3.0898,3.0918,3.1172,3.1426,3.166,3.166,3.1758,3.1914,3.1914,3.2012,3.2168,0.0,0.0,0.0,0.0,0.0,0.0,0.0,0.0,0.0,0.0,1.6846,0.0,0.0,0.0,0.0,0.0,0.0,0.0,0.0,0.0,1.776,1.776,1.7611,1.8231,1.9625,2.0433,2.1149,2.1758,2.1766,2.2,2.2401,2.2328,2.2525,2.2936,2.2857,2.3125,2.3659,2.3659,2.4146,2.4912,2.4996,2.5438,2.6008,2.6357,0.0,0.0,0.0,0.0,0.0,0.0,0.0,0.0,2.892,2.8763,2.8525,2.794,2.8248,2.8565,2.7909,2.8566,2.9346,2.8646,2.916,0.0,3.0112,2.9894,2.9778,0.0,0.0,0.0,0.0,0.0,0.0,0.0,0.0,0.0,0.0,0.0,0.0,0.0,0.0,0.0,0.0,0.0,0.0,0.0,0.0,0.0,0.0,0.0,0.0,0.0,0.0,0.0,3.1782,3.1782,3.1782,0.0,3.1782,3.1552,3.1206,3.1073,3.0879,3.0898,3.0898,3.0898,3.0898,3.0898,3.0898,3.0898,3.0898,3.1133,3.1465,3.1465,3.1719,3.2051,0.0,0.0,0.0,0.0,0.0,0.0,0.0,0.0,0.0,0.0,0.0,0.0,0.0,0.0,0.0,0.0,0.0,0.0,0.0,0.0,1.8083,1.8083,1.8083,1.8412,1.9195,2.006,2.0806,2.1422,2.1666,2.1876,2.1966,2.1918,2.222,2.2748,2.2624,2.2926,2.347,2.347,2.3658,2.3925,2.4135,2.4549,2.5034,2.5929,2.6634,0.0,0.0,0.0,0.0,0.0,0.0,0.0,2.8905,2.8794,2.8604,2.789,2.7921,2.8177,2.7795,2.7966,2.8317,2.844,2.8688,2.9141,2.9943,2.9796,2.9479,0.0,0.0,0.0,0.0,0.0,0.0,0.0,0.0,0.0,0.0,0.0,0.0,0.0,0.0,0.0,0.0,0.0,0.0,0.0,0.0,0.0,0.0,0.0,0.0,0.0,0.0,3.207,3.207,3.207,3.196,0.0,3.154,3.1298,3.0984,3.1122,3.1112,3.0898,3.0898,3.0898,3.0898,3.0898,3.0898,3.0898,3.0898,3.0937,3.1035,3.1035,3.1094,3.1172,0.0,0.0,0.0,0.0,0.0,0.0,0.0,0.0,0.0,0.0,0.0,0.0,0.0,0.0,0.0,0.0,0.0,0.0,0.0,0.0,1.8361,1.8361,1.84,1.8719,1.9335,1.9809,2.0514,2.1449,2.1626,2.1843,2.2077,2.203,2.2102,2.236,2.2242,2.2473,2.31,2.31,2.3395,2.3798,2.4154,2.4554,2.4975,2.5638,2.6236,2.6749,2.7642,0.0,0.0,0.0,0.0,0.0,0.0,0.0,2.8573,2.789,2.7832,2.7948,2.7767,2.7775,2.8024,2.8349,2.8512,2.8763,2.9255,2.9203,2.9141,0.0,0.0,0.0,0.0,0.0,0.0,0.0,0.0,0.0,0.0,0.0,0.0,0.0,0.0,0.0,0.0,0.0,0.0,0.0,0.0,0.0,0.0,0.0,0.0,0.0,3.2102,3.221,3.221,3.221,3.2102,3.1993,3.1667,3.134,3.0901,3.0717,3.0596,3.0502,3.0584,3.0566,3.0586,3.0801,3.0898,3.0898,3.0898,3.0898,3.0898,3.0898,3.0898,3.0898,0.0,0.0,0.0,0.0,0.0,0.0,0.0,0.0,0.0,0.0,0.0,0.0,0.0,0.0,0.0,0.0,0.0,0.0,0.0,0.0,0.0,1.8595,1.8711,1.8977,1.949,1.9684,2.0309,2.1355,2.1556,2.1883,2.2306,2.2253,2.217,2.203,2.1935,2.2166,2.2637,2.2763,2.3217,2.3815,2.4161,2.4549,2.4958,2.5312,2.5758,2.6271,2.7086,2.7609,2.8054,2.8712,0.0,0.0,0.0,0.0,2.8477,2.794,2.7743,2.7719,2.7598,2.7631,2.7816,2.8212,2.8339,0.0,2.869,2.8696,2.8655,0.0,0.0,0.0,0.0,0.0,0.0,0.0,0.0,0.0,0.0,0.0,0.0,0.0,0.0,0.0,0.0,0.0,0.0,0.0,0.0,0.0,0.0,0.0,3.2062,3.2169,3.2169,3.2276,3.2276,3.2276,3.2191,3.2062,3.1761,3.1329,3.0765,3.0238,2.9988,3.0056,3.0167,3.0098,3.0117,3.0508,3.0703,3.0762,3.0762,3.082,3.0898,3.0898,3.0898,3.0898,0.0,0.0,0.0,0.0,0.0,0.0,0.0,0.0,0.0,0.0,0.0,0.0,0.0,0.0,0.0,0.0,0.0,0.0,0.0,0.0,0.0,1.9026,1.9026,1.9055,1.917,1.9808,2.0225,2.04,2.1507,2.2004,2.2004,2.2329,2.2477,2.2356,2.231,2.2366,2.2451,2.2451,2.2666,2.3074,2.3091,2.3407,2.3895,2.4641,2.5207,2.5691,2.6536,2.7457,2.8259,2.8265,2.8722,0.0,0.0,0.0,2.8477,2.781,2.7365,2.7021,2.6919,2.6996,2.7189,2.7849,2.7622,2.7645,0.0,0.0,2.8307,0.0,0.0,0.0,0.0,0.0,0.0,0.0,0.0,0.0,0.0,0.0,0.0,0.0,0.0,0.0,0.0,0.0,0.0,0.0,0.0,0.0,0.0,3.1516,3.1804,3.2009,3.2316,3.2441,3.2441,3.2441,3.2236,3.1723,3.1206,3.0789,3.0475,3.016,2.9951,3.0036,2.9984,2.9892,2.9668,2.9726,2.9961,3.0293,3.0293,3.0527,3.0898,3.0898,3.0898,3.0898,0.0,0.0,0.0,0.0,0.0,0.0,0.0,0.0,0.0,0.0,0.0,0.0,0.0,0.0,0.0,0.0,0.0,0.0,0.0,0.0,0.0,1.9435,1.9435,1.9435,1.9435,1.973,2.0017,2.0371,2.0892,2.1457,2.2147,2.2236,2.2406,2.2523,2.2523,2.2523,2.2523,2.2569,2.2752,2.2904,2.3083,2.3348,2.3769,2.42,2.4579,2.5051,2.5862,2.6502,2.702,2.7312,2.7879,2.8478,2.8202,0.0,0.0,0.0,2.7203,2.6693,2.6242,2.6569,2.6934,2.6771,2.7109,2.7497,2.754,2.7566,2.7693,0.0,0.0,0.0,0.0,0.0,0.0,0.0,0.0,0.0,0.0,0.0,0.0,0.0,0.0,0.0,0.0,0.0,0.0,0.0,0.0,0.0,3.1042,3.1119,3.1318,3.1614,3.1712,3.1909,3.2007,3.1909,3.1672,3.1236,3.1214,3.1013,3.062,3.0308,3.0096,2.9735,2.9669,2.9569,2.9459,2.9584,2.9668,2.9844,2.9844,3.0117,3.0508,3.0508,3.0664,3.0898,0.0,0.0,0.0,0.0,0.0,0.0,0.0,0.0,0.0,0.0,0.0,0.0,0.0,0.0,0.0,0.0,0.0,0.0,0.0,0.0,0.0,1.9833,1.9869,1.9833,1.9797,1.9726,1.9959,2.0363,2.0466,2.0991,2.1928,2.2098,2.2294,2.2448,2.2603,2.2661,2.2661,2.2735,2.2872,2.2949,2.3216,2.348,2.3739,2.3897,2.4151,2.4503,2.5155,2.5561,0.0,0.0,0.0,0.0,0.0,2.758,0.0,0.0,0.0,2.6426,2.5898,2.6188,2.6422,2.6039,2.6404,2.6813,0.0,0.0,2.7019,0.0,0.0,0.0,0.0,0.0,0.0,0.0,0.0,0.0,0.0,0.0,0.0,0.0,0.0,0.0,0.0,0.0,0.0,0.0,0.0,0.0,3.1157,3.1157,3.1371,3.1563,3.1563,3.1731,3.1921,3.154,3.1263,3.1152,3.1306,3.1121,3.0863,3.043,3.0182,2.9784,2.9494,2.9331,2.9243,2.9231,2.9316,2.9394,2.9394,2.9668,3.0059,3.0156,3.041,3.0723,0.0,0.0,0.0,0.0,0.0,0.0,0.0,0.0,0.0,0.0,0.0,0.0,0.0,1.8293,1.8634,1.8941,0.0,0.0,0.0,0.0,0.0,2.0254,2.0285,0.0,2.008,2.008,2.0076,2.0031,2.0526,2.0813,2.0818,2.1862,2.2287,2.2162,2.2611,2.2809,2.2809,2.2809,2.2917,2.3068,2.3246,2.3436,2.3653,2.3739,2.3994,2.4317,2.4348,0.0,0.0,0.0,0.0,0.0,0.0,0.0,2.7144,0.0,0.0,0.0,2.6242,2.5647,2.5211,2.6038,2.5513,2.4978,0.0,0.0,0.0,0.0,0.0,0.0,0.0,0.0,0.0,0.0,0.0,0.0,0.0,0.0,0.0,0.0,0.0,0.0,0.0,0.0,0.0,0.0,0.0,0.0,3.2016,3.2016,3.2111,3.2441,3.2441,3.2441,3.2441,3.1945,3.1659,3.1682,3.0935,3.0712,3.0874,3.037,3.0197,3.0287,2.9469,2.896,2.8767,2.8466,2.8594,2.8945,2.8945,2.9219,2.9648,3.0059,3.0215,3.0293,0.0,0.0,0.0,0.0,0.0,0.0,0.0,0.0,0.0,0.0,0.0,0.0,0.0,1.845,1.8836,1.9242,1.9581,0.0,0.0,0.0,0.0,2.0559,2.0559,2.0559,2.046,2.0357,2.0285,2.025,2.0325,2.0552,2.094,2.1195,2.1724,2.2443,2.2849,2.2962,2.2872,2.2872,2.2962,2.3068,2.3157,2.3334,2.3523,2.3596,0.0,0.0,0.0,0.0,0.0,0.0,0.0,0.0,0.0,0.0,0.0,2.6189,2.5879,2.5537,2.5689,2.5472,2.5214,2.509,2.4962,2.4895,2.5071,2.5065,0.0,0.0,0.0,0.0,0.0,0.0,0.0,0.0,0.0,0.0,0.0,0.0,0.0,0.0,0.0,0.0,0.0,0.0,0.0,0.0,0.0,0.0,3.1433,3.1433,3.1525,3.1707,3.1707,3.1707,3.1707,3.1922,3.1716,3.1155,3.1285,3.1054,3.0668,3.0373,3.0235,3.0155,2.9539,2.908,2.892,2.8621,2.8486,2.8516,2.8516,2.8769,2.918,2.9316,2.9726,3.0215,0.0,0.0,0.0,0.0,0.0,0.0,0.0,0.0,0.0,0.0,0.0,0.0,0.0,0.0,1.9064,1.9574,1.9975,2.0289,2.0494,2.0595,2.0695,2.0826,2.0826,2.0826,2.0761,2.0628,2.0561,2.0559,2.0357,2.0505,2.0896,2.0886,2.1272,2.1994,2.2389,2.2732,2.2933,2.2917,0.0,2.3007,0.0,0.0,2.3216,0.0,0.0,0.0,0.0,0.0,0.0,0.0,0.0,0.0,0.0,0.0,0.0,0.0,2.5337,2.502,2.5105,2.5021,2.4819,2.4554,2.4442,2.439,2.4166,0.0,0.0,0.0,0.0,0.0,0.0,0.0,0.0,0.0,0.0,0.0,0.0,0.0,0.0,0.0,0.0,0.0,0.0,0.0,0.0,0.0,0.0,0.0,3.0882,3.0882,3.097,3.112,3.112,3.1129,3.1321,3.1567,3.147,3.0928,3.1065,3.0941,3.043,3.0044,2.9937,2.9891,2.9555,2.9353,2.9026,2.8834,2.8514,2.8301,2.8301,2.8457,2.873,2.8867,2.9277,2.9805,0.0,0.0,0.0,0.0,0.0,0.0,0.0,0.0,0.0,1.7488,0.0,0.0,0.0,0.0,0.0,1.997,2.0254,2.0527,2.0794,2.0861,2.099,2.1119,0.0,0.0,0.0,2.0926,2.0861,2.0794,2.076,2.0628,2.0494,2.0967,2.1057,2.082,2.1287,2.2093,2.3038,0.0,2.2781,2.2781,0.0,2.2694,2.2694,0.0,0.0,0.0,2.3216,2.3304,0.0,0.0,0.0,0.0,0.0,0.0,0.0,0.0,0.0,2.4469,0.0,0.0,0.0,2.4416,2.3966,0.0,2.3195,0.0,0.0,0.0,0.0,0.0,0.0,0.0,0.0,0.0,0.0,0.0,0.0,0.0,0.0,0.0,0.0,0.0,0.0,0.0,0.0,0.0,0.0,3.067,3.067,3.067,3.067,3.067,3.067,3.0832,3.1199,3.0917,3.0834,3.096,3.0487,3.0193,3.0202,2.9635,2.9418,2.9423,2.9589,2.9436,2.9112,2.8834,2.8514,2.8301,2.8301,2.8301,2.834,2.875,2.8906,2.9043,0.0,0.0,0.0,0.0,0.0,0.0,0.0,1.7115,1.7323,0.0,0.0,0.0,1.8616,1.9288,1.9899,2.0323,2.0561,2.0794,2.1087,2.1151,2.1214,2.1309,2.1309,2.1309,2.1245,2.1214,2.1151,2.1087,2.1023,2.0893,2.0728,2.068,2.0844,2.1088,2.1009,2.1347,2.1934,2.2019,0.0,2.2074,2.2369,2.2495,0.0,0.0,0.0,0.0,0.0,2.2768,2.292,0.0,2.3009,2.3083,0.0,0.0,0.0,0.0,0.0,0.0,2.3881,0.0,0.0,0.0,0.0,0.0,0.0,0.0,0.0,0.0,0.0,0.0,0.0,0.0,0.0,0.0,0.0,0.0,0.0,0.0,0.0,0.0,0.0,0.0,0.0,0.0,0.0,0.0,3.0449,3.067,3.067,3.067,3.067,3.067,3.067,3.066,3.0664,3.0555,3.0567,3.066,3.0308,3.0143,3.0009,2.9594,2.9299,2.8913,2.8943,2.8853,2.8689,2.8906,2.8708,2.8301,2.8301,2.8301,2.8301,2.8418,2.8652,2.8945,0.0,0.0,0.0,0.0,0.0,0.0,1.7073,1.724,1.7447,0.0,0.0,0.0,1.8988,1.9617,2.0115,2.046,2.0761,2.1023,2.1247,2.1373,2.1433,2.1464,2.1464,2.1464,2.1464,2.1433,2.1435,2.1373,2.1277,2.1151,2.099,2.0794,2.0749,2.0875,2.0588,2.0572,2.0724,0.0,0.0,0.0,2.1405,0.0,0.0,2.162,2.1713,0.0,0.0,0.0,2.2328,2.2449,2.2586,0.0,0.0,0.0,0.0,0.0,0.0,2.27,2.3041,2.3092,2.2991,0.0,0.0,0.0,2.2007,2.1753,0.0,0.0,0.0,0.0,0.0,0.0,0.0,0.0,0.0,0.0,0.0,0.0,0.0,0.0,0.0,0.0,0.0,0.0,0.0,2.9167,2.9465,2.9737,2.996,3.0208,3.0332,3.0332,3.0332,3.0269,3.0162,3.0187,3.0097,3.0028,3.0178,2.9908,2.9398,2.9487,2.9086,2.8423,2.8615,2.8432,2.7965,2.8609,2.8655,2.8301,2.8301,2.8301,2.8301,2.8301,2.8437,2.8691,0.0,0.0,0.0,1.6947,1.6989,1.7115,1.724,1.7406,1.7652,0.0,1.8214,1.8655,1.9362,1.9792,2.0181,2.0494,2.086,2.1151,2.1309,2.1497,2.162,2.162,2.162,2.162,2.165,2.165,2.165,2.162,2.1495,2.1402,2.1309,2.1055,2.0795,2.0527,0.0,0.0,1.9641,0.0,0.0,2.0274,2.0202,2.0329,0.0,0.0,2.0914,0.0,2.1575,2.1698,2.1746,2.203,2.2217,0.0,0.0,0.0,0.0,0.0,2.203,2.1951,2.2111,2.1998,2.1877,0.0,0.0,0.0,2.0677,2.0712,2.074,0.0,0.0,0.0,0.0,0.0,0.0,0.0,0.0,0.0,0.0,0.0,0.0,0.0,0.0,0.0,0.0,2.7971,2.8047,2.8097,2.8097,2.8323,2.8825,2.9377,2.9704,2.9704,2.9754,2.977,2.9843,2.9843,2.9625,2.94,2.9809,2.9542,2.8768,2.9194,2.8866,2.8019,2.8349,2.798,2.72,2.8005,2.8316,2.8223,2.8281,2.8301,2.8301,2.8301,2.8301,2.834,0.0,0.0,1.7406,1.7406,1.7406,1.7406,1.7447,1.7652,1.7922,1.8123,1.8683,1.925,1.9617,1.9975,2.0357,2.0695,2.0957,2.1215,2.1528,2.1589,2.165,2.1768,2.1768,2.1797,2.1857,2.1857,2.1827,2.1768,2.1738,2.1617,2.1402,2.1277,2.1087,2.0795,0.0,0.0,0.0,0.0,0.0,1.8967,1.9611,0.0,1.9908,2.0167,2.0341,2.0502,2.0957,2.1242,2.1361,0.0,2.1746,2.1746,0.0,0.0,0.0,0.0,0.0,0.0,0.0,0.0,0.0,0.0,0.0,0.0,2.0586,2.031,2.0111,0.0,0.0,0.0,0.0,0.0,0.0,0.0,0.0,0.0,0.0,0.0,0.0,0.0,0.0,0.0,0.0,2.7193,2.762,2.8072,2.8097,2.8147,2.8273,2.88,2.9101,2.9101,2.9553,2.9596,2.9278,2.9303,2.9229,2.9106,2.8975,2.8935,2.9014,2.8746,2.8375,2.7998,2.7725,2.74,2.7061,2.7142,2.7377,2.7812,2.8164,2.8301,2.8301,2.8301,2.8301,2.8301,0.0,1.7652,1.7611,1.7611,1.7611,1.7611,1.7693,1.7855,1.8055,1.8321,1.8874,1.9398,1.9726,2.008,2.0392,2.0695,2.099,2.1247,2.1466,2.1589,2.1678,2.1738,2.1797,2.1857,2.1882,2.1882,2.1882,2.1882,2.1882,2.1794,2.1617,2.1495,2.1277,2.099,2.0563,0.0,0.0,0.0,1.8874,1.8534,1.8797,0.0,1.9064,1.9118,1.943,1.9935,2.0294,2.0682,2.1144,2.1264,2.1361,0.0,0.0,2.1506,2.1458,0.0,2.1264,2.1068,0.0,0.0,0.0,2.0343,0.0,0.0,0.0,1.9559,1.9379,1.8915,0.0,0.0,0.0,0.0,0.0,0.0,0.0,0.0,0.0,0.0,0.0,0.0,0.0,0.0,0.0,2.5887,2.6289,2.6816,2.7118,2.7394,2.767,2.8222,2.8524,2.8524,2.9076,2.9123,2.8737,2.9008,2.8882,2.842,2.841,2.8387,2.8226,2.8165,2.7974,2.7679,2.7442,2.7099,2.6838,2.6764,2.6922,2.709,2.7734,2.8105,2.8301,2.8301,2.8301,2.8301,1.8095,1.7922,1.7842,1.7842,1.7801,1.7842,1.7963,1.8055,1.8214,1.8595,1.9055,1.9435,1.9762,2.008,2.0357,2.066,2.0957,2.1151,0.0,0.0,0.0,2.1678,2.1738,2.1827,2.1911,2.1911,2.194,2.2027,2.2027,2.194,2.1827,2.1678,2.1466,2.1119,2.0662,0.0,0.0,0.0,0.0,1.8478,0.0,1.8071,1.8233,1.8079,1.8572,1.9309,1.9586,2.0175,2.0848,2.0898,0.0,2.1068,2.1144,2.1118,0.0,0.0,0.0,0.0,0.0,0.0,0.0,0.0,0.0,1.8946,0.0,0.0,0.0,1.834,1.848,0.0,0.0,0.0,0.0,0.0,0.0,0.0,0.0,0.0,0.0,0.0,0.0,0.0,0.0,2.4682,2.4983,2.541,2.5887,2.6389,2.6917,2.7494,2.7846,2.7946,2.8399,2.8599,2.8319,2.8684,2.8481,2.7904,2.8034,2.7767,2.7249,2.7502,2.7511,2.7246,2.7066,2.6798,2.6516,2.6585,2.6507,2.6484,2.7324,2.7871,2.8184,2.8262,2.8301,2.8301,1.8655,1.8344,1.8226,1.8226,1.8175,1.8163,1.8226,1.8372,1.8595,1.8988,1.9213,1.9472,0.0,0.0,0.0,0.0,0.0,0.0,2.1277,0.0,0.0,2.1678,2.1708,0.0,2.1998,2.1998,2.2061,2.2185,2.2185,2.2094,2.1882,2.1738,2.1526,0.0,2.0728,0.0,0.0,0.0,1.8874,0.0,1.8083,1.7787,0.0,1.7809,1.7963,1.8222,1.9136,1.9808,2.0321,0.0,2.0673,2.0723,0.0,2.0921,2.0795,0.0,0.0,0.0,0.0,0.0,0.0,0.0,1.921,0.0,0.0,0.0,1.8121,1.7845,0.0,1.769,1.769,0.0,0.0,0.0,0.0,0.0,0.0,0.0,0.0,0.0,0.0,0.0,0.0,0.0,2.4858,2.4908,2.4958,2.5234,2.5762,2.6339,2.6866,2.7369,2.7751,2.8052,2.8319,2.8009,2.7885,2.7881,2.7499,2.7175,2.6926,2.6541,2.6619,2.697,2.6268,2.6134,2.6496,2.5976,2.6035,2.6484,2.7324,2.7695,2.7773,2.8164,2.8301,2.8301,1.9109,1.8846,1.8731,1.8616,1.8567,1.8528,1.8528,1.8673,1.8903,1.9176,1.9325,1.9472,0.0,0.0,0.0,0.0,0.0,2.0728,0.0,0.0,2.131,0.0,0.0,0.0,0.0,2.2061,2.2175,2.2327,2.2327,2.2237,2.2152,2.1886,2.1617,0.0,2.0761,0.0,1.997,0.0,1.8874,0.0,0.0,0.0,0.0,1.7401,1.747,1.7862,1.8894,1.9504,1.9784,0.0,2.0372,0.0,0.0,0.0,0.0,0.0,0.0,0.0,0.0,0.0,0.0,0.0,0.0,0.0,0.0,0.0,1.781,0.0,0.0,0.0,0.0,0.0,0.0,0.0,0.0,0.0,0.0,0.0,0.0,0.0,0.0,0.0,0.0,0.0,0.0,0.0,0.0,2.4582,2.5109,2.5661,2.5995,2.6108,2.6955,2.7434,2.7702,2.7714,2.7656,2.7696,2.7208,2.6828,2.6275,2.6131,2.6038,2.5993,2.5889,2.5839,2.5944,2.5722,2.584,2.6074,2.668,2.7226,2.7695,2.7871,2.8086,2.8301,1.9808,1.9442,1.9213,0.0,0.0,1.8912,0.0,0.0,0.0,0.0,0.0,0.0,1.9726,1.9833,0.0,0.0,2.0357,2.0527,0.0,0.0,2.1119,0.0,0.0,0.0,0.0,2.2089,2.2265,2.2405,2.2405,2.2377,2.2265,2.2003,2.1675,0.0,0.0,2.0323,1.997,0.0,0.0,1.8478,1.8043,1.7652,1.7323,1.6989,1.7178,1.7676,1.8421,1.8951,1.9353,1.9761,1.9991,0.0,2.0169,0.0,0.0,0.0,0.0,0.0,1.9759,0.0,0.0,0.0,0.0,0.0,0.0,0.0,0.0,0.0,0.0,0.0,0.0,0.0,1.77,0.0,0.0,0.0,0.0,0.0,0.0,0.0,0.0,0.0,0.0,0.0,0.0,0.0,0.0,0.0,2.433,2.4858,2.5244,2.5277,2.6045,2.6574,2.6893,2.7148,2.7285,2.7244,2.6894,2.6385,2.5822,2.5658,2.5438,2.5145,2.5371,2.5518,2.5496,2.5526,2.5625,2.5762,2.6094,2.666,2.7324,2.7441,2.7754,2.8125,2.0926,2.0224,0.0,0.0,0.0,0.0,0.0,0.0,0.0,0.0,0.0,0.0,0.0,0.0,0.0,0.0,0.0,2.0357,2.0494,0.0,2.0925,0.0,0.0,2.1554,0.0,0.0,2.2265,2.2405,2.246,2.2432,2.2327,2.2089,2.1794,2.137,2.0828,2.0361,1.997,1.9362,1.8874,1.8478,1.8043,1.7529,1.6989,0.0,1.7135,1.7505,1.7446,0.0,0.0,1.9181,1.9585,0.0,0.0,0.0,0.0,0.0,0.0,0.0,0.0,0.0,0.0,1.9052,0.0,0.0,0.0,0.0,1.77,0.0,0.0,0.0,0.0,1.759,1.7755,1.7843,1.8278,0.0,0.0,0.0,0.0,0.0,0.0,0.0,0.0,0.0,0.0,0.0,0.0,0.0,2.309,2.3728,2.4467,2.5252,2.5191,2.5432,2.6117,2.6273,2.6434,2.6496,2.6304,2.5946,2.5527,2.5126,2.4885,2.488,2.4634,2.4957,2.5456,2.5173,2.5352,2.5742,2.5762,2.6035,2.6484,2.6894,2.7305,2.7695,0.0,2.1182,0.0,0.0,0.0,0.0,0.0,1.9391,0.0,0.0,0.0,0.0,0.0,0.0,1.9545,0.0,0.0,2.001,2.022,2.046,0.0,0.0,0.0,2.1556,0.0,0.0,2.2321,2.246,2.2542,2.2515,2.2432,2.2147,2.1823,2.1432,0.0,2.046,0.0,0.0,0.0,0.0,0.0,1.7556,1.7225,0.0,0.0,1.7023,1.7359,1.7647,0.0,1.8402,1.8906,1.9359,1.9409,1.9636,1.9862,1.9862,1.9862,0.0,0.0,0.0,1.9316,1.8946,0.0,0.0,0.0,0.0,0.0,0.0,0.0,0.0,0.0,0.0,1.7865,1.803,1.8356,1.8507,0.0,0.0,0.0,0.0,0.0,0.0,0.0,0.0,0.0,0.0,0.0,0.0,0.0,2.3005,2.3679,2.4575,2.4768,2.5199,2.5874,2.5972,2.6101,2.6211,2.6057,2.5801,2.5274,2.4871,2.444,2.4169,2.4206,2.4465,2.4761,2.5036,2.5332,2.5742,2.5742,2.582,2.6016,2.6445,2.6875,2.7285,2.2164,0.0,0.0,0.0,0.0,0.0,0.0,0.0,0.0,0.0,1.928,0.0,1.9317,0.0,1.9317,0.0,1.9545,1.969,1.994,2.0254,0.0,2.0827,2.1183,0.0,0.0,0.0,2.2377,2.2569,2.2623,2.2623,2.2569,2.226,2.1945,2.1584,0.0,2.0561,2.0045,0.0,1.8997,0.0,0.0,1.7638,0.0,0.0,1.6989,1.6854,0.0,1.7352,1.7516,1.7823,1.8405,1.8983,1.8983,1.9384,1.9811,1.9811,1.9811,1.9759,1.9473,1.942,0.0,0.0,1.8732,0.0,1.8518,0.0,0.0,0.0,0.0,0.0,0.0,0.0,1.8139,1.8247,1.8518,1.8543,0.0,1.7995,0.0,0.0,0.0,0.0,0.0,0.0,0.0,0.0,0.0,0.0,0.0,0.0,2.3046,2.3944,2.4244,2.4675,2.5134,2.5559,2.5776,2.5622,2.5744,2.5549,2.5105,2.4615,2.4186,2.3774,2.3879,2.3969,2.4238,2.4648,2.5098,2.5508,2.5684,2.5742,2.5781,2.6055,2.6426,2.6875,0.0,0.0,0.0,0.0,2.063,0.0,0.0,0.0,1.9538,0.0,1.9168,1.9017,1.9064,1.9017,1.9055,1.925,1.9354,0.0,1.969,2.0045,0.0,0.0,2.1087,2.1495,2.1882,0.0,0.0,0.0,0.0,2.2729,2.2668,2.2432,2.2123,2.1768,2.1182,0.0,2.0189,1.9654,1.9176,1.876,1.8135,1.7842,1.772,1.757,0.0,1.6989,1.6931,1.7178,1.7479,1.7479,1.8122,1.8908,1.8933,1.9359,1.9761,1.9786,1.9811,1.9759,1.9473,1.942,1.9316,1.8893,0.0,0.0,0.0,0.0,1.8139,0.0,0.0,0.0,0.0,0.0,0.0,1.8625,1.8685,1.8706,1.8608,0.0,0.0,0.0,0.0,0.0,0.0,0.0,0.0,0.0,0.0,0.0,0.0,0.0,0.0,2.3452,2.3603,2.38,2.3956,2.5084,2.5305,2.4701,2.5239,2.5253,2.4871,2.4358,2.4034,2.3754,2.358,2.3575,2.3828,2.4238,2.4668,2.5117,2.5566,2.5742,2.5742,2.5742,2.6016,2.6504,2.3141,2.2643,2.2079,0.0,2.0958,2.0395,0.0,0.0,0.0,0.0,1.913,1.8979,1.8912,1.8874,1.8874,1.8912,1.9064,0.0,0.0,0.0,0.0,2.0693,2.1087,2.1495,2.1882,2.2203,0.0,2.2729,0.0,0.0,2.2703,2.2542,2.2237,2.1797,0.0,0.0,2.0189,1.9767,1.9213,1.8528,1.8293,1.8095,0.0,0.0,1.7679,1.7474,1.7199,1.705,1.6921,1.6921,1.7314,1.7877,1.8279,1.8781,1.9309,1.9685,1.9811,1.9759,1.9604,1.9473,1.9368,1.9182,1.897,1.8786,0.0,0.0,0.0,0.0,0.0,0.0,0.0,0.0,0.0,1.8893,1.8428,1.8069,0.0,0.0,0.0,1.6948,0.0,0.0,0.0,0.0,0.0,0.0,0.0,0.0,0.0,0.0,0.0,2.3452,2.3538,2.3597,2.3793,2.4494,2.4713,2.4465,2.4669,2.4703,2.4615,2.41,2.3754,2.358,2.3319,2.3398,2.3828,2.4238,2.4668,2.5117,2.5566,2.5742,2.5742,2.5742,2.6016,2.6426,2.361,0.0,0.0,2.194,0.0,0.0,2.0292,0.0,0.0,1.9325,1.9055,0.0,1.8683,1.8606,1.8567,1.8644,1.8836,0.0,0.0,0.0,0.0,2.0626,2.1087,2.1524,2.194,2.226,0.0,2.2808,0.0,0.0,2.2773,2.2596,2.2287,2.1911,0.0,2.099,2.0429,1.9833,1.925,1.875,1.8567,0.0,0.0,1.8095,1.7963,1.776,1.7515,1.7199,1.6931,1.6803,1.7073,1.7541,1.8028,1.8581,1.9133,1.9635,1.9811,1.9759,1.9656,1.9577,1.9473,1.9316,1.9158,1.9052,1.9052,1.8946,1.8869,0.0,0.0,0.0,0.0,0.0,0.0,0.0,0.0,0.0,0.0,0.0,0.0,0.0,0.0,0.0,0.0,0.0,0.0,0.0,0.0,0.0,0.0,0.0,0.0,2.2616,2.3036,2.3208,2.3237,2.3897,2.4216,2.4306,2.4214,2.4263,2.4378,2.3841,2.358,2.3513,2.3232,2.3281,2.3535,2.3965,2.4394,2.4844,2.5488,2.5742,2.5742,2.5742,2.5898,2.6133,0.0,0.0,0.0,0.0,0.0,0.0,0.0,2.0085,0.0,1.9325,0.0,1.8634,1.8478,1.8321,1.8282,1.8478,0.0,1.8865,1.925,1.9756,2.0181,2.0494,2.1055,2.1584,2.1998,2.2343,0.0,0.0,0.0,0.0,2.2876,2.2615,2.2371,2.2051,0.0,0.0,0.0,1.9833,1.9325,0.0,1.8865,1.8673,1.8556,1.8411,1.8175,1.7922,1.776,1.7515,1.7157,1.6947,1.716,1.7561,1.8075,1.8581,1.9133,1.9635,1.9811,1.9759,1.9656,1.9604,1.9552,1.9473,1.942,1.942,1.942,1.9291,1.9239,1.9239,1.9291,0.0,0.0,0.0,0.0,0.0,0.0,0.0,0.0,0.0,0.0,0.0,0.0,0.0,0.0,0.0,0.0,0.0,0.0,0.0,0.0,0.0,0.0,0.0,2.2468,0.0,2.2503,0.0,2.3764,2.3988,2.3824,2.3865,2.412,2.3687,2.3493,2.3406,2.3232,2.3144,2.3184,2.3613,2.4062,2.459,2.541,2.5742,2.5742,2.5742,2.5742,2.5801,0.0,0.0,0.0,0.0,0.0,2.1584,2.0926,2.0258,1.966,1.9258,1.8912,1.8634,1.8372,1.8254,1.8242,1.8333,1.8556,0.0,0.0,0.0,0.0,2.0494,2.1055,2.1584,2.1998,2.2371,2.2703,0.0,0.0,0.0,2.2876,2.2721,2.248,0.0,0.0,0.0,2.0429,1.9945,0.0,1.9325,1.9101,1.8979,1.8865,1.8595,1.8372,1.8214,1.7963,1.7597,1.7157,1.6947,1.716,1.7561,1.8075,1.8581,1.9133,1.9635,1.9811,1.9811,1.9759,1.9656,1.9604,1.9552,1.9473,1.942,1.942,1.9473,1.9552,1.9552,1.9604,1.9708,1.9708,0.0,0.0,0.0,0.0,0.0,0.0,0.0,0.0,0.0,0.0,0.0,0.0,0.0,0.0,0.0,0.0,0.0,0.0,0.0,0.0,0.0,0.0,0.0,0.0,0.0,0.0,2.3587,2.3327,2.3473,2.3841,2.358,2.3406,2.3144,2.3144,2.3144,2.3184,2.3613,2.4258,2.5,2.5527,2.5742,2.5742,2.5742,2.5742,2.5742,0.0,0.0,0.0,0.0,0.0,0.0,0.0,2.0599,0.0,1.9266,1.895,1.8606,1.8293,1.8242,1.8242,1.8254,1.8517,1.8827,1.9064,1.9654,2.015,2.0561,2.1119,0.0,2.2022,2.2453,2.2721,2.2876,0.0,0.0,2.2876,2.2747,2.2508,2.2175,0.0,2.1087,0.0,0.0,0.0,1.9545,1.9398,1.9242,1.9055,1.8874,1.8644,1.8372,1.8163,1.7801,1.7459,1.7522,1.7547,1.7727,1.8497,1.8855,1.9133,1.9635,1.9811,1.9811,1.9811,1.9759,1.9708,1.9708,1.9656,1.9604,1.9681,1.9784,1.9836,1.9914,2.0016,2.0118,2.0194,2.022,0.0,0.0,0.0,0.0,0.0,0.0,0.0,0.0,0.0,0.0,0.0,0.0,0.0,0.0,0.0,0.0,0.0,0.0,0.0,0.0,0.0,0.0,0.0,0.0,0.0,2.3244,2.3166,2.3281,2.3667,2.3406,2.3232,2.3144,2.3144,2.3144,2.3184,2.3848,2.4355,2.4805,2.5469,2.5742,2.5742,2.5742,2.5742,2.5742,0.0,2.421,0.0,0.0,2.2772,0.0,0.0,2.1023,2.033,1.9442,1.9035,1.8721,1.8321,1.8242,1.8242,1.8282,1.8556,1.8865,1.9139,1.969,2.022,2.063,2.1214,2.1705,2.2079,2.2508,2.2781,0.0,0.0,0.0,0.0,2.2747,0.0,0.0,0.0,0.0,0.0,0.0,2.0045,1.9833,1.9683,1.9435,1.9213,1.9139,1.8874,1.8556,1.8321,1.8003,1.7745,1.8209,1.8137,1.8022,1.8948,1.9207,1.9258,1.9685,1.9811,1.9811,1.9811,1.9811,1.9811,1.9811,1.9811,1.9862,1.999,2.0042,2.0144,2.0271,2.0422,2.0573,2.0673,2.0623,0.0,0.0,0.0,0.0,0.0,0.0,0.0,0.0,0.0,0.0,0.0,0.0,0.0,0.0,0.0,0.0,0.0,0.0,0.0,0.0,0.0,2.1954,2.142,0.0,2.3024,0.0,2.3142,2.3333,2.3493,2.3232,2.3144,2.3144,2.3144,2.3144,2.3203,2.4062,2.4414,2.4512,2.5391,2.5742,2.5742,2.5742,2.5742,2.5742,0.0,0.0,0.0,0.0,0.0,0.0,0.0,2.143,2.0731,1.9767,1.9325,1.8912,1.8517,1.8372,1.8333,1.8478,1.8644,1.895,1.9354,1.9833,2.0323,2.0761,2.1245,2.1705,2.2079,2.2508,2.2781,0.0,0.0,0.0,0.0,0.0,0.0,0.0,0.0,0.0,0.0,2.0494,2.032,2.0185,1.9833,1.969,1.9617,1.925,1.895,1.876,1.8383,1.8055,1.7867,1.8835,1.8845,1.8486,1.9027,1.9434,1.9736,1.9786,1.9811,1.9811,1.9811,1.9811,1.9811,1.9811,1.9862,1.999,1.999,2.0246,2.0448,2.0573,2.0772,2.0947,2.0947,2.0947,2.0947,0.0,0.0,0.0,0.0,0.0,0.0,0.0,0.0,0.0,0.0,0.0,0.0,0.0,0.0,0.0,0.0,0.0,0.0,2.045,0.0,2.1746,2.121,2.2252,0.0,2.2839,2.3059,2.3333,2.3493,2.3232,2.3144,2.3144,2.3144,2.3144,2.3203,2.4062,2.4414,2.4512,2.5391,2.5742,2.5742,2.5742,2.5742,2.5723,0.0,0.0,0.0,0.0,0.0,0.0,0.0,2.1874,2.1243,2.053,1.9874,1.9288,1.8798,1.8721,1.8683,1.8683,1.8874,1.9139,1.9545,1.9945,2.0395,2.0893,2.137,2.1827,2.2203,2.2535,2.2781,0.0,0.0,0.0,0.0,0.0,0.0,0.0,0.0,2.1182,2.0893,2.0662,2.0491,2.0285,1.9975,1.9797,1.969,1.9398,1.9101,1.8903,1.8528,1.8163,1.7936,1.8558,1.8636,1.8661,1.9532,1.9788,1.9811,1.9811,1.9811,1.9811,1.9811,1.9811,1.9811,1.9914,1.999,2.0042,2.0246,2.0448,2.0573,2.0749,2.1046,2.1264,2.1458,2.141,2.1313,0.0,0.0,0.0,0.0,0.0,0.0,0.0,0.0,0.0,0.0,0.0,0.0,0.0,0.0,0.0,0.0,0.0,0.0,2.1092,0.0,2.162,2.1474,2.2499,2.2816,2.2615,2.3153,2.3335,2.3232,2.3144,2.3144,2.3144,2.3144,2.3144,2.3203,2.4062,2.4414,2.4512,2.5391,2.5742,2.5742,2.5742,2.582,2.5917,2.5271,0.0,2.4766,0.0,2.3946,2.3486,2.2923,2.2371,2.1845,2.1275,2.0565,1.9844,1.9213,1.9139,1.9101,1.8997,1.9176,1.9435,1.9797,2.012,2.053,2.1023,2.1495,0.0,2.2321,2.2596,2.2808,2.2927,2.3028,0.0,0.0,0.0,0.0,0.0,2.1524,2.1277,2.099,2.0794,2.0592,2.0323,2.0181,1.994,1.9762,1.9538,1.928,1.8979,1.8634,1.8242,1.7923,1.8291,1.8453,1.8734,1.9682,1.9889,1.9811,1.9811,1.9811,1.9811,1.9811,1.9811,1.9862,1.999,2.0093,2.0195,2.0448,2.0599,2.0749,2.1023,2.1291,2.1554,2.1746,2.1698,2.1602,0.0,0.0,0.0,0.0,0.0,0.0,0.0,0.0,1.9172,1.9556,0.0,0.0,0.0,0.0,0.0,0.0,0.0,0.0,0.0,0.0,0.0,0.0,2.2559,2.2839,2.2533,2.3162,2.3319,2.3144,2.3144,2.3144,2.3144,2.3144,2.3144,2.3115,2.3971,2.4322,2.44,2.5198,2.5547,2.5625,2.5645,2.5917,2.6091,2.5428,2.5235,2.4979,2.464,2.4318,2.3923,2.3441,2.2947,2.2432,2.2022,2.146,2.0699,1.9767,1.9551,1.9479,1.9479,1.9617,1.9797,2.008,2.0357,2.0695,0.0,0.0,2.1974,2.2377,2.2676,2.285,2.2977,0.0,0.0,2.2876,0.0,2.218,2.1882,2.1554,2.1309,2.1183,2.0893,2.0695,2.0494,2.0357,2.0181,1.997,1.9683,1.9391,1.9064,1.8634,1.8242,1.7923,1.8291,1.8543,1.8797,1.9269,1.956,1.9811,1.9811,1.9811,1.9811,1.9811,1.9914,1.999,1.999,2.0246,2.0498,2.0573,2.0749,2.0974,2.134,2.1602,2.1793,2.1793,2.1793,2.1793,2.1793,0.0,0.0,0.0,0.0,0.0,0.0,2.0498,2.0118,1.9965,0.0,0.0,0.0,0.0,0.0,0.0,0.0,0.0,2.0795,2.109,0.0,2.1408,2.2323,2.2676,2.2533,2.3162,2.3319,2.3144,2.3144,2.3144,2.3144,2.3144,2.3144,2.3115,2.377,2.4025,2.4121,2.4987,2.5333,2.5333,2.5645,2.5917,2.6091,2.5496,2.5324,2.5159,2.4917,2.4618,2.4299,2.3943,2.3486,2.3045,2.2538,2.2102,2.1639,2.1054,2.0398,1.998,0.0,1.998,2.0115,0.0,2.0695,2.099,2.1466,2.1768,2.2118,2.246,2.2703,2.285,2.2977,0.0,0.0,0.0,2.2487,2.2175,2.1882,2.1708,2.1464,2.1246,2.099,2.0827,2.0695,2.0392,2.0185,2.0045,1.972,1.9391,1.9064,1.8634,1.8254,1.7963,1.7825,1.7982,1.8293,1.8771,1.9379,1.9914,1.9811,1.9862,1.9939,1.9939,2.0042,2.0195,2.0296,2.0448,2.0573,2.0775,2.1046,2.134,2.1746,2.1935,2.2077,2.217,2.2263,2.2263,2.2077,0.0,0.0,0.0,0.0,0.0,0.0,0.0,2.022,0.0,1.9604,0.0,0.0,0.0,0.0,0.0,0.0,0.0,0.0,2.0983,0.0,2.2352,2.2471,2.2756,2.2996,2.313,2.3144,2.3144,2.3144,2.3144,2.3144,2.3144,2.3057,2.292,2.339,2.3683,2.3916,2.4564,2.5064,2.5333,2.5645,2.6014,2.64,2.5545,2.5442,2.5335,2.5168,2.4941,2.4685,2.4368,2.4004,2.3617,2.313,2.2468,2.2044,2.2012,2.1075,0.0,2.0565,2.0496,2.0595,2.0859,2.1023,2.1245,2.162,2.1945,2.226,2.2542,0.0,0.0,2.3028,2.3028,2.2927,2.2721,2.2515,2.2293,2.2032,2.1827,2.1617,2.1371,2.1151,2.0958,2.0794,2.0527,2.0289,2.008,1.9792,1.9398,1.9064,1.8634,1.8293,1.7948,1.7585,1.7734,1.8114,1.8345,1.9063,1.9863,1.9914,2.0016,2.0093,2.0093,2.0195,2.0347,2.0498,2.0649,2.0799,2.1023,2.134,2.165,2.1983,2.217,2.231,2.2477,2.2569,2.2569,2.2385,0.0,2.2077,0.0,0.0,0.0,0.0,0.0,0.0,0.0,1.9645,0.0,0.0,0.0,0.0,0.0,0.0,0.0,2.1167,2.1026,0.0,2.2637,2.2614,2.2837,2.3281,2.3295,2.3232,2.3232,2.3144,2.3144,2.3144,2.3144,2.2969,2.2832,2.3147,2.3309,2.339,2.4087,2.4507,2.4756,2.5254,2.571,2.6222,2.5568,2.5541,0.0,0.0,2.5244,0.0,2.4671,2.4372,2.4026,2.3624,2.2553,2.199,2.2528,2.1566,2.0983,2.1209,0.0,0.0,0.0,2.1371,2.1526,2.1708,2.2089,0.0,2.2623,2.2799,2.2952,2.3077,2.2977,2.2876,2.2799,2.2542,2.2377,2.2265,2.1974,2.1738,2.162,2.1371,2.1119,2.0827,2.0726,2.046,2.008,1.9797,1.9472,1.9064,1.8673,1.8293,1.7948,1.7652,1.7792,1.814,1.7991,1.8708,1.9671,2.0015,2.0194,2.022,2.022,2.0398,2.0549,2.0623,2.0799,2.1023,2.1388,2.165,2.1888,2.217,2.2338,2.2477,2.2569,2.2615,2.2615,2.2615,2.2431,2.2217,2.217,0.0,0.0,0.0,0.0,0.0,0.0,2.0015,1.9809,0.0,0.0,0.0,0.0,0.0,2.087,2.0736,2.1177,2.172,2.2542,2.2715,2.3002,2.349,2.3487,2.3493,2.3493,2.3232,2.3144,2.3144,2.3144,2.2969,2.2832,2.2948,2.2847,2.2831,2.339,2.3746,2.3858,2.4526,2.5077,2.5594,0.0,0.0,2.5541,2.5496,2.5407,2.5065,2.4213,2.3891,2.3408,2.2449,2.1935,2.1617,2.1554,2.1065,2.0949,2.1455,2.152,2.1556,2.1556,2.1678,2.1827,2.1998,2.2231,2.2515,2.2755,2.285,2.2952,2.3077,2.3052,2.2977,2.285,2.2729,2.2542,2.2349,2.2113,2.1911,2.1738,2.1495,2.1277,2.1087,2.0826,2.0525,2.0185,1.9833,1.9472,1.9064,1.875,1.8439,1.8123,1.7855,1.78,1.7864,1.819,1.8782,1.9403,1.9523,2.0036,2.0523,2.0523,2.0673,2.0898,2.0898,2.1095,2.1388,2.1746,2.1983,2.2123,2.231,2.2523,2.2689,2.2735,2.2781,2.2797,2.2735,2.2689,2.2552,2.2217,0.0,0.0,0.0,2.1469,2.1354,2.0834,2.0692,2.0538,0.0,0.0,0.0,0.0,0.0,2.1403,2.124,2.1199,2.1811,2.3018,2.2879,2.3081,2.368,2.3714,2.3754,2.3754,2.3493,2.3406,2.3406,2.3232,2.2969,2.2813,2.2821,2.2853,2.2975,2.3343,2.3756,2.4322,2.471,2.526,2.5846,2.529,2.5507,2.5533,2.5547,2.5203,2.469,2.4121,2.3561,2.2953,2.225,2.1681,2.1364,2.1479,2.0913,2.0743,2.1321,2.149,2.1692,2.2003,2.2061,2.2175,2.2287,2.2426,2.2649,2.2825,2.2927,2.3052,2.3175,2.3151,2.3077,2.2977,2.285,2.2729,2.2542,2.2343,2.2147,2.1911,2.1675,2.1464,2.1246,2.0925,2.0628,2.0289,1.9904,1.9508,1.9139,1.8836,1.8595,1.8321,1.8016,1.7882,1.7814,1.8013,1.8478,1.9066,1.9351,2.0066,2.0772,2.0772,2.0921,2.1144,2.1242,2.1458,2.1746,2.203,2.217,2.2338,2.2523,2.2689,2.2809,2.2826,2.2872,2.2888,2.2872,2.2826,2.2689,2.2505,2.2338,0.0,2.1602,2.1803,2.1719,2.117,2.1225,2.1198,2.1082,0.0,0.0,2.1193,2.1496,2.1554,2.1261,2.1678,2.2366,2.3346,2.3742,2.4116,2.4444,2.4186,2.41,2.41,2.3754,2.3667,2.358,2.3406,2.3144,2.2969,2.2794,2.2751,2.2763,2.3121,2.3454,2.3828,2.4476,2.5009,2.5669,2.4678,2.4994,2.5113,2.5191,2.4609,2.404,2.3852,2.312,2.246,2.2211,2.1418,2.1029,2.1473,2.0726,2.0441,2.0979,2.1136,2.1531,2.2248,2.2371,2.2432,2.2569,2.2703,2.2799,2.2927,2.3052,2.321,2.3307,2.3247,2.321,2.3126,2.3003,2.285,2.2755,2.2542,2.2343,2.2141,2.1911,2.1678,2.1402,2.1055,2.0697,2.0361,1.9975,1.9617,1.925,1.895,1.8683,1.8478,1.8175,1.8016,1.7922,1.7801,1.8206,1.8773,1.9287,2.0167,2.101,2.1068,2.1193,2.1361,2.1602,2.1888,2.2077,2.2217,2.2385,2.2523,2.2764,2.2809,2.2826,2.2888,2.2888,2.2888,2.2888,2.2872,2.2809,2.2809,0.0,2.2198,2.2027,2.2088,2.1981,2.1508,2.1895,2.2092,2.1871,2.1789,0.0,0.0,2.2193,2.1913,2.1544,2.2471,2.3224,2.3752,2.4785,2.5295,2.5295,2.4871,2.4615,2.4615,2.4186,2.3927,2.3927,2.3667,2.3406,2.3232,2.3057,2.2794,2.2618,2.3057,2.3319,2.3493,2.4272,2.4956,2.5507,2.2844,2.3099,2.325,2.332,2.3238,2.2962,2.2265,2.2006,2.1562,2.0836,2.0472,2.0326,2.0287,2.0012,2.0029,2.0641,2.0535,2.0876,2.1823,2.1853,2.2131,2.2825,2.2902,2.2977,2.3052,2.3283,2.3354,2.3307,2.3354,2.3319,2.3283,2.3175,2.3077,2.2927,2.2799,2.2588,2.2349,2.2089,2.1794,2.1559,2.1183,2.0827,2.046,2.008,1.972,1.9391,1.9139,1.8798,1.8478,1.8439,1.8321,1.8163,1.8123,1.8535,1.903,1.9113,2.0081,2.1158,2.1418,2.1698,2.1888,2.2077,2.2217,2.2385,2.2523,2.2644,2.2764,2.2809,2.2826,2.2888,2.2888,2.2888,2.2888,2.2888,2.2888,2.2872,0.0,0.0,2.2601,2.2901,2.3069,2.3176,2.3228,2.3559,2.3604,2.3013,2.3179,2.3166,2.2831,2.3564,2.386,2.3633,2.3481,2.3924,2.4892,2.5539,2.5801,2.5801,2.5464,2.5359,2.5359,2.4956,2.4615,2.4358,2.4206,2.3927,2.3667,2.3667,2.358,2.358,2.3927,2.4272,2.468,2.4935,2.5611,2.6362,2.2187,2.2484,2.2688,2.2755,2.2499,2.2142,2.1801,2.1362,2.0895,2.0477,2.034,2.0288,2.0173,2.0002,1.9985,2.0214,2.0061,2.0266,2.111,2.1697,2.2154,2.2517,2.2964,2.3247,2.3378,2.3471,2.3517,2.3539,2.3562,2.3539,2.3471,2.3401,2.3307,2.3151,2.2977,2.2799,2.2623,2.2287,2.2032,2.1738,2.1309,2.0925,2.0561,2.0185,1.9833,1.9508,1.9288,1.9026,1.8798,1.8683,1.8595,1.8478,1.8478,1.8675,1.8955,1.9251,2.0159,2.123,2.1862,2.2123,2.2217,2.2385,2.2523,2.2644,2.2689,2.2781,2.2872,2.2872,2.2962,2.2978,2.2978,2.3068,2.3112,2.3112,2.3112,0.0,0.0,2.3161,2.3263,2.3215,2.3738,2.4012,2.3795,2.4256,2.4427,2.4062,2.414,2.4354,2.449,2.4807,2.5315,2.6023,2.5406,2.5532,2.6436,2.6662,2.6798,2.6798,2.6279,2.603,2.603,2.5443,2.5126,2.5041,2.47,2.4529,2.4358,2.4251,2.4251,2.4444,2.4615,2.5041,2.5443,2.5779,2.6362,2.7103,2.1382,2.1721,2.1896,2.202,2.1628,2.1262,2.1341,2.0858,2.0443,2.0391,2.042,2.0383,2.0332,2.0244,2.0088,1.9982,1.9809,1.9899,2.0374,2.1352,2.1965,2.1996,2.2781,2.3325,2.3652,2.3652,2.366,2.3725,2.3725,2.3718,2.3652,2.3585,2.3494,2.3354,2.3151,2.2977,2.2799,2.248,2.2175,2.1882,2.1433,2.1087,2.076,2.0323,2.001,1.9726,1.9472,1.9288,1.9101,1.8988,1.8874,1.8788,1.8788,1.8788,1.8874,1.9358,2.0259,2.1348,2.2204,2.2495,2.254,2.2678,2.2797,2.2917,2.2917,2.2962,2.2978,2.2978,2.3068,2.3157,2.3157,2.3246,2.3304,2.3304,0.0,0.0,0.0,2.3622,2.3902,2.3683,2.438,2.4743,2.4368,2.4994,2.5301,2.5014,2.5211,2.5595,2.6287,2.6287,2.6916,2.8341,2.7537,2.7331,2.7914,2.7834,2.7834,2.7753,2.708,2.6775,2.6753,2.6113,2.5779,2.5695,2.5359,2.5211,2.5126,2.4935,2.502,2.5189,2.5443,2.5863,2.6362,2.6693,2.7267,2.7995,1.9537,1.9782,1.9938,2.0066,2.0154,2.0237,2.0304,2.0308,2.0357,2.0394,2.0463,2.0506,2.0477,2.0379,2.0243,2.018,2.005,1.9926,1.9763,2.0476,2.1083,2.1456,2.2154,2.2932,2.3774,2.3774,2.3774,2.3795,2.3795,2.381,2.3783,2.3783,2.3674,2.3494,2.3354,2.3126,2.285,2.2623,2.2287,2.1969,2.1554,2.1277,2.1023,2.0527,2.0216,1.997,1.9726,1.9508,1.9288,1.925,1.9176,1.9064,1.9064,1.9064,1.9064,1.9121,2.0127,2.142,2.2422,2.274,2.2904,2.3038,2.3172,2.326,2.326,2.329,2.329,2.329,2.329,2.329,2.329,2.326,2.3304,2.3304,0.0,0.0,2.329,2.3759,2.4265,2.4655,2.5092,2.5441,2.5549,2.6345,2.6607,2.5923,2.6622,2.7165,2.743,2.7961,2.8893,3.0366,2.9397,2.8954,2.9003,2.8791,2.8712,2.8712,2.8051,2.773,2.7649,2.7021,2.6633,2.6445,2.6196,2.603,2.5822,2.603,2.6113,2.6113,2.6633,2.7044,2.7429,2.781,2.8395,2.9052,1.9166,1.9368,1.9555,1.9688,1.9821,1.9952,2.0069,2.018,2.0244,2.0332,2.0409,2.0455,2.0508,2.0449,2.0395,2.0311,2.0203,2.0075,1.9972,2.0134,2.0667,2.1624,2.1917,2.2191,2.2464,2.2994,2.3249,2.3249,2.3741,2.3976,2.3992,2.3894,2.381,2.3703,2.3549,2.3342,2.3126,2.2747,2.2453,2.2079,2.1708,2.134,2.1055,2.0628,2.0323,2.0181,1.9869,1.969,1.9581,1.9545,1.9508,1.9472,1.9472,1.9472,1.9561,1.99,2.0333,2.0892,2.1733,2.2512,2.3172,2.3216,2.326,2.3304,2.3304,2.3304,2.3304,2.3304,2.3378,2.3422,2.3422,2.3436,2.348,2.348,0.0,2.3628,2.3985,2.4562,2.5041,2.5491,2.6061,2.6491,2.6771,2.7285,2.752,2.7482,2.7958,2.8492,2.9247,3.0272,3.1135,3.1736,3.1489,3.097,3.0241,3.0165,3.0037,2.9806,2.9081,2.8712,2.8554,2.7834,2.7406,2.7325,2.6917,2.6857,2.688,2.694,2.7185,2.7429,2.7753,2.8155,2.8554,2.8924,2.9419,2.9985,1.8948,1.9134,1.9308,1.9462,1.9599,1.9738,1.9877,2.0012,2.0139,2.0248,2.0316,2.0398,2.049,2.0508,2.0492,2.0448,2.0327,2.023,2.0164,2.0031,2.0438,2.147,2.1496,2.1574,2.1799,2.2351,2.2591,2.2573,2.3144,2.3419,2.3381,2.3249,2.3171,2.3091,2.3214,2.3124,2.2929,2.2797,2.2588,2.2254,2.1857,2.1495,2.1214,2.0794,2.0527,2.0388,2.008,1.9975,1.994,1.9904,1.9869,1.9833,1.9833,1.9797,1.9852,2.0258,2.0452,2.0682,2.1168,2.2051,2.2842,2.2799,2.2947,2.3096,2.3096,2.3244,2.3392,2.3392,2.348,2.3553,2.3553,2.3566,2.361,2.361,2.3653,2.3893,2.4492,2.5149,2.5759,2.6219,2.6849,2.7394,2.7744,2.8134,2.8483,2.8817,2.9195,2.9875,3.0904,3.2096,3.2905,3.3101,3.3241,3.2889,3.1928,3.1516,3.1097,3.0748,3.0114,2.9651,2.9521,2.8633,2.8211,2.8211,2.7834,2.7753,2.7914,2.8075,2.8315,2.8633,2.887,2.9184,2.9599,2.996,3.0419,3.0823,1.8751,1.8914,1.9034,1.9178,1.9301,1.9448,1.9675,1.9797,1.9962,2.0186,2.0248,2.0349,2.049,2.049,2.0507,2.0492,2.0437,2.0366,2.0296,2.0186,2.0359,2.0886,2.0816,2.1183,2.1971,2.1993,2.1962,2.1877,2.1914,2.1865,2.1818,2.173,2.1625,2.1534,2.2211,2.2325,2.2152,2.2653,2.2721,2.2487,2.2056,2.1797,2.1559,2.1055,2.0827,2.0693,2.0491,2.0354,2.032,2.032,2.022,2.0115,2.0115,2.0045,2.0005,2.0005,2.0461,2.094,2.0828,2.131,2.1753,2.1734,2.2173,2.2694,2.2694,2.3161,2.358,2.358,2.361,2.361,2.361,2.361,2.361,2.361,2.3696,2.4023,2.473,2.5516,2.6182,2.6736,2.7399,2.7961,2.836,2.8931,2.9444,2.9781,3.0456,3.1273,3.2338,3.3165,3.3937,3.4581,3.4581,3.4476,3.407,3.2747,3.1909,3.1643,3.0921,3.0545,3.0368,2.9521,2.9131,2.9131,2.887,2.8791,2.887,2.9263,2.9419,2.9419,2.9883,3.019,3.0444,3.0823,3.1272,3.1643,1.8542,1.8751,1.8914,1.9034,1.9214,1.9398,1.9541,1.9701,1.9881,2.0022,2.0148,2.0269,2.042,2.0451,2.0494,2.0508,2.049,2.0441,2.0383,2.0294,2.0271,2.0394,2.0267,2.0251,2.0439,2.1025,2.1246,2.1189,2.1757,2.2009,2.1951,2.1865,2.1782,2.1643,2.1789,2.1726,2.1539,2.1436,2.1579,2.1773,2.1427,2.142,2.1617,2.1246,2.1087,2.0925,2.0728,2.0628,2.0592,2.0592,2.0494,2.0392,2.0392,2.0289,2.0216,2.0216,2.0233,2.0273,2.0135,2.0249,2.061,2.1494,2.1844,2.1994,2.1994,2.2473,2.2951,2.2951,2.331,2.361,2.361,2.3696,2.3739,2.3739,2.4217,2.4923,2.5681,2.6398,2.7147,2.7819,2.8094,2.8461,2.9002,2.9538,3.0098,3.0679,3.1682,3.2377,3.2706,3.3845,3.4628,3.4808,3.516,3.5204,3.4905,3.3728,3.2917,3.2345,3.1763,3.1394,3.1172,3.0343,3.0037,3.0165,2.9806,2.9781,3.0088,3.0165,3.0317,3.052,3.0823,3.1048,3.1272,3.1716,3.2009,3.22,1.8328,1.8506,1.8695,1.8843,1.9034,1.9178,1.9368,1.9555,1.9751,1.9899,2.005,2.0219,2.0347,2.0439,2.0464,2.0498,2.0505,2.047,2.0434,2.0388,2.0302,2.0294,2.0139,2.0012,1.9915,2.0372,2.0577,2.0515,2.0977,2.1171,2.1086,2.1027,2.0936,2.0792,2.104,2.0989,2.0816,2.0859,2.1138,2.1547,2.1249,2.1418,2.1794,2.1495,2.1373,2.1246,2.1055,2.0925,2.0892,2.0892,2.0761,2.0628,2.0595,2.0494,2.0357,2.0354,2.025,2.0146,1.994,1.9904,2.0044,2.0783,2.1135,2.1306,2.1306,2.2024,2.2724,2.2724,2.3161,2.361,2.361,2.3696,2.3782,2.3782,2.4529,2.5404,2.6167,2.698,2.7752,2.848,2.8621,2.8917,2.957,3.0154,3.0907,3.192,3.2647,3.3177,3.3455,3.4226,3.4812,3.5058,3.5493,3.5611,3.5296,3.4626,3.3865,3.3058,3.2489,3.2128,3.179,3.1198,3.0872,3.0846,3.0722,3.0797,3.0996,3.1145,3.132,3.1495,3.1616,3.1836,3.1982,3.23,3.2516,3.2632,1.8163,1.8287,1.8448,1.8659,1.8807,1.8983,1.9162,1.9361,1.9572,1.9774,1.9952,2.0134,2.028,2.0377,2.0413,2.0472,2.0508,2.0521,2.0487,2.0422,2.043,2.0421,2.0353,2.0234,2.0145,2.0078,1.9996,1.9919,1.9908,1.9849,1.9713,1.9636,1.9541,1.9427,2.003,2.0209,2.0045,2.053,2.104,2.1485,2.1318,2.1528,2.2012,2.1794,2.1678,2.162,2.1402,2.1277,2.1247,2.1215,2.1054,2.0827,2.076,2.0628,2.0527,2.0457,2.0388,2.0354,2.015,2.0045,1.997,1.9833,2.0205,2.0617,2.0617,2.1635,2.2634,2.2634,2.3173,2.361,2.361,2.3739,2.3824,2.3824,2.4762,2.5716,2.639,2.7373,2.8243,2.8872,2.9059,2.9405,3.0006,3.0798,3.181,3.3171,3.3298,3.3646,3.4279,3.4343,3.4636,3.5268,3.5645,3.5727,3.5368,3.5392,3.4817,3.3687,3.3269,3.2803,3.2255,3.1863,3.1643,3.1421,3.1643,3.169,3.169,3.2055,3.22,3.22,3.2417,3.2417,3.2489,3.2632,3.2846,3.3058,1.8057,1.8225,1.8368,1.8506,1.8751,1.8949,1.9104,1.9277,1.9499,1.9776,1.9881,2.0002,2.0188,2.0334,2.0415,2.0483,2.0541,2.0543,2.0488,2.0472,2.0487,2.0491,2.042,2.0377,2.036,2.0203,2.0098,2.0068,2.0017,1.9892,1.9775,1.9776,1.9686,1.9536,1.9597,1.9533,1.9391,1.9363,1.9657,2.0166,2.0523,2.0984,2.1494,2.1826,2.1911,2.1882,2.1678,2.1589,2.1497,2.1278,2.1151,2.1055,2.0925,2.0794,2.0695,2.0527,2.0457,2.0354,2.015,2.0045,1.997,1.9833,1.9882,1.9899,1.9899,2.0946,2.1904,2.1904,2.2915,2.3739,2.3739,2.394,2.4109,2.4193,2.5376,2.643,2.6891,2.8036,2.8993,2.947,2.9547,2.9656,2.9842,3.1033,3.216,3.2997,3.3577,3.3963,3.4124,3.4639,3.492,3.4974,3.545,3.5552,3.5154,3.5337,3.5048,3.4496,3.3922,3.3437,3.3043,3.2632,3.2417,3.2417,3.2273,3.2345,3.2489,3.2704,3.2704,3.2561,3.2775,3.2846,3.2917,3.2917,3.3058,3.3227,1.8005,1.8121,1.8246,1.8408,1.8603,1.8789,1.8966,1.9198,1.9413,1.9636,1.9786,1.9952,2.0114,2.0287,2.0404,2.049,2.0573,2.0586,2.054,2.0533,2.0521,2.05,2.0476,2.0448,2.0459,2.0341,2.0242,2.0143,2.0088,2.0,1.9881,1.9861,1.9763,1.962,1.9471,1.9338,1.9235,1.9017,1.9272,1.982,2.0381,2.0963,2.155,2.2038,2.226,2.2231,2.2003,2.1827,2.1648,2.1497,2.1373,2.1214,2.1119,2.099,2.0827,2.0695,2.0561,2.0392,2.0254,2.0115,1.997,1.9935,1.9797,1.969,1.969,2.0737,2.1695,2.1774,2.2836,2.3824,2.3897,2.4109,2.4276,2.4317,2.5683,2.6848,2.7051,2.8475,2.9515,2.9694,2.9858,3.012,3.05,3.125,3.221,3.3303,3.3728,3.4088,3.4366,3.4708,3.4854,3.4702,3.5174,3.5262,3.4912,3.5154,3.5186,3.4916,3.4493,3.4059,3.3507,3.3339,3.3129,3.2988,3.3016,3.3016,3.3157,3.3368,3.3368,3.3297,3.3368,3.3368,3.3297,3.3297,3.3297,3.3326,1.7939,1.8048,1.8176,1.8328,1.8487,1.8678,1.8878,1.9097,1.9316,1.949,1.9726,1.9947,2.0079,2.0219,2.0366,2.05,2.0568,2.0583,2.0585,2.0583,2.0578,2.0527,2.0514,2.0497,2.0515,2.043,2.0359,2.0235,2.0139,2.006,2.0028,1.9952,1.9837,1.9699,1.9513,1.9383,1.9298,1.912,1.9309,1.9822,2.0484,2.109,2.1638,2.2297,2.2569,2.2542,2.2321,2.2089,2.1857,2.1738,2.1556,2.1371,2.1309,2.1151,2.0926,2.0827,2.0662,2.0494,2.0423,2.0216,2.0041,2.0041,1.9869,1.9762,1.9762,2.0775,2.1704,2.1783,2.2918,2.394,2.4024,2.4193,2.4359,2.44,2.5926,2.7137,2.7179,2.8705,2.9837,2.9881,3.013,3.0563,3.1242,3.1407,3.2045,3.3404,3.3603,3.3955,3.4589,3.4574,3.4559,3.4546,3.4886,3.4872,3.4611,3.4881,3.5003,3.4971,3.4835,3.4501,3.3991,3.3991,3.3756,3.3409,3.3577,3.3675,3.3675,3.3882,3.3882,3.3882,3.3951,3.3813,3.3675,3.3675,3.3536,3.3396,1.7939,1.8048,1.8155,1.8287,1.8483,1.8657,1.8861,1.9034,1.9225,1.9476,1.9688,1.9896,2.0069,2.0287,2.0415,2.0472,2.0509,2.0533,2.0582,2.0586,2.0585,2.0579,2.0534,2.0484,2.0497,2.0504,2.0448,2.0366,2.0258,2.0169,2.0098,1.9969,1.9858,1.9763,1.966,1.9499,1.9383,1.9214,1.914,1.9237,2.0439,2.0972,2.1154,2.237,2.2799,2.2721,2.2542,2.2321,2.2089,2.1886,2.1768,2.1678,2.1402,2.1247,2.1119,2.086,2.0662,2.0494,2.0423,2.022,2.008,2.008,2.001,1.997,1.997,2.0926,2.1783,2.1822,2.3041,2.4151,2.4234,2.4359,2.4564,2.4846,2.6135,2.7222,2.7598,2.8876,2.9957,3.0258,3.0468,3.0742,3.0965,3.1566,3.2035,3.2235,3.276,3.3462,3.423,3.4172,3.43,3.4835,3.479,3.4579,3.418,3.4579,3.4533,3.4185,3.4352,3.4572,3.4735,3.4601,3.4332,3.3991,3.3991,3.3951,3.3882,3.3991,3.3991,3.3882,3.402,3.402,3.3882,3.3882,3.3813,3.3813,1.7917,1.8005,1.8091,1.8225,1.8388,1.86,1.8806,1.8983,1.9162,1.9413,1.966,1.9849,1.999,2.0204,2.0394,2.0491,2.0494,2.0519,2.0531,2.0579,2.0584,2.0586,2.0583,2.0575,2.0562,2.0536,2.05,2.0459,2.0321,2.0227,2.0164,2.003,1.9926,1.9837,1.9725,1.9569,1.9456,1.9308,1.9437,1.9794,2.078,2.1375,2.1789,2.2752,2.3052,2.2927,2.2703,2.246,2.2237,2.2123,2.1945,2.1768,2.1587,2.1402,2.1247,2.1022,2.0826,2.0628,2.0494,2.0323,2.0185,2.0115,2.0045,2.0096,2.0461,2.1311,2.2048,2.2048,2.3234,2.4276,2.44,2.4605,2.4806,2.4966,2.6381,2.7515,2.768,2.9088,3.0215,3.0543,3.0708,3.0871,3.0952,3.1254,3.1631,3.215,3.2454,3.2917,3.3604,3.3594,3.3796,3.4379,3.4272,3.4248,3.4349,3.4374,3.4366,3.4265,3.4216,3.445,3.4891,3.4664,3.461,3.4735,3.4601,3.4534,3.4467,3.4534,3.4534,3.4467,3.4428,3.4293,3.402,3.3951,3.3882,3.3882]},{"header":{"parameterUnit":"m.s-1","parameterCategory":1,"la1":30.6,"la2":28.766,"lo1":-90.7593,"lo2":-88.6598,"dy":0.0162,"dx":0.0183,"nx":116,"ny":114,"refTime":"2023-05-23T00:00:00:Z","depth":0,"parameterNumber":3,"parameterNumberName":"V-component_of_WINDS"},"data":[0.0,0.0,0.0,0.0,0.0,0.0,0.0,0.0,0.0,0.0,0.0,0.0,0.0,0.0,0.0,0.0,0.0,0.0,0.0,0.0,0.0,0.0,0.0,0.0,0.0,0.0,0.0,0.0,0.0,0.0,0.0,0.0,0.0,0.0,0.0,0.0,0.0,0.0,0.0,0.0,0.0,0.0,0.0,0.0,0.0,0.0,0.0,0.0,0.0,0.0,0.0,0.0,0.0,0.0,0.0,0.0,0.0,0.0,0.0,0.0,0.0,0.0,0.0,0.0,0.0,0.0,0.0,0.0,0.0,0.0,0.0,0.0,0.0,0.0,0.0,0.0,0.0,0.0,0.0,0.0,0.0,0.0,0.0,0.0,0.0,0.0,0.0,0.0,0.0,0.0,0.0,0.0,0.0,0.0,0.0,0.0,0.0,0.0,0.0,0.0,0.0,0.0,0.0,0.0,0.0,0.0,0.0,0.0,0.0,0.0,0.0,0.0,0.0,0.0,0.0,0.0,0.0,0.0,0.0,0.0,0.0,0.0,0.0,0.0,0.0,0.0,0.0,0.0,0.0,0.0,0.0,0.0,0.0,0.0,0.0,0.0,0.0,0.0,0.0,0.0,0.0,0.0,0.0,0.0,0.0,0.0,0.0,0.0,0.0,0.0,0.0,0.0,0.0,0.0,0.0,0.0,0.0,0.0,0.0,0.0,0.0,0.0,0.0,0.0,0.0,0.0,0.0,0.0,0.0,0.0,0.0,0.0,0.0,0.0,0.0,0.0,0.0,0.0,0.0,0.0,0.0,0.0,0.0,0.0,0.0,0.0,0.0,0.0,0.0,0.0,0.0,0.0,0.0,0.0,0.0,0.0,0.0,0.0,0.0,0.0,0.0,0.0,0.0,0.0,0.0,0.0,0.0,0.0,0.0,0.0,0.0,0.0,0.0,0.0,0.0,0.0,0.0,0.0,0.0,0.0,0.0,0.0,0.0,0.0,0.0,0.0,0.0,0.0,0.0,0.0,0.0,0.0,0.0,0.0,0.0,0.0,0.0,0.0,0.0,0.0,0.0,0.0,0.0,0.0,0.0,0.0,0.0,0.0,0.0,0.0,0.0,0.0,0.0,0.0,0.0,0.0,0.0,0.0,0.0,0.0,0.0,0.0,0.0,0.0,0.0,0.0,0.0,0.0,0.0,0.0,0.0,0.0,0.0,0.0,0.0,0.0,0.0,0.0,0.0,0.0,0.0,0.0,0.0,0.0,0.0,0.0,0.0,0.0,0.0,0.0,0.0,0.0,0.0,0.0,0.0,0.0,0.0,0.0,0.0,0.0,0.0,0.0,0.0,0.0,0.0,0.0,0.0,0.0,0.0,0.0,0.0,0.0,0.0,0.0,0.0,0.0,0.0,0.0,0.0,0.0,0.0,0.0,0.0,0.0,0.0,0.0,0.0,0.0,0.0,0.0,0.0,0.0,0.0,0.0,0.0,0.0,0.0,0.0,0.0,0.0,0.0,0.0,0.0,0.0,0.0,0.0,0.0,0.0,0.0,0.0,0.0,0.0,0.0,0.0,0.0,0.0,0.0,0.0,0.0,0.0,0.0,0.0,0.0,0.0,0.0,0.0,0.0,0.0,0.0,0.0,0.0,0.0,0.0,0.0,0.0,0.0,0.0,0.0,0.0,0.0,0.0,0.0,0.0,0.0,0.0,0.0,0.0,0.0,0.0,0.0,0.0,0.0,0.0,0.0,0.0,0.0,0.0,0.0,0.0,0.0,0.0,0.0,0.0,0.0,0.0,0.0,0.0,0.0,0.0,0.0,0.0,0.0,0.0,0.0,0.0,0.0,0.0,0.0,0.0,0.0,0.0,0.0,0.0,0.0,0.0,0.0,0.0,0.0,0.0,0.0,0.0,0.0,0.0,0.0,0.0,0.0,0.0,0.0,0.0,0.0,0.0,0.0,0.0,0.0,0.0,0.0,0.0,0.0,0.0,0.0,0.0,0.0,0.0,0.0,0.0,0.0,0.0,0.0,0.0,0.0,0.0,0.0,0.0,0.0,0.0,0.0,0.0,0.0,0.0,0.0,0.0,0.0,0.0,0.0,0.0,0.0,0.0,0.0,0.0,0.0,0.0,0.0,0.0,0.0,0.0,0.0,0.0,0.0,0.0,0.0,0.0,0.0,0.0,0.0,0.0,0.0,0.0,0.0,0.0,0.0,0.0,0.0,0.0,0.0,0.0,0.0,0.0,0.0,0.0,0.0,0.0,0.0,0.0,0.0,0.0,0.0,0.0,0.0,0.0,0.0,0.0,0.0,0.0,0.0,0.0,0.0,0.0,0.0,0.0,0.0,0.0,0.0,0.0,0.0,0.0,0.0,0.0,0.0,0.0,0.0,0.0,0.0,0.0,0.0,0.0,0.0,0.0,0.0,0.0,0.0,0.0,0.0,0.0,0.0,0.0,0.0,0.0,0.0,0.0,0.0,0.0,0.0,0.0,0.0,0.0,0.0,0.0,0.0,0.0,0.0,0.0,0.0,0.0,0.0,0.0,0.0,0.0,0.0,0.0,0.0,0.0,0.0,0.0,0.0,0.0,0.0,0.0,0.0,0.0,0.0,0.0,0.0,0.0,0.0,0.0,0.0,0.0,0.0,0.0,0.0,0.0,0.0,0.0,0.0,0.0,0.0,0.0,0.0,0.0,0.0,0.0,0.0,0.0,0.0,0.0,0.0,0.0,0.0,0.0,0.0,0.0,0.0,0.0,0.0,0.0,0.0,0.0,0.0,0.0,0.0,0.0,0.0,0.0,0.0,0.0,0.0,0.0,0.0,0.0,0.0,0.0,0.0,0.0,0.0,0.0,0.0,0.0,0.0,0.0,0.0,0.0,0.0,0.0,0.0,0.0,0.0,0.0,0.0,0.0,0.0,0.0,0.0,0.0,0.0,0.0,0.0,0.0,0.0,0.0,0.0,0.0,0.0,0.0,0.0,0.0,0.0,0.0,0.0,0.0,0.0,0.0,0.0,0.0,0.0,0.0,0.0,0.0,0.0,0.0,0.0,0.0,0.0,0.0,0.0,0.0,0.0,0.0,0.0,0.0,0.0,0.0,0.0,0.0,0.0,0.0,0.0,0.0,0.0,0.0,0.0,0.0,0.0,0.0,0.0,0.0,0.0,0.0,0.0,0.0,0.0,0.0,0.0,0.0,0.0,0.0,0.0,0.0,0.0,0.0,0.0,0.0,0.0,0.0,0.0,0.0,0.0,0.0,0.0,0.0,0.0,0.0,0.0,0.0,0.0,0.0,0.0,0.0,0.0,0.0,0.0,0.0,0.0,0.0,0.0,0.0,0.0,0.0,0.0,0.0,0.0,0.0,0.0,0.0,0.0,0.0,0.0,0.0,0.0,0.0,0.0,0.0,0.0,0.0,0.0,0.0,0.0,0.0,0.0,0.0,0.0,0.0,0.0,0.0,0.0,0.0,0.0,0.0,0.0,0.0,0.0,0.0,0.0,0.0,0.0,0.0,0.0,0.0,0.0,0.0,0.0,0.0,0.0,0.0,0.0,0.0,0.0,0.0,0.0,0.0,0.0,0.0,0.0,0.0,0.0,0.0,0.0,0.0,0.0,0.0,0.0,0.0,0.0,0.0,0.0,0.0,0.0,0.0,0.0,0.0,0.0,0.0,0.0,0.0,0.0,0.0,0.0,0.0,0.0,0.0,0.0,0.0,0.0,0.0,0.0,0.0,0.0,0.0,0.0,0.0,0.0,0.0,0.0,0.0,0.0,0.0,0.0,0.0,0.0,0.0,0.0,0.0,0.0,0.0,0.0,0.0,0.0,0.0,0.0,0.0,0.0,0.0,0.0,0.0,0.0,0.0,0.0,0.0,0.0,0.0,0.0,0.0,0.0,0.0,0.0,0.0,0.0,0.0,0.0,0.0,0.0,0.0,0.0,0.0,0.0,0.0,0.0,0.0,0.0,0.0,0.0,0.0,0.0,0.0,0.0,0.0,0.0,0.0,0.0,0.0,0.0,0.0,0.0,0.0,0.0,0.0,0.0,0.0,0.0,0.0,0.0,0.0,0.0,0.0,0.0,0.0,0.0,0.0,0.0,0.0,0.0,0.0,0.0,0.0,0.0,0.0,0.0,0.0,0.0,0.0,0.0,0.0,0.0,0.0,0.0,0.0,0.0,0.0,0.0,0.0,0.0,0.0,0.0,0.0,0.0,0.0,0.0,0.0,0.0,0.0,0.0,0.0,0.0,0.0,0.0,0.0,0.0,0.0,0.0,0.0,0.0,0.0,0.0,0.0,0.0,0.0,0.0,0.0,0.0,0.0,0.0,0.0,0.0,0.0,0.0,0.0,0.0,0.0,0.0,0.0,0.0,0.0,0.0,0.0,0.0,0.0,0.0,0.0,0.0,0.0,0.0,0.0,0.0,0.0,0.0,0.0,0.0,0.0,0.0,0.0,0.0,0.0,0.0,0.0,0.0,0.0,0.0,0.0,0.0,0.0,0.0,0.0,0.0,0.0,0.0,0.0,0.0,0.0,0.0,0.0,0.0,0.0,0.0,0.0,0.0,0.0,0.0,0.0,0.0,0.0,0.0,0.0,0.0,0.0,0.0,0.0,0.0,0.0,0.0,0.0,0.0,0.0,0.0,0.0,0.0,0.0,0.0,0.0,0.0,0.0,0.0,0.0,0.0,0.0,0.0,0.0,0.0,0.0,0.0,0.0,0.0,0.0,0.0,0.0,0.0,0.0,0.0,0.0,0.0,0.0,0.0,0.0,0.0,0.0,0.0,0.0,0.0,0.0,0.0,0.0,0.0,0.0,0.0,0.0,0.0,0.0,0.0,0.0,0.0,0.0,0.0,0.0,0.0,0.0,0.0,0.0,0.0,0.0,0.0,0.0,0.0,0.0,0.0,0.0,0.0,0.0,0.0,0.0,0.0,0.0,0.0,0.0,0.0,0.0,0.0,0.0,0.0,0.0,0.0,0.0,0.0,0.0,0.0,0.0,0.0,0.0,0.0,0.0,0.0,0.0,0.0,0.0,0.0,0.0,0.0,0.0,0.0,0.0,0.0,0.0,0.0,0.0,0.0,0.0,0.0,0.0,0.0,0.0,0.0,0.0,0.0,0.0,0.0,0.0,0.0,0.0,0.0,0.0,0.0,0.0,0.0,0.0,0.0,0.0,0.0,0.0,0.0,0.0,0.0,0.0,0.0,0.0,0.0,0.0,0.0,0.0,0.0,0.0,0.0,0.0,0.0,0.0,0.0,0.0,0.0,0.0,0.0,0.0,0.0,0.0,0.0,0.0,0.0,0.0,0.0,0.0,0.0,0.0,0.0,0.0,0.0,0.0,0.0,0.0,0.0,0.0,0.0,0.0,0.0,0.0,0.0,0.0,0.0,0.0,0.0,0.0,0.0,0.0,0.0,0.0,0.0,0.0,0.0,0.0,0.0,0.0,0.0,0.0,0.0,0.0,0.0,0.0,0.0,0.0,0.0,0.0,0.0,0.0,0.0,0.0,0.0,0.0,0.0,0.0,0.0,0.0,0.0,0.0,0.0,0.0,0.0,0.0,0.0,0.0,0.0,0.0,0.0,0.0,0.0,0.0,0.0,0.0,0.0,0.0,0.0,0.0,0.0,0.0,0.0,0.0,0.0,0.0,0.0,0.0,0.0,0.0,0.0,0.0,0.0,0.0,0.0,0.0,0.0,0.0,0.0,0.0,0.0,0.0,0.0,0.0,0.0,0.0,0.0,0.0,0.0,0.0,0.0,0.0,0.0,0.0,0.0,0.0,0.0,0.0,0.0,0.0,0.0,0.0,0.0,0.0,0.0,0.0,0.0,0.0,0.0,0.0,0.0,0.0,0.0,0.0,0.0,0.0,0.0,0.0,0.0,0.0,0.0,0.0,0.0,0.0,0.0,0.0,0.0,0.0,0.0,0.0,0.0,0.0,0.0,0.0,0.0,0.0,0.0,0.0,0.0,0.0,0.0,0.0,0.0,0.0,0.0,0.0,0.0,0.0,0.0,0.0,0.0,0.0,0.0,0.0,0.0,0.0,0.0,0.0,0.0,0.0,0.0,0.0,0.0,0.0,0.0,3.8332,0.0,0.0,0.0,0.0,0.0,0.0,0.0,0.0,0.0,0.0,0.0,0.0,0.0,0.0,0.0,0.0,0.0,0.0,0.0,0.0,0.0,0.0,0.0,0.0,0.0,0.0,0.0,0.0,0.0,0.0,0.0,0.0,0.0,0.0,0.0,0.0,0.0,0.0,0.0,4.0426,4.0798,4.1136,4.1136,4.0764,3.9986,0.0,0.0,0.0,0.0,0.0,0.0,0.0,0.0,0.0,0.0,0.0,0.0,0.0,0.0,0.0,0.0,0.0,0.0,0.0,0.0,0.0,0.0,0.0,0.0,0.0,0.0,0.0,0.0,0.0,0.0,0.0,0.0,0.0,0.0,0.0,0.0,0.0,0.0,0.0,0.0,0.0,0.0,0.0,0.0,0.0,0.0,0.0,0.0,0.0,0.0,0.0,0.0,0.0,0.0,0.0,0.0,0.0,0.0,0.0,0.0,0.0,0.0,0.0,0.0,0.0,0.0,0.0,0.0,0.0,0.0,0.0,3.932,0.0,0.0,0.0,0.0,0.0,0.0,0.0,0.0,0.0,0.0,0.0,0.0,0.0,0.0,0.0,0.0,0.0,0.0,0.0,0.0,0.0,0.0,0.0,0.0,0.0,0.0,0.0,0.0,0.0,0.0,0.0,0.0,0.0,0.0,0.0,4.0273,4.0257,4.0257,4.1035,4.1711,4.2286,4.2286,4.1591,4.0236,4.0132,0.0,0.0,0.0,0.0,0.0,0.0,0.0,0.0,0.0,0.0,0.0,0.0,0.0,0.0,0.0,0.0,0.0,0.0,0.0,0.0,0.0,0.0,0.0,0.0,0.0,0.0,0.0,0.0,0.0,0.0,0.0,0.0,0.0,0.0,0.0,0.0,0.0,0.0,0.0,0.0,0.0,0.0,0.0,0.0,0.0,0.0,0.0,0.0,0.0,0.0,0.0,0.0,0.0,0.0,0.0,0.0,0.0,0.0,0.0,0.0,0.0,0.0,0.0,0.0,0.0,4.4018,4.4047,4.4047,4.3958,4.288,4.2132,4.1654,0.0,0.0,0.0,0.0,0.0,0.0,0.0,0.0,0.0,0.0,0.0,0.0,0.0,0.0,0.0,0.0,0.0,0.0,0.0,0.0,0.0,0.0,0.0,4.0485,4.0485,4.0485,4.0485,0.0,0.0,0.0,0.0,0.0,0.0,4.0288,4.0781,4.1068,4.1068,4.1779,4.2185,4.2286,4.2286,4.2058,4.1619,4.1619,4.1088,4.0183,0.0,0.0,0.0,0.0,0.0,0.0,0.0,0.0,0.0,0.0,0.0,0.0,0.0,0.0,0.0,0.0,0.0,0.0,0.0,0.0,0.0,0.0,0.0,0.0,0.0,0.0,0.0,0.0,0.0,0.0,0.0,0.0,0.0,0.0,0.0,0.0,0.0,0.0,0.0,0.0,0.0,3.7315,3.7404,0.0,0.0,0.0,0.0,0.0,0.0,0.0,0.0,0.0,0.0,0.0,0.0,0.0,0.0,4.5783,4.6471,4.677,4.677,4.677,4.677,4.677,4.677,4.677,4.677,4.6591,0.0,4.303,4.2372,0.0,0.0,0.0,0.0,0.0,0.0,0.0,0.0,0.0,0.0,0.0,0.0,0.0,0.0,0.0,0.0,0.0,0.0,0.0,0.0,0.0,4.0534,4.0631,4.0728,4.0728,4.0728,4.0728,0.0,0.0,0.0,0.0,4.105,4.105,4.1614,4.2121,4.2455,4.32,4.3809,4.4215,4.4621,4.471,4.4447,4.3987,4.2632,4.0776,4.0606,0.0,0.0,0.0,0.0,0.0,0.0,0.0,0.0,0.0,0.0,0.0,0.0,0.0,0.0,0.0,0.0,0.0,0.0,0.0,0.0,0.0,0.0,0.0,0.0,0.0,0.0,0.0,0.0,0.0,0.0,0.0,0.0,0.0,0.0,0.0,0.0,0.0,0.0,0.0,3.8362,3.8811,3.9559,3.9888,4.0337,0.0,0.0,0.0,0.0,0.0,0.0,0.0,0.0,0.0,4.5992,4.698,4.7668,4.7967,4.8985,4.9494,4.9494,4.9494,4.9494,4.9494,4.9494,4.9494,4.9494,4.9494,4.8835,4.7608,4.5454,4.4586,4.4496,0.0,0.0,0.0,0.0,0.0,4.2491,0.0,0.0,0.0,0.0,0.0,0.0,0.0,0.0,0.0,0.0,0.0,0.0,4.0857,4.1003,4.1202,4.1553,4.16,4.16,4.16,4.1505,0.0,0.0,4.1728,4.1987,4.1937,4.2722,4.345,4.4067,4.4812,4.549,4.6007,4.6549,4.6727,4.6481,4.5764,4.4097,4.1832,4.146,4.0853,4.0148,0.0,0.0,0.0,0.0,0.0,0.0,0.0,0.0,0.0,0.0,0.0,0.0,0.0,0.0,0.0,0.0,0.0,0.0,0.0,0.0,0.0,0.0,0.0,0.0,0.0,0.0,0.0,0.0,0.0,0.0,0.0,0.0,0.0,0.0,0.0,0.0,0.0,3.9948,4.0546,4.1504,4.1923,4.2402,0.0,0.0,0.0,0.0,0.0,0.0,4.6292,4.7578,4.8297,4.8297,4.9583,5.0272,5.0272,5.1588,5.2217,5.2217,5.2217,5.2217,5.2217,5.2217,5.2247,5.2312,5.2132,5.2072,5.1927,4.8505,4.707,4.695,4.5687,4.5147,0.0,4.4719,4.4539,4.4509,0.0,0.0,0.0,0.0,0.0,0.0,0.0,0.0,0.0,0.0,0.0,4.1003,4.1836,4.2037,4.2458,4.3367,4.3485,4.3485,4.3485,4.3436,4.3388,4.3242,4.3178,4.3062,4.2911,4.4194,4.5179,4.5796,4.6544,4.6801,4.6752,4.6786,4.6727,4.6514,4.6301,4.5223,4.3495,4.2506,4.1401,4.0244,3.9875,0.0,0.0,0.0,0.0,0.0,0.0,0.0,0.0,0.0,0.0,0.0,0.0,0.0,0.0,0.0,0.0,0.0,0.0,0.0,0.0,0.0,0.0,0.0,0.0,0.0,0.0,0.0,0.0,0.0,0.0,0.0,0.0,0.0,0.0,0.0,0.0,0.0,0.0,4.2312,4.3419,0.0,0.0,0.0,0.0,4.707,4.8327,4.9075,4.9075,5.0301,5.102,5.102,5.2306,5.2965,5.2965,5.4311,5.4999,5.4999,5.4999,5.4999,5.4999,5.4999,5.52,5.534,5.4707,5.4533,5.4486,5.0757,4.9134,4.9074,4.7929,4.7503,4.7558,4.7698,4.7782,4.7752,0.0,0.0,0.0,0.0,0.0,0.0,0.0,0.0,0.0,4.0466,4.1188,4.1795,4.2085,4.2728,4.3336,4.3745,4.3793,4.384,4.3921,4.3745,4.365,4.3602,4.3944,4.4524,4.5233,4.6212,4.6735,4.6783,4.8012,4.8507,4.8361,4.9372,4.969,4.9468,4.887,4.7943,4.6658,4.4904,4.3516,4.2395,4.1502,4.0641,0.0,0.0,0.0,0.0,0.0,0.0,0.0,0.0,0.0,0.0,0.0,0.0,0.0,0.0,0.0,0.0,0.0,0.0,0.0,0.0,0.0,0.0,0.0,0.0,0.0,0.0,0.0,0.0,0.0,0.0,0.0,0.0,0.0,0.0,0.0,0.0,0.0,4.4855,4.6082,0.0,0.0,4.8446,4.9105,4.9763,5.105,5.1798,5.1798,5.3054,5.3773,5.3773,5.464,5.5119,5.5119,5.5987,5.6406,5.6406,5.6642,5.6745,5.6745,5.6949,5.7051,5.7152,5.691,5.6789,5.6768,5.4964,5.327,5.1606,5.0789,5.0455,5.0455,5.0514,5.0514,5.0514,0.0,0.0,0.0,0.0,0.0,0.0,0.0,0.0,3.9487,4.0625,4.1622,4.2367,4.2706,4.3628,4.4331,4.48,4.48,4.4847,4.494,4.48,4.4659,4.4576,4.5201,4.6012,4.7034,4.8072,4.8515,4.8209,4.9683,5.0283,5.0073,5.1157,5.1473,5.1248,5.0646,4.9947,4.9153,4.7604,4.5897,4.4042,4.3136,4.223,4.1358,0.0,0.0,0.0,0.0,0.0,0.0,0.0,0.0,0.0,0.0,0.0,0.0,0.0,0.0,0.0,0.0,0.0,0.0,0.0,0.0,0.0,0.0,0.0,0.0,0.0,0.0,0.0,0.0,0.0,0.0,0.0,0.0,0.0,0.0,0.0,4.68,4.7249,4.8686,4.9853,5.0511,5.1199,5.1858,5.2516,5.3563,5.4281,5.4491,5.5568,5.6286,5.6496,5.7154,5.7588,5.7723,5.8218,5.8654,5.876,5.9002,5.9108,5.9108,5.9318,5.9392,5.957,5.9143,5.9032,5.9175,5.8254,5.6843,5.5095,5.368,5.316,5.3222,5.307,5.3101,5.3193,0.0,0.0,0.0,0.0,0.0,0.0,0.0,3.8218,3.8905,4.0664,4.1635,4.2671,4.3769,4.4636,4.5505,4.6519,4.6637,4.6637,4.6637,4.6673,4.6578,4.6517,4.6996,4.7596,4.8189,4.9722,5.0354,5.0114,5.1622,5.2165,5.1925,5.1925,5.1833,5.1609,5.1447,5.1124,5.0827,5.0491,4.833,4.518,4.472,4.4218,4.3706,0.0,0.0,0.0,0.0,0.0,0.0,0.0,0.0,0.0,0.0,0.0,0.0,0.0,0.0,0.0,0.0,0.0,0.0,0.0,0.0,0.0,0.0,0.0,0.0,0.0,0.0,0.0,0.0,0.0,0.0,0.0,0.0,0.0,4.5693,4.7698,4.9374,4.9374,5.1109,5.2576,5.3234,5.3922,5.461,5.5269,5.5927,5.6555,5.7154,5.7842,5.8501,5.9129,5.9787,6.0336,6.0615,6.1187,6.174,6.1959,6.2068,6.2068,6.2068,6.2038,6.2364,6.2809,6.1409,6.1165,6.1551,6.0308,5.9746,5.943,5.6638,5.5647,5.5871,5.538,5.5409,5.5592,0.0,0.0,0.0,0.0,0.0,0.0,0.0,3.7923,3.8745,3.9997,4.1418,4.2718,4.3769,4.4812,4.5776,4.6835,4.6998,4.7088,4.7098,4.7625,4.8057,4.8435,4.9548,5.0206,5.0259,5.166,5.2634,5.2962,5.3818,5.4302,5.4539,5.5189,5.5204,5.4737,5.4703,5.4126,5.3278,5.3071,5.1655,4.9387,4.7163,4.5608,4.4579,0.0,0.0,0.0,0.0,0.0,0.0,0.0,0.0,0.0,0.0,0.0,0.0,0.0,0.0,0.0,0.0,0.0,0.0,0.0,0.0,0.0,0.0,0.0,0.0,0.0,0.0,0.0,0.0,0.0,0.0,0.0,0.0,4.9883,4.8386,5.0451,5.2097,5.2097,5.3862,5.5329,5.5957,5.6645,5.7334,5.7992,5.865,5.9099,5.9249,5.9907,6.0466,6.0836,6.1017,6.1248,6.1577,6.1759,6.1959,6.2038,6.2364,6.2549,6.2549,6.3008,6.3326,6.34,6.3027,6.3111,6.3327,6.2417,6.2173,6.2184,5.9523,5.8518,5.8487,5.8397,5.8431,5.8275,0.0,0.0,0.0,0.0,0.0,0.0,0.0,3.7786,3.8723,3.9857,4.1372,4.2812,4.3955,4.4951,4.596,4.6972,4.7178,4.7232,4.732,4.803,4.9005,5.0281,5.1058,5.1828,5.2714,5.3788,5.4697,5.5262,5.5854,5.6265,5.6466,5.6725,5.6705,5.6303,5.6167,5.5654,5.4867,5.4586,5.3728,5.244,5.0424,4.8421,4.6628,4.5786,4.4921,4.4091,4.3696,4.3033,4.2291,4.1602,0.0,0.0,0.0,0.0,0.0,0.0,0.0,0.0,0.0,0.0,0.0,0.0,0.0,0.0,0.0,0.0,0.0,0.0,0.0,0.0,0.0,0.0,0.0,0.0,5.1349,5.2486,5.2546,5.3862,5.482,5.482,5.6585,5.7962,5.8321,5.8979,5.9548,5.9907,6.0296,6.0625,6.0924,6.1395,6.1838,6.2333,6.2475,6.2668,6.3,6.311,6.322,6.3329,6.3842,6.4057,6.4057,6.4483,6.4831,0.0,6.4727,6.4808,6.4982,6.4254,6.407,0.0,0.0,0.0,0.0,0.0,6.0201,6.0107,0.0,0.0,0.0,0.0,0.0,0.0,0.0,3.765,3.8585,3.9807,4.1244,4.2649,4.3996,4.4955,4.5909,4.6999,4.724,4.7392,4.7615,4.8434,4.9862,5.2005,5.2215,5.3207,5.5169,5.5928,5.6702,5.7341,5.7867,5.8141,5.8129,5.7746,5.7452,5.7253,5.685,5.6507,5.619,5.5799,5.5335,5.4734,5.3915,5.186,4.9256,4.8424,4.7299,4.5981,4.5329,4.4223,4.2952,4.2579,0.0,0.0,0.0,0.0,0.0,0.0,0.0,0.0,0.0,0.0,0.0,0.0,0.0,0.0,0.0,0.0,0.0,0.0,0.0,0.0,0.0,0.0,0.0,0.0,5.3683,5.5269,5.7064,5.7513,5.7603,5.7453,5.9069,6.0236,6.0296,6.0924,6.1373,6.1433,6.1523,6.1822,6.2391,0.0,0.0,0.0,0.0,6.4279,6.4493,6.4715,6.5046,6.5406,6.57,6.5808,6.5915,6.6098,6.6448,6.6659,6.6306,6.6326,6.663,6.5892,6.5571,6.5183,6.2712,6.1821,6.1982,6.1532,6.1402,0.0,0.0,0.0,0.0,0.0,0.0,0.0,0.0,3.6864,3.7796,3.9042,3.9956,4.1251,4.3147,4.4174,4.5178,4.6306,4.7083,4.807,4.9502,5.0813,5.2065,5.3147,5.4871,5.5989,5.6455,5.758,5.8895,6.0297,6.0052,6.0445,6.1445,6.1113,6.0773,6.0427,6.0001,5.9711,5.9525,5.9119,5.8111,5.6705,5.6193,5.3912,5.0756,4.9918,4.8765,4.7372,4.6654,4.5903,4.5046,4.3815,4.3223,4.2908,4.2014,0.0,0.0,0.0,0.0,0.0,0.0,0.0,0.0,0.0,0.0,0.0,0.0,0.0,0.0,0.0,0.0,0.0,0.0,0.0,0.0,5.3653,5.5807,5.7693,5.859,6.0116,6.0715,5.9638,6.0326,6.1134,6.1642,6.2301,6.2899,6.3408,6.418,6.4688,6.4808,6.5158,0.0,6.498,6.5351,6.5442,6.5077,6.5375,6.57,6.5991,0.0,0.0,6.6796,6.6974,6.7285,6.7593,6.7433,6.7673,6.8141,6.7427,6.6874,6.6385,6.4675,6.3742,6.3479,6.335,6.3224,6.3002,0.0,0.0,0.0,0.0,0.0,0.0,0.0,3.6341,3.7374,3.8139,3.9355,4.0691,4.229,4.3314,4.4535,4.6054,4.7457,4.8779,5.0105,5.1656,5.3204,5.4762,5.6205,5.751,5.8682,5.965,6.0719,6.1819,6.1875,6.2167,6.2652,6.2188,6.1883,6.1606,6.093,6.0671,6.0597,6.0038,5.9295,5.8513,5.7686,5.6073,5.3727,5.1912,5.0489,4.9405,4.825,4.7177,4.6153,4.5273,4.4582,4.3956,4.3057,4.248,4.2071,0.0,0.0,0.0,0.0,0.0,0.0,0.0,0.0,0.0,0.0,0.0,0.0,0.0,0.0,5.0062,0.0,0.0,5.461,5.5957,5.7543,5.9069,6.0416,6.1463,6.1852,6.1164,6.1972,6.269,6.3019,6.3647,6.4303,6.4721,6.5199,6.5615,6.5732,6.6199,6.6361,6.6138,6.6282,6.6275,6.623,6.6211,6.6268,6.6554,6.6974,6.7317,6.7388,6.7797,6.8101,6.8201,6.8301,6.86,6.8765,6.8405,6.8044,6.7702,6.6602,6.5567,6.4789,6.4431,6.4207,6.4081,0.0,0.0,0.0,0.0,0.0,0.0,0.0,0.0,3.6884,3.7456,3.8747,4.0123,4.1384,4.2455,4.3929,4.6025,4.7716,4.9119,5.0228,5.1936,5.3826,5.5898,5.7107,5.8565,6.0359,6.1404,6.2206,6.2785,6.3392,6.3511,6.3335,6.281,6.2507,6.2336,6.1521,6.1155,6.1081,6.0554,6.0155,5.9742,5.8786,5.7709,5.6448,5.3749,5.2162,5.1232,4.9713,4.8219,4.6992,4.646,4.5734,4.4856,4.4149,4.3679,4.3315,4.2646,4.2328,0.0,0.0,0.0,0.0,0.0,0.0,0.0,0.0,0.0,4.8295,4.9494,5.078,5.2157,5.3354,5.488,5.6466,5.8052,5.9099,6.0266,6.1882,6.2211,6.2301,6.2301,6.3288,6.4066,6.4303,6.4933,6.5441,6.5827,6.5917,6.6243,6.6595,6.7028,6.7425,6.7415,6.7211,6.7214,6.7382,6.7039,6.7005,6.7213,6.7695,6.8,6.8,6.8501,6.8699,6.8896,6.9188,6.9285,6.9285,6.9285,6.9244,6.8991,6.8036,6.7156,6.616,6.5272,6.4885,6.4885,0.0,0.0,0.0,0.0,0.0,0.0,0.0,0.0,0.0,3.7318,3.781,3.8726,4.0446,4.1598,4.3328,4.608,4.7217,4.8539,5.0192,5.2481,5.4236,5.5239,5.8019,5.9626,5.988,6.1823,6.3149,6.3729,6.4215,6.465,6.4999,6.4425,6.4113,6.3937,6.3102,6.2726,6.2726,6.2266,6.1177,5.9775,5.9477,5.8374,5.6744,5.4731,5.3258,5.1944,5.051,4.9138,4.7956,4.7024,4.6181,4.5395,4.511,4.46,4.4102,4.3967,0.0,4.3034,4.2819,4.3389,4.4433,4.6255,4.7084,4.7722,0.0,0.0,5.0487,5.121,5.2738,5.4102,5.482,5.7004,5.874,5.8949,6.0565,6.1852,6.2061,6.26,6.2959,6.2959,6.3588,6.4363,6.5199,6.598,6.6491,6.6877,6.763,6.8172,6.8557,6.8907,6.909,6.9032,6.8674,6.8197,6.7885,6.774,6.7797,6.8101,6.8401,6.86,6.8896,6.8896,6.9188,6.9703,7.0143,7.033,7.033,7.033,7.0263,7.0155,6.8784,6.8092,6.7858,6.6313,6.5514,6.5336,0.0,0.0,0.0,0.0,0.0,0.0,0.0,0.0,0.0,0.0,3.6947,3.7999,3.8916,4.0967,4.2905,4.47,4.6519,4.817,4.9501,5.23,5.449,5.5727,5.8333,5.9989,6.0356,6.2168,6.3372,6.3932,6.4542,6.5019,6.5282,6.4775,6.4428,6.418,6.3377,6.3,6.2966,6.2096,6.1288,6.0415,5.9275,5.8151,5.682,5.5057,5.3428,5.1974,5.0635,4.9498,0.0,0.0,4.658,4.5832,4.5792,4.5353,4.4987,4.4987,4.4903,0.0,4.5379,4.6004,0.0,0.0,4.8867,4.9824,5.072,5.1516,5.2425,5.388,5.4782,5.5611,5.6985,5.8324,5.9585,0.0,6.1313,6.2241,6.26,6.2899,6.3344,6.382,6.409,6.4507,6.4895,6.5615,6.6513,6.7494,6.7917,6.8458,6.9325,6.9933,7.0149,7.0091,6.9645,6.934,6.9367,6.865,6.8401,6.8699,6.9091,6.9382,6.9478,6.9765,6.9955,7.0236,7.0423,7.0515,7.0515,7.0515,7.0608,7.0632,6.9558,6.8976,6.8526,6.6665,6.5922,6.5746,0.0,0.0,0.0,0.0,0.0,0.0,0.0,0.0,0.0,0.0,3.6053,3.7178,3.7971,4.0324,4.2292,4.3319,4.5498,4.7362,4.8623,5.1536,5.3872,5.5218,5.7751,5.9372,5.9849,6.1824,6.296,6.3285,6.4291,6.4679,6.461,6.4277,6.3868,6.3554,6.2724,6.2385,6.2317,6.135,6.0646,5.9944,5.8605,5.7372,5.6221,5.4568,5.3228,5.1987,5.0798,4.9733,4.8816,4.787,4.7013,4.6262,4.6191,4.5977,4.5792,4.5981,4.6528,4.7226,4.7949,0.0,0.0,5.0144,5.1064,5.1982,5.2975,5.3469,5.4229,5.581,5.6351,5.7041,5.8473,5.9365,6.0193,6.1036,6.1755,6.2445,6.2989,6.3194,6.3489,6.4171,6.4347,6.4462,6.4577,6.5535,6.6583,6.7681,6.7941,6.8448,6.9703,7.0298,7.0727,7.114,7.045,7.0131,7.0545,6.9417,6.8994,6.9188,6.9703,6.9988,6.9988,7.0423,7.0608,7.0608,7.0733,7.0733,7.0733,7.0733,7.0825,7.094,7.0198,6.9545,6.8944,6.7247,6.6436,6.6215,0.0,0.0,0.0,0.0,0.0,0.0,0.0,0.0,0.0,0.0,0.0,0.0,0.0,3.9782,4.1268,4.2257,4.4119,4.5988,4.7632,5.0148,5.1988,5.2842,5.5848,5.7497,5.7497,6.0465,6.1876,6.1537,6.3177,6.3632,6.2981,6.2657,6.2258,6.1953,6.1143,6.0779,6.0705,6.0299,5.9227,5.7689,5.7398,5.6304,5.4722,5.3075,5.2407,5.2274,5.1333,4.9904,4.8482,4.8064,4.7508,4.6823,4.6404,4.6262,0.0,4.7093,4.8169,4.926,4.9992,5.0848,5.1957,5.3287,5.3991,5.4563,5.528,5.5535,5.5838,5.6546,5.7381,5.8134,5.8832,6.0016,6.1031,6.1398,6.2092,6.2672,6.2989,6.3309,6.3538,6.3568,6.4106,6.4524,0.0,6.5945,6.6858,6.7229,6.7902,6.8658,6.9683,6.9935,7.0876,7.2369,7.0979,7.0545,7.1189,6.9944,6.9478,6.9798,7.0082,7.027,7.0515,7.0733,7.0916,7.0916,7.1131,7.1312,7.1312,7.1312,7.1312,7.1244,7.05,6.9722,6.9011,6.8166,6.7251,6.6421,0.0,0.0,0.0,0.0,0.0,0.0,0.0,0.0,0.0,0.0,0.0,0.0,0.0,0.0,0.0,0.0,4.2226,4.3965,4.5672,4.8186,5.0488,5.2417,5.4556,5.597,5.6441,5.8477,5.9637,5.9957,6.0848,6.1283,6.1388,6.0909,6.0517,6.0114,5.9526,5.917,5.8991,5.8118,5.7318,5.656,5.5409,5.4222,5.3009,5.1479,5.032,4.9392,0.0,4.8166,4.7801,4.6616,4.6354,4.6517,4.6383,4.6572,4.7216,4.8723,4.9812,5.0832,5.238,5.3422,5.407,5.4804,5.5739,5.6568,5.6458,5.6839,5.7339,5.7834,5.7943,5.817,5.8745,5.9796,6.0487,6.0486,6.1346,6.2314,6.2867,6.3071,6.3334,6.4015,6.4382,0.0,0.0,0.0,0.0,6.7371,6.7729,6.8369,6.9713,7.0514,7.1099,7.1292,7.1215,7.1127,7.093,7.0262,7.0082,7.0236,7.0549,7.0825,7.1007,7.1098,7.1222,7.1222,7.1222,7.1312,7.1312,7.1312,7.1312,7.1244,7.0466,6.9755,6.9011,6.8199,6.737,6.6677,0.0,0.0,0.0,0.0,0.0,0.0,0.0,0.0,0.0,0.0,0.0,0.0,0.0,0.0,0.0,0.0,0.0,4.2358,4.3805,4.6061,4.8315,5.0443,5.2196,5.3435,5.4158,5.5938,5.7045,5.7334,5.8208,5.8708,5.8764,5.8359,5.7945,5.759,5.7055,5.6746,5.6503,5.5643,5.5022,5.4472,5.3023,5.1881,5.0946,4.9455,4.8232,0.0,4.635,4.6284,4.6452,4.5666,4.5831,4.6422,4.6454,4.7337,4.8735,5.0261,5.175,5.3213,5.4453,5.583,5.6892,5.7002,5.782,5.8505,5.8142,5.8116,5.8247,5.8656,5.8306,5.8239,5.8845,5.9285,5.9655,6.015,6.0898,6.1673,6.2445,6.2889,6.3415,6.4095,6.4782,6.5266,0.0,0.0,0.0,6.7218,6.7641,6.838,6.9607,7.0507,7.0945,7.1156,7.1194,7.1225,7.1147,7.0542,7.0456,7.0608,7.0916,7.1131,7.1312,7.1312,7.1312,7.1312,7.1312,7.1312,7.1312,7.1312,7.1312,7.1244,7.0466,6.9755,6.9011,6.8199,6.7455,6.6812,0.0,0.0,0.0,0.0,0.0,0.0,0.0,0.0,0.0,0.0,0.0,0.0,0.0,0.0,0.0,0.0,0.0,0.0,4.2002,4.3739,4.5473,4.7212,4.8722,4.9919,5.0664,5.3001,5.4087,5.3742,5.5348,5.5857,5.5227,5.5014,5.4713,5.4253,5.3871,5.3545,5.3247,5.3011,5.2335,5.1292,5.039,4.9457,4.8429,4.6815,4.6192,4.6061,4.4776,4.4344,4.4476,4.5167,4.5925,4.6617,4.6586,4.8521,5.0949,5.1736,5.3967,5.6198,5.6362,5.8231,6.0066,5.9837,6.0089,6.0393,6.0179,5.9329,5.8737,5.9158,5.8436,5.806,0.0,0.0,5.8597,6.027,6.0432,6.0638,6.1764,6.2931,6.3718,0.0,0.0,0.0,0.0,0.0,0.0,6.6691,0.0,6.8493,6.9307,6.9875,7.0667,7.1819,7.1189,7.1113,7.1587,7.0884,7.0641,7.0916,7.1222,7.1312,7.1312,7.1312,7.1312,7.1312,7.1312,7.1312,7.1312,7.1312,7.1312,7.1244,7.0432,6.9722,6.9011,6.8166,6.7421,6.6812,0.0,0.0,0.0,0.0,0.0,0.0,0.0,0.0,0.0,0.0,0.0,0.0,0.0,0.0,0.0,0.0,0.0,0.0,3.9176,4.0866,4.2881,4.5142,4.5738,4.6641,4.7966,4.9651,5.0481,5.0432,5.1688,5.2251,5.2087,5.1581,5.1173,5.0901,5.0632,5.0323,4.9978,4.9816,4.9358,4.8862,4.7968,4.7012,4.606,4.4584,4.3637,4.3108,4.2308,4.2367,4.302,4.3806,4.5384,4.7201,4.833,5.0358,5.259,5.3856,5.5555,5.7409,5.9315,6.0357,6.0882,6.0979,6.1153,6.0978,6.0249,5.9305,5.8558,5.855,5.765,5.6911,0.0,0.0,0.0,5.8208,5.8701,0.0,6.1454,6.1991,0.0,6.4621,0.0,6.5881,6.6837,6.7388,0.0,0.0,6.8,6.8566,6.9354,7.0206,7.0726,7.0648,7.117,7.1259,7.1094,7.1108,7.1131,7.1222,7.1312,7.1312,7.1312,7.1312,7.1312,7.1312,7.1312,7.1312,7.1312,7.1312,7.1312,7.1176,6.9891,6.9282,6.8944,6.759,6.6981,6.6812,0.0,0.0,0.0,0.0,0.0,0.0,0.0,0.0,0.0,0.0,0.0,0.0,0.0,0.0,0.0,0.0,0.0,0.0,0.0,3.8274,3.9946,4.2172,4.264,4.3429,4.4636,4.6141,4.6908,4.6813,4.8166,4.8732,4.8521,4.8196,4.7864,4.7546,4.735,4.7056,4.6697,4.6514,4.6234,0.0,0.0,4.4259,4.3548,4.2439,4.1727,4.1244,4.1056,4.1559,4.2558,4.4185,4.5801,4.7591,4.9792,5.1797,5.374,5.5515,5.7323,5.9087,6.0884,6.2033,6.2713,6.2438,6.2385,6.1949,6.0607,5.9304,5.8235,5.7773,5.653,0.0,5.5611,5.5645,0.0,0.0,0.0,0.0,6.0787,6.154,6.255,0.0,6.544,0.0,6.701,6.7838,6.8501,0.0,6.8699,6.8994,6.9607,7.0196,7.0609,7.049,7.1043,7.1228,7.1131,7.1222,7.1312,7.1312,7.1312,7.1312,7.1312,7.1312,7.1312,7.1312,0.0,7.1312,7.1312,7.1312,7.1109,7.0703,6.9553,6.8876,6.8436,6.7252,6.6812,6.6812,0.0,0.0,0.0,0.0,0.0,0.0,0.0,0.0,0.0,0.0,0.0,0.0,0.0,0.0,0.0,0.0,0.0,0.0,0.0,0.0,3.7079,3.8754,3.9526,4.034,4.1113,4.2658,4.3419,4.3278,4.4712,4.5212,4.4837,4.4837,4.4643,4.4334,4.419,4.3979,4.3738,4.3406,4.3138,4.2835,4.1874,4.1276,4.0934,0.0,3.9973,3.9978,4.0528,4.1311,4.2525,4.5103,4.6591,4.7922,5.0894,5.2939,5.4649,5.6862,5.894,6.0717,6.1689,6.3249,6.4589,6.37,6.3297,6.2662,6.0919,5.9218,5.7724,5.6662,0.0,5.4211,5.4437,5.4301,5.456,5.5843,0.0,5.8058,5.9854,6.1279,6.2485,6.367,6.5507,6.6837,6.7264,6.8177,6.8994,6.9382,6.9478,6.967,6.9798,7.0082,7.0456,7.0916,7.0916,7.1007,7.1312,7.1312,7.1312,7.1222,7.1222,7.1222,7.1222,7.1222,7.1222,7.1222,0.0,0.0,7.1312,7.121,7.077,7.0094,6.9282,6.8504,6.7793,6.7083,6.6812,6.6812,0.0,0.0,0.0,0.0,0.0,0.0,0.0,0.0,0.0,0.0,2.8102,2.8913,0.0,0.0,0.0,0.0,0.0,0.0,0.0,0.0,0.0,3.5773,3.6651,3.7455,3.8183,3.9753,4.0504,4.0504,4.1263,4.1581,4.1567,4.1321,4.1427,4.1798,4.1639,4.1795,4.2088,4.1288,4.08,4.0394,3.9447,3.857,3.7883,3.7641,0.0,0.0,3.9503,4.0639,4.1824,4.4456,4.6675,4.8718,5.1261,5.3584,5.5812,5.8079,5.943,6.057,6.2401,6.3127,6.3314,6.3049,6.2464,6.1547,5.9838,5.8138,0.0,0.0,5.3825,5.2769,5.19,5.2243,5.2956,5.3962,5.4772,5.6208,5.8824,5.9876,6.1276,0.0,0.0,0.0,0.0,0.0,0.0,0.0,0.0,0.0,7.0082,7.0549,7.0916,7.1222,7.1222,7.1222,7.1312,7.1312,7.1222,7.1007,7.1007,7.0825,7.0608,7.0608,7.0733,7.1007,0.0,0.0,7.1278,7.0635,7.0297,7.006,6.8639,6.803,6.7793,6.7083,6.6812,6.6812,0.0,0.0,0.0,0.0,0.0,0.0,0.0,0.0,2.6025,2.6025,2.6432,2.7166,2.8396,2.8567,0.0,0.0,0.0,0.0,0.0,0.0,0.0,0.0,3.437,3.5035,3.5454,3.6551,3.7384,3.7806,0.0,3.9007,3.9371,3.9132,3.9189,3.9345,3.9143,3.9139,3.9262,3.8685,3.8339,3.809,3.7426,3.6883,0.0,0.0,0.0,0.0,3.873,3.9771,4.0893,4.3514,4.5718,4.791,5.1157,5.3551,5.5649,5.8254,5.9844,6.1129,6.283,6.3606,6.3708,6.2771,6.1917,6.0695,5.8294,0.0,0.0,5.2638,5.1394,5.0555,4.9981,5.0391,5.1262,5.2462,5.376,5.5569,5.8227,5.9434,6.089,6.3518,0.0,0.0,0.0,0.0,0.0,0.0,0.0,0.0,7.0549,7.0916,7.1222,7.1312,7.1312,7.1222,7.1098,7.1098,7.0916,7.0699,7.0699,7.0608,7.0515,7.0515,7.0406,7.0162,0.0,0.0,6.9917,6.9755,6.9383,6.891,6.8199,6.7658,6.7286,6.6948,6.6812,6.6812,0.0,0.0,0.0,0.0,0.0,0.0,0.0,2.5355,2.5272,2.5272,2.5162,2.5655,2.6977,2.7316,2.764,0.0,0.0,0.0,0.0,0.0,0.0,0.0,0.0,0.0,0.0,0.0,0.0,0.0,0.0,0.0,0.0,0.0,0.0,0.0,0.0,0.0,3.7018,3.6598,3.6411,0.0,0.0,0.0,0.0,0.0,0.0,0.0,0.0,3.8907,4.0057,4.2609,4.4497,4.6468,5.0281,5.2808,5.4938,5.7915,5.9641,6.0892,6.2381,6.3193,6.3328,6.2009,6.0941,5.9549,5.6679,5.4577,5.2661,5.0392,4.9094,4.8364,4.8133,4.8688,4.9632,5.1001,5.278,5.4868,5.738,5.8867,6.0478,0.0,6.4351,0.0,0.0,0.0,0.0,0.0,0.0,0.0,7.1007,7.1222,7.1312,7.1312,7.1222,7.1098,7.0916,7.0825,7.0632,7.0189,7.0189,7.0122,6.9862,6.9862,6.9654,6.9243,0.0,0.0,0.0,6.8789,6.847,6.7895,6.7726,6.732,6.6812,6.6812,6.6812,6.6812,0.0,0.0,0.0,0.0,0.0,0.0,0.0,2.5162,2.5045,2.5045,2.4806,2.4717,2.4883,2.5814,2.6736,0.0,0.0,0.0,0.0,0.0,0.0,0.0,0.0,0.0,0.0,0.0,0.0,0.0,0.0,0.0,0.0,0.0,0.0,0.0,0.0,0.0,0.0,3.6022,0.0,0.0,0.0,0.0,0.0,0.0,0.0,0.0,0.0,3.8155,3.9303,4.1848,4.334,4.4682,4.7847,5.1024,5.4194,5.7137,5.8084,5.8524,6.0013,6.0452,6.0317,5.9539,5.8761,5.7504,5.51,5.3209,5.1295,4.8893,4.7733,4.681,4.5925,4.6946,4.8329,4.9599,5.1001,5.2964,5.5843,5.7479,5.9231,6.1653,0.0,0.0,0.0,0.0,0.0,0.0,0.0,0.0,0.0,7.1312,7.1312,7.1312,7.1007,7.0916,7.0916,7.0608,7.0088,6.9269,6.9269,6.8752,6.7811,6.7811,6.7962,6.8169,0.0,0.0,0.0,6.8215,6.7963,6.7827,6.7184,6.688,6.6812,6.6812,6.6812,6.6812,0.0,0.0,0.0,0.0,0.0,0.0,2.4354,2.4295,2.4296,2.4704,2.4686,2.4605,2.4605,2.4986,2.5431,0.0,0.0,0.0,0.0,0.0,0.0,0.0,0.0,0.0,0.0,0.0,0.0,0.0,0.0,0.0,0.0,0.0,0.0,0.0,0.0,0.0,0.0,0.0,0.0,0.0,0.0,0.0,0.0,0.0,0.0,0.0,0.0,0.0,3.7698,3.9565,4.0875,4.2195,4.5175,4.7425,4.9854,5.4393,5.6048,5.6723,5.8355,5.8761,5.849,5.734,5.6389,5.5036,5.2303,5.0626,4.9057,4.6729,4.5906,4.5483,4.5123,4.5458,4.6515,4.8364,4.9813,5.1789,5.4689,5.681,5.887,6.1218,6.3212,0.0,0.0,0.0,0.0,0.0,0.0,0.0,0.0,7.1312,7.1312,7.1312,7.1007,7.0623,7.0095,6.9787,6.9144,6.8227,6.8227,6.8002,6.7612,6.7612,6.738,6.7131,0.0,0.0,0.0,6.7183,6.7252,6.7218,6.6914,6.6812,6.6812,6.7014,6.7014,6.7029,0.0,0.0,0.0,0.0,0.0,2.2817,2.3437,2.338,2.3476,2.412,2.4172,2.4234,2.441,2.4441,2.4482,2.4564,0.0,0.0,0.0,0.0,0.0,0.0,0.0,0.0,0.0,0.0,0.0,0.0,0.0,0.0,0.0,0.0,0.0,0.0,0.0,0.0,0.0,0.0,0.0,0.0,0.0,0.0,0.0,0.0,0.0,0.0,0.0,0.0,0.0,0.0,0.0,4.0114,4.2577,4.392,4.5752,5.1497,5.3511,5.432,5.5977,5.6453,5.6149,5.4901,5.3921,5.2539,5.0051,4.8349,4.6858,4.5057,4.4145,4.3794,4.3992,4.4224,4.5086,4.7305,4.8928,5.0883,5.3798,5.5961,5.8196,6.0784,0.0,0.0,0.0,0.0,0.0,0.0,0.0,0.0,0.0,7.0973,7.0973,7.0973,7.0704,7.0062,6.9142,6.8869,6.8194,6.7281,6.7281,6.7181,6.6982,6.6982,6.6684,0.0,0.0,0.0,0.0,6.6643,6.6812,6.6779,6.6576,6.6474,6.6524,6.6486,6.6582,6.6514,0.0,0.0,0.0,0.0,0.0,0.0,0.0,2.2543,2.2716,2.3209,2.3222,2.3346,2.3964,2.4024,2.4024,2.4024,0.0,0.0,0.0,0.0,0.0,0.0,0.0,0.0,0.0,0.0,2.8757,2.9032,2.9675,0.0,0.0,0.0,0.0,0.0,0.0,0.0,0.0,0.0,0.0,0.0,0.0,0.0,0.0,0.0,0.0,0.0,0.0,0.0,0.0,0.0,0.0,0.0,0.0,4.1059,4.2802,4.8795,5.0526,5.0927,5.2568,5.3039,5.2872,5.1999,5.1263,5.0325,4.8818,4.6686,4.4857,4.409,4.2584,4.1674,4.2402,4.3131,4.4357,4.6543,4.8166,5.0121,5.3036,5.4841,5.702,0.0,0.0,0.0,0.0,0.0,0.0,0.0,0.0,0.0,0.0,7.0195,7.0195,7.0195,6.9749,6.9109,6.8339,6.7796,6.7281,6.6519,6.6519,6.6154,6.5425,6.5425,0.0,0.0,0.0,0.0,0.0,6.6643,6.6812,6.6745,6.6,6.5861,6.5956,6.5209,6.5096,6.5255,0.0,0.0,0.0,0.0,0.0,0.0,0.0,2.1651,2.1818,2.2455,2.243,2.2413,2.2586,2.3041,2.3314,2.3314,0.0,0.0,0.0,0.0,0.0,0.0,0.0,0.0,0.0,0.0,2.7794,2.8533,2.9163,2.9637,2.9858,3.0141,0.0,0.0,0.0,0.0,0.0,0.0,0.0,0.0,0.0,0.0,0.0,0.0,0.0,0.0,0.0,0.0,0.0,0.0,0.0,0.0,0.0,0.0,0.0,4.2391,4.5078,4.7406,4.9161,4.9626,4.946,4.8628,4.8198,4.7469,4.545,4.4335,4.3388,4.2169,4.1486,4.1387,4.2111,4.244,4.3295,4.5626,4.7177,4.9059,5.1612,0.0,0.0,5.8819,6.2098,0.0,0.0,0.0,0.0,0.0,0.0,0.0,0.0,6.9451,6.9451,6.9451,6.8976,6.8339,6.7569,6.7032,6.6485,6.5757,6.5757,6.5392,6.4697,6.4664,0.0,0.0,0.0,0.0,0.0,6.5125,6.529,6.529,6.5053,6.5115,6.5243,6.5164,6.5221,6.5353,0.0,0.0,0.0,0.0,0.0,0.0,0.0,2.0763,2.0929,2.1561,2.1614,2.1628,2.1862,2.2254,2.2496,2.2455,0.0,0.0,0.0,0.0,0.0,0.0,0.0,0.0,0.0,2.5998,2.6816,2.7771,2.8468,2.9112,2.9547,2.9649,2.9694,2.9694,0.0,0.0,0.0,0.0,0.0,0.0,0.0,0.0,3.0234,0.0,0.0,0.0,0.0,0.0,0.0,0.0,0.0,0.0,0.0,0.0,0.0,0.0,4.003,4.2453,4.5241,4.5993,4.5958,4.5497,4.5137,4.4516,4.3229,4.2446,4.1671,4.0754,4.0361,4.0459,4.1475,4.1671,4.2518,4.5105,4.6717,4.8529,0.0,0.0,0.0,5.952,0.0,0.0,0.0,0.0,0.0,0.0,0.0,0.0,0.0,0.0,6.8538,6.8233,6.8122,6.7657,6.692,6.6179,6.5548,6.5083,6.4818,6.4399,6.3968,0.0,0.0,0.0,0.0,0.0,0.0,6.4532,6.4613,6.458,6.4309,6.4335,6.4619,6.4425,6.4521,6.4759,0.0,0.0,0.0,0.0,0.0,0.0,0.0,0.0,2.0146,2.0677,2.073,2.0933,2.1485,2.1605,2.1565,2.1446,0.0,0.0,0.0,0.0,0.0,0.0,0.0,0.0,0.0,2.5049,2.5901,2.6835,2.7658,2.8487,2.9243,2.9412,2.9489,2.9489,2.9592,2.9681,0.0,0.0,0.0,0.0,0.0,0.0,0.0,0.0,0.0,0.0,0.0,0.0,0.0,0.0,0.0,0.0,0.0,0.0,0.0,0.0,0.0,0.0,0.0,4.2137,4.2453,4.2675,4.2248,4.182,4.1874,4.0827,0.0,3.978,3.9224,3.9191,4.0664,4.0925,4.1874,4.4816,0.0,0.0,0.0,5.334,0.0,0.0,0.0,0.0,0.0,0.0,0.0,0.0,0.0,0.0,0.0,0.0,6.7421,6.6745,6.7183,6.7045,6.644,6.524,6.4614,6.4581,6.3776,6.3325,6.3292,0.0,0.0,0.0,0.0,0.0,0.0,6.4363,6.4444,6.4377,6.37,6.3668,6.3956,6.3239,6.3302,6.36,0.0,0.0,0.0,0.0,0.0,0.0,0.0,0.0,0.0,0.0,2.0002,2.0025,2.0139,2.0617,2.0878,0.0,0.0,0.0,0.0,0.0,0.0,0.0,0.0,0.0,0.0,2.4706,2.5553,2.6528,2.7209,2.8031,2.8936,2.9091,2.9183,2.9183,2.9412,2.9579,2.9579,0.0,0.0,0.0,0.0,0.0,0.0,0.0,0.0,0.0,2.8498,2.8828,0.0,0.0,0.0,0.0,0.0,0.0,0.0,0.0,3.3363,3.4695,3.5735,0.0,3.9838,4.0443,4.0537,4.0401,0.0,3.9468,3.9049,3.8502,3.8219,3.8599,4.0135,4.0485,4.1484,0.0,0.0,0.0,5.0636,0.0,0.0,0.0,0.0,0.0,0.0,0.0,0.0,0.0,0.0,0.0,0.0,0.0,6.6136,6.5967,6.5512,6.5429,6.5665,6.4555,6.4103,6.4103,6.3851,6.3484,6.2916,0.0,0.0,0.0,0.0,0.0,6.2843,6.2922,6.2922,6.2888,6.2719,6.2887,6.3239,6.3068,6.3302,6.36,0.0,0.0,0.0,0.0,0.0,0.0,0.0,0.0,0.0,0.0,0.0,0.0,0.0,0.0,0.0,0.0,0.0,0.0,0.0,0.0,0.0,0.0,0.0,2.3523,2.3696,2.4143,2.4984,2.6214,2.6718,2.7489,2.8604,2.8858,2.8951,2.8951,2.9183,2.9366,2.9534,2.9534,2.9412,0.0,2.9321,0.0,0.0,0.0,0.0,0.0,2.781,2.785,0.0,2.7682,2.7988,2.8517,0.0,0.0,0.0,0.0,3.1307,3.2345,3.3036,3.5027,3.7014,3.7421,3.7947,3.8316,3.7993,3.8211,3.8398,3.8014,3.8206,3.8809,4.0112,4.082,4.2104,0.0,4.6682,0.0,0.0,0.0,0.0,0.0,0.0,0.0,0.0,0.0,0.0,0.0,0.0,0.0,0.0,0.0,6.5189,6.5189,6.4478,6.4363,6.5024,6.4068,6.3616,6.3616,6.3082,6.2714,6.2312,0.0,0.0,0.0,0.0,0.0,6.1332,6.1332,6.1332,6.1332,6.1332,6.1596,6.1824,6.1941,6.2164,6.2385,0.0,0.0,0.0,0.0,0.0,0.0,0.0,0.0,0.0,0.0,0.0,0.0,0.0,0.0,0.0,0.0,0.0,0.0,0.0,0.0,0.0,0.0,0.0,2.3348,2.3523,2.3566,2.4357,2.594,2.6214,2.7011,2.8363,2.8604,2.8747,2.8794,2.8951,2.9183,2.9366,2.9366,2.9229,2.9045,2.9045,0.0,0.0,0.0,0.0,0.0,0.0,0.0,0.0,2.6496,2.6709,2.7138,2.7001,0.0,0.0,0.0,0.0,0.0,3.1545,3.3033,3.4315,3.4701,3.5551,3.6316,3.6578,3.7233,3.7801,3.7801,3.8435,3.923,4.0116,4.1432,0.0,0.0,0.0,0.0,5.4283,0.0,0.0,0.0,0.0,0.0,0.0,0.0,0.0,0.0,0.0,0.0,0.0,0.0,0.0,6.4444,6.3632,6.3463,6.4106,6.3337,6.2919,6.2919,6.1904,6.1455,6.1421,6.0942,0.0,0.0,0.0,0.0,6.0114,6.0114,6.0114,6.0114,6.0114,6.0299,6.0483,6.0597,6.0784,6.1002,0.0,0.0,0.0,0.0,0.0,0.0,0.0,0.0,0.0,0.0,0.0,0.0,0.0,0.0,0.0,0.0,0.0,0.0,0.0,0.0,0.0,2.2134,2.2776,2.3157,2.3157,2.3422,2.4224,2.5661,2.5801,2.6637,2.8069,2.8363,2.8604,2.8794,2.8842,2.8889,2.8889,2.8889,2.8889,2.8842,2.8716,0.0,0.0,0.0,0.0,0.0,0.0,0.0,0.0,2.5797,2.5633,2.5716,2.5577,0.0,0.0,0.0,0.0,0.0,2.9871,3.0895,3.2254,3.4109,3.5174,3.5907,3.6232,3.6825,3.7389,3.7539,3.8078,3.8928,3.9934,4.1276,4.3009,0.0,0.0,0.0,0.0,0.0,0.0,0.0,0.0,0.0,0.0,0.0,0.0,0.0,0.0,0.0,0.0,0.0,0.0,6.3666,6.2347,6.1704,6.1806,6.1704,6.1559,6.1559,6.0748,6.0376,6.0376,6.0241,6.0207,0.0,0.0,6.0114,6.0114,6.0114,6.0114,6.0114,6.0114,6.0299,6.0483,6.0557,6.0705,6.0818,0.0,0.0,0.0,0.0,0.0,0.0,0.0,0.0,0.0,0.0,0.0,0.0,0.0,0.0,0.0,0.0,0.0,0.0,0.0,0.0,0.0,2.1423,2.2134,2.2673,2.3068,2.329,2.4089,2.5491,2.5708,2.6494,2.789,2.8137,2.8411,2.8604,2.8652,2.8747,2.8794,2.8794,2.87,2.8556,0.0,0.0,0.0,0.0,0.0,0.0,0.0,0.0,0.0,0.0,2.5104,2.5048,2.4935,0.0,0.0,0.0,0.0,0.0,2.9202,3.0192,3.1397,3.3034,3.4237,3.5236,3.5935,3.6961,3.7836,3.8049,3.8932,4.0007,4.1054,0.0,4.456,4.7632,0.0,0.0,0.0,0.0,0.0,0.0,0.0,0.0,0.0,0.0,0.0,0.0,0.0,0.0,0.0,0.0,0.0,0.0,6.1231,6.0655,6.0655,6.0283,6.0283,6.0655,6.0283,6.0114,6.008,5.9708,5.9505,5.9471,0.0,5.8896,5.8896,5.8896,5.8896,5.8896,5.8896,5.9004,5.9112,5.9259,5.937,5.9515,0.0,0.0,0.0,0.0,0.0,0.0,0.0,0.0,0.0,0.0,0.0,0.0,0.0,0.0,0.0,0.0,0.0,0.0,0.0,0.0,2.0146,2.0756,2.1423,2.2164,2.3023,2.3201,2.385,2.5094,2.5478,2.6399,2.774,2.7989,2.8186,2.8314,2.8381,2.8556,2.8604,2.8604,2.8508,2.8266,0.0,0.0,0.0,0.0,0.0,0.0,0.0,0.0,0.0,0.0,0.0,0.0,0.0,0.0,0.0,2.5445,2.6507,2.767,2.8651,2.9781,3.1071,3.2407,3.3546,3.4691,3.5882,3.7277,3.8309,3.8713,0.0,0.0,0.0,4.4172,0.0,0.0,0.0,0.0,0.0,0.0,0.0,0.0,0.0,0.0,0.0,0.0,0.0,0.0,0.0,0.0,0.0,0.0,0.0,0.0,6.025,5.9844,5.9844,5.9099,5.9133,5.9844,5.9674,5.9573,5.9573,5.8998,5.8761,5.8727,5.8152,5.7881,5.7881,5.7881,5.7881,5.7881,5.7881,5.7881,5.7881,5.8027,5.8277,5.8348,0.0,0.0,0.0,0.0,0.0,0.0,0.0,0.0,0.0,0.0,0.0,0.0,0.0,0.0,0.0,0.0,0.0,0.0,0.0,0.0,1.9478,2.0146,2.0756,2.1656,2.2859,2.3052,2.3463,2.4212,2.4911,2.6079,2.761,2.779,2.789,2.802,2.8069,2.8069,2.8069,2.8069,2.794,2.784,2.769,0.0,0.0,0.0,0.0,0.0,0.0,0.0,0.0,0.0,0.0,0.0,0.0,0.0,2.4242,2.4731,2.5945,2.723,2.7907,2.9317,3.1039,3.2944,3.3729,3.4485,3.626,3.7374,3.8372,3.9469,0.0,0.0,0.0,4.5865,4.9253,0.0,0.0,0.0,0.0,0.0,0.0,0.0,0.0,0.0,0.0,0.0,0.0,0.0,0.0,0.0,0.0,0.0,0.0,0.0,0.0,5.9099,5.9099,5.8355,5.8355,5.9099,5.8389,5.8051,5.8051,5.7983,5.7983,5.7983,5.7915,5.7881,5.7881,5.7881,5.7881,5.7881,5.7881,5.7881,5.7881,5.7881,5.7954,5.7954,0.0,0.0,0.0,0.0,0.0,0.0,0.0,0.0,0.0,0.0,0.0,0.0,0.0,0.0,0.0,0.0,0.0,0.0,0.0,1.9101,1.9391,2.0059,2.0669,2.1423,2.2323,2.2848,2.3434,2.4078,2.5276,2.614,2.6742,2.7309,2.764,2.774,2.784,2.789,2.802,2.789,2.779,2.764,2.7357,2.6997,0.0,0.0,0.0,0.0,0.0,0.0,0.0,0.0,2.3569,2.339,2.339,2.3509,2.3747,2.4099,2.5388,2.6782,2.7381,2.9277,3.1351,3.2847,3.4331,3.583,3.7188,3.8185,3.9251,4.0769,4.2142,0.0,0.0,0.0,0.0,0.0,0.0,0.0,0.0,0.0,0.0,0.0,0.0,0.0,0.0,0.0,0.0,0.0,0.0,0.0,0.0,0.0,0.0,0.0,0.0,5.8084,5.7645,5.7374,5.7137,5.6968,5.7577,5.7645,5.7205,5.7205,5.6968,5.6528,5.6528,5.6528,5.6562,5.7036,5.7205,5.7273,5.7712,5.7881,5.7881,5.7881,5.7881,5.7881,0.0,0.0,0.0,0.0,0.0,0.0,0.0,0.0,0.0,0.0,0.0,0.0,0.0,0.0,0.0,0.0,0.0,0.0,1.9064,1.9064,1.9295,1.973,2.0378,2.1017,2.1613,2.2323,2.3007,2.3693,2.4868,2.5648,2.6109,2.6651,2.7128,2.7458,2.759,2.764,2.774,2.764,2.7488,2.7335,2.7078,2.6683,0.0,0.0,0.0,0.0,0.0,0.0,0.0,0.0,2.303,2.2909,2.2909,2.303,2.333,2.3628,2.503,2.6539,2.7143,2.9266,3.1608,3.2812,3.4693,3.6692,3.8091,3.9251,4.0514,4.2076,4.3751,0.0,0.0,0.0,0.0,0.0,0.0,0.0,0.0,0.0,0.0,0.0,0.0,0.0,0.0,0.0,0.0,0.0,0.0,0.0,0.0,0.0,0.0,0.0,0.0,0.0,5.6461,5.6461,5.6224,5.5716,5.6731,5.6934,5.6461,5.6461,5.619,5.5716,5.5716,5.5716,5.575,5.6258,5.6461,5.6494,5.7002,5.734,5.7543,5.7543,5.7679,5.7881,0.0,0.0,0.0,0.0,0.0,0.0,0.0,0.0,0.0,0.0,0.0,0.0,0.0,0.0,0.0,0.0,0.0,0.0,1.9008,1.9008,1.9008,1.9008,1.973,2.0298,2.0793,2.1456,2.2147,2.2809,2.3385,2.4433,2.5778,2.5929,2.6432,2.7152,2.7181,2.7181,2.7181,2.7181,2.7026,2.6794,2.6794,2.6447,2.5825,0.0,0.0,0.0,0.0,0.0,0.0,0.0,2.2543,2.242,2.242,2.2604,2.2969,2.345,2.4909,2.6539,2.7143,2.9266,3.1608,3.2936,3.4848,3.6815,3.8811,4.0576,4.2039,4.3266,4.5734,4.8232,4.9889,0.0,0.0,0.0,0.0,0.0,0.0,0.0,0.0,0.0,0.0,0.0,0.0,0.0,0.0,0.0,0.0,0.0,0.0,0.0,0.0,0.0,0.0,0.0,5.5716,5.5716,5.5716,5.5683,5.5683,5.5683,5.5716,5.5716,5.5716,5.5683,5.5683,5.5683,5.5683,5.5716,5.5716,5.5716,5.5716,5.6156,5.6799,5.6799,5.7239,5.7881,0.0,0.0,0.0,0.0,0.0,0.0,0.0,0.0,0.0,0.0,0.0,0.0,0.0,0.0,0.0,0.0,0.0,0.0,1.8874,1.8874,1.8874,1.8874,1.9505,1.9976,2.0108,2.0998,2.1851,2.2661,2.3245,2.3779,2.4201,2.4739,2.5358,2.6068,2.617,2.6535,2.7055,2.6922,2.687,2.6794,2.634,2.5934,2.5467,0.0,0.0,0.0,0.0,0.0,0.0,0.0,0.0,0.0,2.1987,2.2235,2.2543,2.309,2.4458,2.6047,2.6782,2.933,3.2003,3.2871,3.5513,0.0,3.9093,4.0737,4.2751,0.0,4.7342,4.9028,0.0,0.0,0.0,0.0,0.0,0.0,0.0,0.0,0.0,0.0,0.0,0.0,0.0,0.0,0.0,0.0,0.0,0.0,0.0,0.0,0.0,0.0,0.0,0.0,5.4555,5.4522,5.4216,5.3713,5.3852,5.426,5.4938,5.4938,5.4634,5.416,5.416,5.416,5.4194,5.4702,5.5243,5.5716,5.5716,5.5852,5.6055,5.6055,5.6156,5.6359,0.0,0.0,0.0,0.0,0.0,0.0,0.0,0.0,0.0,0.0,0.0,0.0,0.0,0.0,0.0,0.0,0.0,0.0,0.0,1.876,1.876,1.876,1.9169,1.9587,1.9989,2.0765,2.1535,2.2263,2.2658,2.3017,2.332,2.3765,2.4376,2.5128,2.5229,2.5676,2.6364,2.6312,2.6323,2.6394,2.6016,2.555,2.5077,0.0,0.0,0.0,0.0,0.0,0.0,0.0,0.0,0.0,2.1675,2.1862,2.2173,2.2848,2.4213,2.5798,2.6688,2.9407,3.2169,3.2838,3.5785,3.8986,4.1022,0.0,0.0,0.0,0.0,0.0,0.0,0.0,0.0,0.0,0.0,0.0,0.0,0.0,0.0,0.0,0.0,0.0,0.0,0.0,0.0,0.0,0.0,0.0,0.0,0.0,0.0,0.0,0.0,0.0,5.3573,5.3539,5.3338,5.2903,5.3041,5.3414,5.4058,5.416,5.3923,5.3518,5.3518,5.3518,5.3551,5.3991,5.4431,5.4837,5.4837,5.5006,5.5277,5.5277,5.5446,5.5716,0.0,0.0,0.0,0.0,0.0,0.0,0.0,0.0,0.0,0.0,1.9465,0.0,0.0,0.0,0.0,0.0,0.0,0.0,0.0,0.0,1.8634,1.8634,1.8721,1.9211,2.0146,2.0612,2.1057,2.1663,2.1766,2.2193,2.2895,2.3021,2.3428,2.417,2.4298,2.469,2.526,2.526,2.5445,2.5685,2.5548,2.5108,2.4573,2.4257,0.0,0.0,0.0,0.0,0.0,0.0,0.0,0.0,2.14,2.1675,2.1987,2.2726,2.4126,2.572,2.66,2.9324,3.2025,3.2809,3.5849,0.0,4.3814,4.4952,4.5636,0.0,0.0,0.0,0.0,0.0,0.0,0.0,0.0,0.0,0.0,0.0,0.0,0.0,0.0,0.0,0.0,0.0,0.0,0.0,0.0,0.0,0.0,0.0,0.0,0.0,0.0,0.0,5.2633,5.2633,5.2633,0.0,5.2633,5.2771,5.2977,5.3281,5.3484,5.3518,5.3518,5.3518,5.3518,5.3518,5.3518,5.3518,5.3518,5.3923,5.4499,5.4499,5.4938,5.5513,0.0,0.0,0.0,0.0,0.0,0.0,0.0,0.0,0.0,0.0,0.0,0.0,0.0,0.0,0.0,0.0,0.0,0.0,0.0,0.0,1.8321,1.8321,1.8321,1.8655,1.9364,1.9713,2.018,2.0778,2.1478,2.1876,2.2062,2.211,2.2415,2.3047,2.3224,2.3638,2.4198,2.4198,2.418,2.4135,2.3925,2.3501,2.3041,2.3041,2.2647,0.0,0.0,0.0,0.0,0.0,0.0,0.0,2.1486,2.1698,2.1949,2.2787,2.3847,2.5039,2.6492,2.8708,3.0902,3.2573,3.6228,4.0293,4.3977,4.5017,4.583,0.0,0.0,0.0,0.0,0.0,0.0,0.0,0.0,0.0,0.0,0.0,0.0,0.0,0.0,0.0,0.0,0.0,0.0,0.0,0.0,0.0,0.0,0.0,0.0,0.0,0.0,5.034,5.034,5.034,5.041,0.0,5.072,5.0824,5.1061,5.2572,5.3348,5.3518,5.3518,5.3518,5.3518,5.3518,5.3518,5.3518,5.3518,5.3585,5.3754,5.3754,5.3856,5.3991,0.0,0.0,0.0,0.0,0.0,0.0,0.0,0.0,0.0,0.0,0.0,0.0,0.0,0.0,0.0,0.0,0.0,0.0,0.0,0.0,1.8043,1.8043,1.8003,1.8235,1.8835,1.8963,1.9467,2.0355,2.0793,2.1186,2.1506,2.1554,2.1815,2.2165,2.2339,2.2769,2.3303,2.3303,2.3395,2.3489,2.3122,2.2697,2.2291,2.2189,2.1724,2.1277,2.1596,0.0,0.0,0.0,0.0,0.0,0.0,0.0,2.1925,2.2787,2.3771,2.4944,2.6465,2.8512,3.0852,3.3935,3.7157,4.0324,4.3169,4.4331,4.5304,0.0,0.0,0.0,0.0,0.0,0.0,0.0,0.0,0.0,0.0,0.0,0.0,0.0,0.0,0.0,0.0,0.0,0.0,0.0,0.0,0.0,0.0,0.0,0.0,0.0,4.967,4.9599,4.9599,4.9599,4.967,4.9739,4.9948,5.0154,5.0426,5.1631,5.2202,5.2302,5.2707,5.2942,5.2976,5.3348,5.3518,5.3518,5.3518,5.3518,5.3518,5.3518,5.3518,5.3518,0.0,0.0,0.0,0.0,0.0,0.0,0.0,0.0,0.0,0.0,0.0,0.0,0.0,0.0,0.0,0.0,0.0,0.0,0.0,0.0,0.0,1.7801,1.7679,1.7852,1.8334,1.8355,1.8773,1.9827,2.0013,2.0407,2.0984,2.121,2.141,2.1554,2.165,2.1973,2.244,2.2369,2.2519,2.2798,2.2432,2.2007,2.1601,2.1428,2.0952,2.0433,2.0783,2.0805,2.0665,2.0957,0.0,0.0,0.0,0.0,2.2049,2.2726,2.3695,2.4849,2.6304,2.8489,3.1302,3.5309,3.7779,0.0,4.2137,4.3355,4.4549,0.0,0.0,0.0,0.0,0.0,0.0,0.0,0.0,0.0,0.0,0.0,0.0,0.0,0.0,0.0,0.0,0.0,0.0,0.0,0.0,0.0,0.0,0.0,4.9136,4.9066,4.9066,4.8996,4.8996,4.8996,4.9099,4.9136,4.9378,4.9653,4.9959,5.0325,5.0656,5.1024,5.1729,5.2131,5.2164,5.2841,5.3179,5.3281,5.3281,5.3382,5.3518,5.3518,5.3518,5.3518,0.0,0.0,0.0,0.0,0.0,0.0,0.0,0.0,0.0,0.0,0.0,0.0,0.0,0.0,0.0,0.0,0.0,0.0,0.0,0.0,0.0,1.7282,1.7282,1.7308,1.7413,1.7757,1.8052,1.8208,1.9196,1.9812,1.9987,2.0731,2.1144,2.1215,2.1264,2.1318,2.1399,2.1399,2.1229,2.0959,2.0882,2.0527,2.0139,2.0403,2.0141,1.9713,2.0087,2.0224,2.025,2.0442,2.0677,0.0,0.0,0.0,2.2049,2.2823,2.3475,2.4223,2.5657,2.8448,3.1694,3.4699,3.6656,3.8578,0.0,0.0,4.3797,0.0,0.0,0.0,0.0,0.0,0.0,0.0,0.0,0.0,0.0,0.0,0.0,0.0,0.0,0.0,0.0,0.0,0.0,0.0,0.0,0.0,0.0,4.7391,4.7151,4.7012,4.6802,4.6763,4.6763,4.6763,4.6904,4.7253,4.7596,4.7867,4.8067,4.8266,4.9358,5.0991,5.1157,5.1256,5.1386,5.1488,5.1894,5.2469,5.2469,5.2875,5.3518,5.3518,5.3518,5.3518,0.0,0.0,0.0,0.0,0.0,0.0,0.0,0.0,0.0,0.0,0.0,0.0,0.0,0.0,0.0,0.0,0.0,0.0,0.0,0.0,0.0,1.682,1.682,1.682,1.682,1.7076,1.7401,1.7708,1.8241,1.89,1.9594,2.0022,2.0532,2.1095,2.1095,2.1095,2.1095,2.1046,2.0848,2.0623,2.0422,2.0118,1.9681,1.9772,1.9551,1.9136,1.9488,1.9611,1.9631,2.0026,2.0442,2.0881,2.1252,0.0,0.0,0.0,2.3543,2.4353,2.6128,2.8742,3.1397,3.3059,3.5329,3.7673,3.9514,4.0869,4.2239,0.0,0.0,0.0,0.0,0.0,0.0,0.0,0.0,0.0,0.0,0.0,0.0,0.0,0.0,0.0,0.0,0.0,0.0,0.0,0.0,0.0,4.5591,4.5491,4.5355,4.5149,4.508,4.4941,4.4872,4.4941,4.5442,4.6309,4.6936,4.7302,4.7604,4.7803,4.8398,4.9488,5.0118,5.045,5.0514,5.0984,5.1386,5.1691,5.1691,5.2164,5.2841,5.2841,5.3112,5.3518,0.0,0.0,0.0,0.0,0.0,0.0,0.0,0.0,0.0,0.0,0.0,0.0,0.0,0.0,0.0,0.0,0.0,0.0,0.0,0.0,0.0,1.6349,1.6306,1.6349,1.6392,1.6479,1.6748,1.7238,1.7479,1.8007,1.8894,1.9294,1.9898,2.066,2.0894,2.0947,2.0947,2.0924,2.0775,2.0573,2.0271,1.9965,1.9656,1.9525,1.921,1.8887,1.9128,1.9174,0.0,0.0,0.0,0.0,0.0,2.1548,0.0,0.0,0.0,2.4642,2.6469,2.8455,3.0395,3.1588,3.3948,3.6236,0.0,0.0,4.0437,0.0,0.0,0.0,0.0,0.0,0.0,0.0,0.0,0.0,0.0,0.0,0.0,0.0,0.0,0.0,0.0,0.0,0.0,0.0,0.0,0.0,4.4086,4.4086,4.3981,4.3844,4.3844,4.3674,4.3535,4.3812,4.4441,4.5327,4.5979,4.6575,4.7074,4.7308,4.7605,4.8131,4.9086,4.9547,4.9645,5.0375,5.0777,5.0913,5.0913,5.1386,5.2063,5.2232,5.2672,5.3213,0.0,0.0,0.0,0.0,0.0,0.0,0.0,0.0,0.0,0.0,0.0,0.0,0.0,1.8055,1.776,1.7432,0.0,0.0,0.0,0.0,0.0,1.5824,1.5848,0.0,1.6044,1.6044,1.6113,1.6293,1.6921,1.731,1.7546,1.8672,1.9374,1.9694,2.0539,2.0901,2.0901,2.0901,2.0725,2.0498,2.0296,2.0016,1.9759,1.9656,1.9344,1.8999,1.9023,0.0,0.0,0.0,0.0,0.0,0.0,0.0,2.1785,0.0,0.0,0.0,2.6128,2.7144,2.8495,3.1031,3.2364,3.3756,0.0,0.0,0.0,0.0,0.0,0.0,0.0,0.0,0.0,0.0,0.0,0.0,0.0,0.0,0.0,0.0,0.0,0.0,0.0,0.0,0.0,0.0,0.0,0.0,4.3466,4.3466,4.3396,4.3247,4.3247,4.3247,4.3247,4.3567,4.3775,4.3807,4.4385,4.5107,4.5988,4.6322,4.6947,4.777,4.8325,4.8677,4.8837,4.9058,4.9526,5.0135,5.0135,5.0608,5.1352,5.2063,5.2334,5.2469,0.0,0.0,0.0,0.0,0.0,0.0,0.0,0.0,0.0,0.0,0.0,0.0,0.0,1.7895,1.7488,1.7099,1.665,0.0,0.0,0.0,0.0,1.5492,1.5492,1.5492,1.5558,1.5691,1.5848,1.5893,1.6239,1.6643,1.7032,1.7706,1.8472,1.9253,2.0215,2.0675,2.0775,2.0775,2.0675,2.0498,2.0398,2.0195,1.9914,1.9888,0.0,0.0,0.0,0.0,0.0,0.0,0.0,0.0,0.0,0.0,0.0,2.2566,2.3507,2.4446,2.5465,2.6609,2.7758,2.9119,3.0552,3.2153,3.3881,3.514,0.0,0.0,0.0,0.0,0.0,0.0,0.0,0.0,0.0,0.0,0.0,0.0,0.0,0.0,0.0,0.0,0.0,0.0,0.0,0.0,0.0,0.0,4.1903,4.1903,4.1835,4.1697,4.1697,4.1697,4.1697,4.2171,4.2667,4.3079,4.3659,4.4349,4.5043,4.5242,4.5897,4.6881,4.7272,4.7922,4.861,4.8832,4.9092,4.939,4.939,4.983,5.0541,5.0777,5.1488,5.2334,0.0,0.0,0.0,0.0,0.0,0.0,0.0,0.0,0.0,0.0,0.0,0.0,0.0,0.0,1.724,1.6718,1.6175,1.578,1.5513,1.5379,1.5244,1.5131,1.5131,1.5131,1.5153,1.5334,1.5424,1.5492,1.5691,1.5948,1.6399,1.6913,1.7613,1.8455,1.9377,2.0112,2.0649,2.0725,0.0,2.0625,0.0,0.0,2.0271,0.0,0.0,0.0,0.0,0.0,0.0,0.0,0.0,0.0,0.0,0.0,0.0,0.0,2.3115,2.3743,2.4778,2.5797,2.6849,2.7876,2.9259,3.0662,3.1924,0.0,0.0,0.0,0.0,0.0,0.0,0.0,0.0,0.0,0.0,0.0,0.0,0.0,0.0,0.0,0.0,0.0,0.0,0.0,0.0,0.0,0.0,0.0,4.0065,4.0065,3.9998,3.9831,3.9831,4.0023,4.0269,4.077,4.1386,4.2181,4.2758,4.3377,4.4069,4.4333,4.5017,4.6028,4.6616,4.7434,4.8547,4.8707,4.8894,4.9018,4.9018,4.9289,4.9763,4.9999,5.071,5.1623,0.0,0.0,0.0,0.0,0.0,0.0,0.0,0.0,0.0,1.8836,0.0,0.0,0.0,0.0,0.0,1.6244,1.5824,1.5468,1.5108,1.4949,1.4834,1.4787,0.0,0.0,0.0,1.4858,1.4949,1.5108,1.5222,1.5334,1.5513,1.6308,1.6825,1.7239,1.8021,1.9121,2.0472,0.0,2.0875,2.0875,0.0,2.0795,2.0795,0.0,0.0,0.0,2.0271,2.0169,0.0,0.0,0.0,0.0,0.0,0.0,0.0,0.0,0.0,2.3018,0.0,0.0,0.0,2.7477,2.8435,0.0,3.0503,0.0,0.0,0.0,0.0,0.0,0.0,0.0,0.0,0.0,0.0,0.0,0.0,0.0,0.0,0.0,0.0,0.0,0.0,0.0,0.0,0.0,0.0,3.8044,3.8044,3.8044,3.8044,3.8044,3.8044,3.8415,3.9222,3.9395,4.0003,4.1086,4.139,4.2135,4.3133,4.3525,4.4236,4.5308,4.6223,4.7336,4.845,4.8707,4.8894,4.9018,4.9018,4.9018,4.9086,4.9796,5.0067,5.0304,0.0,0.0,0.0,0.0,0.0,0.0,0.0,1.9176,1.8988,0.0,0.0,0.0,1.7666,1.6989,1.6331,1.5736,1.5424,1.5108,1.4765,1.4605,1.4512,1.4373,1.4373,1.4373,1.4398,1.4512,1.4605,1.4765,1.4789,1.4971,1.5198,1.5655,1.6212,1.6849,1.7318,1.8071,1.9067,1.9913,0.0,2.0316,2.086,2.1068,0.0,0.0,0.0,0.0,0.0,2.0772,2.0547,0.0,2.0446,2.0422,0.0,0.0,0.0,0.0,0.0,0.0,2.3571,0.0,0.0,0.0,0.0,0.0,0.0,0.0,0.0,0.0,0.0,0.0,0.0,0.0,0.0,0.0,0.0,0.0,0.0,0.0,0.0,0.0,0.0,0.0,0.0,0.0,0.0,0.0,3.777,3.8044,3.8044,3.8044,3.8044,3.8044,3.8044,3.8202,3.8549,3.8586,3.9123,4.0137,4.0403,4.111,4.2266,4.2462,4.3234,4.4522,4.4781,4.595,4.7747,4.8346,4.8736,4.9018,4.9018,4.9018,4.9018,4.9221,4.9627,5.0135,0.0,0.0,0.0,0.0,0.0,0.0,1.9213,1.9064,1.8874,0.0,0.0,0.0,1.7323,1.6607,1.6001,1.5558,1.5153,1.4789,1.4534,1.4348,1.4186,1.414,1.414,1.414,1.414,1.4186,1.4255,1.4348,1.4419,1.4605,1.4834,1.5108,1.5564,1.6236,1.6598,1.711,1.7778,0.0,0.0,0.0,2.0402,0.0,0.0,2.1246,2.1431,0.0,0.0,0.0,2.1188,2.1118,2.097,0.0,0.0,0.0,0.0,0.0,0.0,2.221,2.3142,2.3912,2.4655,0.0,0.0,0.0,2.7915,2.8606,0.0,0.0,0.0,0.0,0.0,0.0,0.0,0.0,0.0,0.0,0.0,0.0,0.0,0.0,0.0,0.0,0.0,0.0,0.0,3.554,3.5903,3.6235,3.6507,3.6808,3.6959,3.6959,3.6959,3.7213,3.775,3.7781,3.835,3.9489,3.9866,4.0604,4.1598,4.1917,4.2718,4.3768,4.4063,4.5061,4.6541,4.7613,4.8404,4.9018,4.9018,4.9018,4.9018,4.9018,4.9255,4.9695,0.0,0.0,0.0,1.9325,1.9288,1.9176,1.9064,1.8912,1.8683,0.0,1.8135,1.7625,1.6905,1.6461,1.5981,1.5513,1.5017,1.4605,1.4373,1.4161,1.3973,1.3973,1.3973,1.3973,1.3926,1.3926,1.3926,1.3973,1.4093,1.4233,1.4373,1.4674,1.504,1.5468,0.0,0.0,1.6701,0.0,0.0,1.9324,1.968,2.0329,0.0,0.0,2.1563,0.0,2.1955,2.1888,2.1841,2.1554,2.1361,0.0,0.0,0.0,0.0,0.0,2.1554,2.1856,2.2796,2.3283,2.377,0.0,0.0,0.0,2.6228,2.6993,2.7901,0.0,0.0,0.0,0.0,0.0,0.0,0.0,0.0,0.0,0.0,0.0,0.0,0.0,0.0,0.0,0.0,3.3335,3.3425,3.3484,3.3484,3.3754,3.4352,3.5011,3.54,3.54,3.5459,3.5954,3.6854,3.6854,3.7579,3.8838,3.9557,4.0291,4.1086,4.1693,4.2395,4.3146,4.3863,4.4561,4.5269,4.6608,4.7833,4.8883,4.8984,4.9018,4.9018,4.9018,4.9018,4.9086,0.0,0.0,1.8912,1.8912,1.8912,1.8912,1.8874,1.8683,1.8478,1.8282,1.7652,1.7031,1.6607,1.6175,1.5691,1.5244,1.4949,1.4581,1.4114,1.402,1.3926,1.3668,1.3668,1.3621,1.3525,1.3525,1.3573,1.3668,1.3716,1.3905,1.4233,1.4419,1.4697,1.504,0.0,0.0,0.0,0.0,0.0,1.8316,1.9611,0.0,2.0525,2.1251,2.1623,2.1794,2.2278,2.2385,2.2217,0.0,2.1841,2.1841,0.0,0.0,0.0,0.0,0.0,0.0,0.0,0.0,0.0,0.0,0.0,0.0,2.6349,2.671,2.7055,0.0,0.0,0.0,0.0,0.0,0.0,0.0,0.0,0.0,0.0,0.0,0.0,0.0,0.0,0.0,0.0,3.2407,3.2916,3.3455,3.3484,3.3544,3.3694,3.4322,3.4681,3.4681,3.522,3.5744,3.6155,3.6186,3.6746,3.7932,3.8278,3.9283,4.0864,4.1244,4.2067,4.3113,4.352,4.4278,4.5261,4.5622,4.6709,4.8173,4.8781,4.9018,4.9018,4.9018,4.9018,4.9018,0.0,1.8683,1.8721,1.8721,1.8721,1.8721,1.8644,1.8489,1.8293,1.8083,1.7447,1.6863,1.6479,1.6044,1.5647,1.5244,1.4903,1.4534,1.4208,1.402,1.381,1.3716,1.3621,1.3525,1.3409,1.3409,1.3409,1.3409,1.3409,1.3552,1.3905,1.4093,1.4419,1.4834,1.5355,0.0,0.0,0.0,1.7447,1.7977,1.8879,0.0,2.0089,2.0681,2.1297,2.1946,2.2147,2.2374,2.2477,2.231,2.2217,0.0,0.0,2.2077,2.2123,0.0,2.231,2.2495,0.0,0.0,0.0,2.403,0.0,0.0,0.0,2.5956,2.643,2.6764,0.0,0.0,0.0,0.0,0.0,0.0,0.0,0.0,0.0,0.0,0.0,0.0,0.0,0.0,0.0,3.0851,3.133,3.1958,3.2317,3.2647,3.2976,3.3634,3.3993,3.3993,3.4651,3.5172,3.5488,3.5821,3.6473,3.7375,3.7872,3.8716,3.9939,4.0981,4.1866,4.2621,4.3284,4.4005,4.4666,4.5211,4.5934,4.6921,4.8037,4.868,4.9018,4.9018,4.9018,4.9018,1.8254,1.8478,1.8556,1.8556,1.8595,1.8556,1.8439,1.8293,1.8135,1.7801,1.7308,1.682,1.6436,1.6044,1.5691,1.5357,1.4949,1.4605,0.0,0.0,0.0,1.381,1.3716,1.3573,1.3362,1.3362,1.3314,1.317,1.317,1.3314,1.3573,1.381,1.4208,1.4651,1.5289,0.0,0.0,0.0,0.0,1.7922,0.0,1.8877,1.9638,1.9991,2.0808,2.1825,2.1945,2.2308,2.2752,2.2706,0.0,2.2495,2.2477,2.2449,0.0,0.0,0.0,0.0,0.0,0.0,0.0,0.0,0.0,2.4359,0.0,0.0,0.0,2.607,2.6639,0.0,0.0,0.0,0.0,0.0,0.0,0.0,0.0,0.0,0.0,0.0,0.0,0.0,0.0,2.9415,2.9774,3.0283,3.0851,3.145,3.2078,3.2766,3.3185,3.3305,3.3995,3.454,3.4971,3.5581,3.6291,3.703,3.7714,3.8394,3.9097,4.0582,4.1564,4.2157,4.3105,4.3731,4.4131,4.4908,4.5452,4.5872,4.7327,4.8274,4.8815,4.8951,4.9018,4.9018,1.7625,1.7948,1.8068,1.8068,1.8175,1.8242,1.8068,1.7975,1.7801,1.7323,1.7073,1.6778,0.0,0.0,0.0,0.0,0.0,0.0,1.4419,0.0,0.0,1.381,1.3763,0.0,1.3218,1.3218,1.319,1.3133,1.3133,1.321,1.3409,1.3716,1.4046,0.0,1.5198,0.0,0.0,0.0,1.7447,0.0,1.8321,1.8662,0.0,1.9866,2.0304,2.0596,2.1821,2.2687,2.3172,0.0,2.2859,2.2814,0.0,2.2632,2.2694,0.0,0.0,0.0,0.0,0.0,0.0,0.0,2.4151,0.0,0.0,0.0,2.5171,2.5368,0.0,2.5619,2.5619,0.0,0.0,0.0,0.0,0.0,0.0,0.0,0.0,0.0,0.0,0.0,0.0,0.0,2.9624,2.9684,2.9744,3.0073,3.0702,3.139,3.2018,3.2617,3.3366,3.4181,3.4971,3.537,3.6013,3.6999,3.7333,3.8098,3.9178,3.9722,4.0794,4.2334,4.2865,4.3494,4.4097,4.4541,4.5094,4.5872,4.7327,4.797,4.8105,4.8781,4.9018,4.9018,1.7131,1.7421,1.7544,1.7666,1.7774,1.7814,1.7814,1.772,1.7474,1.7115,1.6947,1.6778,0.0,0.0,0.0,0.0,0.0,1.5198,0.0,0.0,1.4441,0.0,0.0,0.0,0.0,1.319,1.2997,1.2891,1.2891,1.2968,1.3113,1.3478,1.3905,0.0,1.5153,0.0,1.6244,0.0,1.7447,0.0,0.0,0.0,0.0,1.9497,2.0009,2.0548,2.1928,2.2536,2.2759,0.0,2.3127,0.0,0.0,0.0,0.0,0.0,0.0,0.0,0.0,0.0,0.0,0.0,0.0,0.0,0.0,0.0,2.5201,0.0,0.0,0.0,0.0,0.0,0.0,0.0,0.0,0.0,0.0,0.0,0.0,0.0,0.0,0.0,0.0,0.0,0.0,0.0,0.0,2.9295,2.9924,3.0582,3.1117,3.1531,3.2554,3.3577,3.4516,3.5155,3.6042,3.7089,3.7449,3.7961,3.8771,3.9479,4.0287,4.1196,4.2455,4.3216,4.3608,4.4328,4.4756,4.5162,4.621,4.7158,4.797,4.8274,4.8646,4.9018,1.6256,1.6752,1.7073,0.0,0.0,1.7406,0.0,0.0,0.0,0.0,0.0,0.0,1.6479,1.6349,0.0,0.0,1.5691,1.5468,0.0,0.0,1.4651,0.0,0.0,0.0,0.0,1.3142,1.292,1.2676,1.2676,1.2725,1.292,1.3286,1.3742,0.0,0.0,1.5736,1.6244,0.0,0.0,1.7922,1.8361,1.8683,1.8988,1.9288,1.9849,2.0605,2.1664,2.2188,2.2461,2.2934,2.32,0.0,2.3304,0.0,0.0,0.0,0.0,0.0,2.3653,0.0,0.0,0.0,0.0,0.0,0.0,0.0,0.0,0.0,0.0,0.0,0.0,0.0,2.5278,0.0,0.0,0.0,0.0,0.0,0.0,0.0,0.0,0.0,0.0,0.0,0.0,0.0,0.0,0.0,2.8996,2.9624,3.0218,3.08,3.1736,3.2816,3.3962,3.4904,3.5882,3.6987,3.7531,3.8033,3.8464,3.9322,3.9929,4.0437,4.181,4.268,4.3283,4.399,4.4384,4.4621,4.5196,4.6177,4.7327,4.753,4.8071,4.8714,1.4858,1.58,0.0,0.0,0.0,0.0,0.0,0.0,0.0,0.0,0.0,0.0,0.0,0.0,0.0,0.0,0.0,1.5691,1.5513,0.0,1.4926,0.0,0.0,1.3931,0.0,0.0,1.292,1.2676,1.2578,1.2627,1.2891,1.3142,1.3552,1.4212,1.4994,1.5623,1.6244,1.6905,1.7447,1.7922,1.8361,1.8798,1.9288,0.0,1.9886,2.0495,2.0699,0.0,0.0,2.2557,2.2931,0.0,0.0,0.0,0.0,0.0,0.0,0.0,0.0,0.0,0.0,2.4276,0.0,0.0,0.0,0.0,2.5278,0.0,0.0,0.0,0.0,2.5355,2.524,2.513,2.4815,0.0,0.0,0.0,0.0,0.0,0.0,0.0,0.0,0.0,0.0,0.0,0.0,0.0,2.764,2.8278,2.9289,3.0769,3.097,3.183,3.3429,3.4395,3.5399,3.6469,3.7566,3.8286,3.8567,3.8876,3.9632,4.06,4.0796,4.1741,4.3216,4.3382,4.391,4.4587,4.4621,4.5094,4.5872,4.6583,4.7293,4.797,0.0,1.449,0.0,0.0,0.0,0.0,0.0,1.6931,0.0,0.0,0.0,0.0,0.0,0.0,1.6693,0.0,0.0,1.6132,1.5869,1.5558,0.0,0.0,0.0,1.3999,0.0,0.0,1.2822,1.2578,1.2431,1.248,1.2627,1.3045,1.3505,1.4118,0.0,1.5558,0.0,0.0,0.0,0.0,0.0,1.8827,1.913,0.0,0.0,1.9931,2.0414,2.0938,0.0,2.1834,2.2431,2.2969,2.2927,2.3195,2.3566,2.3566,2.3566,0.0,0.0,0.0,2.4067,2.4359,0.0,0.0,0.0,0.0,0.0,0.0,0.0,0.0,0.0,0.0,2.5162,2.5045,2.4806,2.4449,0.0,0.0,0.0,0.0,0.0,0.0,0.0,0.0,0.0,0.0,0.0,0.0,0.0,2.766,2.8725,3.0213,3.086,3.1965,3.3568,3.4623,3.5597,3.6578,3.7737,3.8432,3.8733,3.904,3.9495,4.0027,4.0687,4.1533,4.2672,4.3145,4.3876,4.4587,4.4587,4.4722,4.506,4.5805,4.6549,4.7259,1.2861,0.0,0.0,0.0,0.0,0.0,0.0,0.0,0.0,0.0,1.7057,0.0,1.7015,0.0,1.7015,0.0,1.6693,1.6522,1.6219,1.5824,0.0,1.5062,1.4558,0.0,0.0,0.0,1.2725,1.2382,1.2283,1.2283,1.2382,1.2852,1.3382,1.3884,0.0,1.5424,1.6088,0.0,1.7256,0.0,0.0,1.875,0.0,0.0,1.9288,1.9561,0.0,2.0317,2.0691,2.1147,2.1934,2.2724,2.2724,2.3101,2.361,2.361,2.361,2.3653,2.394,2.3982,0.0,0.0,2.4523,0.0,2.4686,0.0,0.0,0.0,0.0,0.0,0.0,0.0,2.4966,2.4886,2.4686,2.4275,0.0,2.2522,0.0,0.0,0.0,0.0,0.0,0.0,0.0,0.0,0.0,0.0,0.0,0.0,2.8082,2.9568,3.0479,3.1582,3.3053,3.4541,3.564,3.6422,3.781,3.86,3.8843,3.9202,3.9468,3.9763,4.0337,4.11,4.1982,4.2692,4.347,4.4181,4.4485,4.4587,4.4654,4.5128,4.5771,4.6549,0.0,0.0,0.0,0.0,1.5266,0.0,0.0,0.0,1.6761,0.0,1.7183,1.735,1.724,1.735,1.7308,1.7031,1.6973,0.0,1.6522,1.6088,0.0,0.0,1.4697,1.4093,1.3409,0.0,0.0,0.0,0.0,1.2085,1.2116,1.2627,1.3162,1.3668,1.449,0.0,1.5844,1.6565,1.7115,1.757,1.8214,1.8556,1.8673,1.876,0.0,1.9288,1.9391,1.9849,2.0466,2.0466,2.1406,2.2634,2.2664,2.3071,2.355,2.358,2.361,2.3653,2.394,2.3982,2.4067,2.44,0.0,0.0,0.0,0.0,2.4966,0.0,0.0,0.0,0.0,0.0,0.0,2.4605,2.4461,2.4051,2.3082,0.0,0.0,0.0,0.0,0.0,0.0,0.0,0.0,0.0,0.0,0.0,0.0,0.0,0.0,2.8961,2.994,3.0876,3.1935,3.4211,3.5641,3.6109,3.7773,3.8701,3.904,3.9362,3.9606,3.9729,3.9833,4.0425,4.1271,4.1982,4.2726,4.3504,4.4282,4.4587,4.4587,4.4587,4.506,4.5906,1.0914,1.1913,1.3006,0.0,1.4812,1.5579,0.0,0.0,0.0,0.0,1.7225,1.7391,1.7406,1.7447,1.7447,1.7406,1.724,0.0,0.0,0.0,0.0,1.5312,1.4697,1.4093,1.3409,1.2949,0.0,1.2085,0.0,0.0,1.2135,1.2431,1.2968,1.3621,0.0,0.0,1.5844,1.6367,1.7073,1.7814,1.8055,1.8254,0.0,0.0,1.8711,1.8903,1.9101,1.9442,1.9812,1.9812,2.0452,2.1306,2.1784,2.2383,2.3011,2.346,2.361,2.3653,2.3782,2.394,2.4024,2.4223,2.439,2.4482,0.0,0.0,0.0,0.0,0.0,0.0,0.0,0.0,0.0,2.44,2.3375,2.2513,0.0,0.0,0.0,2.0198,0.0,0.0,0.0,0.0,0.0,0.0,0.0,0.0,0.0,0.0,0.0,2.8961,2.9992,3.1032,3.2008,3.3868,3.5294,3.627,3.7448,3.8405,3.9202,3.952,3.9729,3.9833,3.9986,4.0527,4.1271,4.1982,4.2726,4.3504,4.4282,4.4587,4.4587,4.4587,4.506,4.5771,0.9961,0.0,0.0,1.3314,0.0,0.0,1.5712,0.0,0.0,1.6947,1.7308,0.0,1.7652,1.7733,1.7774,1.7693,1.7488,0.0,0.0,0.0,0.0,1.5402,1.4697,1.3978,1.3314,1.2852,0.0,1.1936,0.0,0.0,1.1918,1.2332,1.2803,1.3362,0.0,1.4834,1.5534,1.6349,1.7031,1.7638,1.7774,0.0,0.0,1.8254,1.8439,1.8634,1.8865,1.9101,1.9391,1.9501,1.999,2.0721,2.1485,2.2143,2.2802,2.34,2.361,2.3653,2.3739,2.3855,2.394,2.4067,2.4193,2.4276,2.4276,2.4359,2.4369,0.0,0.0,0.0,0.0,0.0,0.0,0.0,0.0,0.0,0.0,0.0,0.0,0.0,0.0,0.0,0.0,0.0,0.0,0.0,0.0,0.0,0.0,0.0,0.0,2.8179,2.9886,3.108,3.1691,3.3814,3.54,3.6377,3.7465,3.8454,3.9395,3.9677,3.9833,3.9918,4.0037,4.0324,4.0764,4.1508,4.2252,4.3031,4.4147,4.4587,4.4587,4.4587,4.4857,4.5263,0.0,0.0,0.0,0.0,0.0,0.0,0.0,1.5976,0.0,1.6947,0.0,1.776,1.7922,1.8083,1.8123,1.7922,0.0,1.7515,1.7031,1.6504,1.5981,1.5513,1.4674,1.3884,1.3218,1.2706,0.0,0.0,0.0,0.0,1.1719,1.2215,1.2657,1.3054,0.0,0.0,0.0,1.6349,1.6947,0.0,1.7515,1.772,1.7842,1.7935,1.8175,1.8478,1.8634,1.8865,1.9139,1.9325,1.9916,2.0652,2.1446,2.2143,2.2802,2.34,2.361,2.3653,2.3739,2.3782,2.3824,2.394,2.3982,2.3982,2.3982,2.4036,2.4078,2.4078,2.4036,0.0,0.0,0.0,0.0,0.0,0.0,0.0,0.0,0.0,0.0,0.0,0.0,0.0,0.0,0.0,0.0,0.0,0.0,0.0,0.0,0.0,0.0,0.0,2.9681,0.0,3.1258,0.0,3.5565,3.6587,3.7576,3.8565,3.9554,3.9815,3.9884,3.9935,4.0037,4.0087,4.0155,4.0899,4.1677,4.2591,4.4012,4.4587,4.4587,4.4587,4.4587,4.4688,0.0,0.0,0.0,0.0,0.0,1.3884,1.4858,1.5756,1.6497,1.6964,1.7406,1.776,1.7975,1.8095,1.8163,1.8016,1.7842,0.0,0.0,0.0,0.0,1.5513,1.4674,1.3884,1.3218,1.2657,1.2135,0.0,0.0,0.0,1.1719,1.2017,1.2461,0.0,0.0,0.0,1.5534,1.6151,0.0,1.6947,1.7199,1.7391,1.7515,1.7801,1.7975,1.8135,1.8439,1.8788,1.9139,1.9325,1.9916,2.0652,2.1446,2.2143,2.2802,2.34,2.361,2.361,2.3653,2.3739,2.3782,2.3824,2.394,2.3982,2.3982,2.394,2.3824,2.3824,2.3782,2.3696,2.3696,0.0,0.0,0.0,0.0,0.0,0.0,0.0,0.0,0.0,0.0,0.0,0.0,0.0,0.0,0.0,0.0,0.0,0.0,0.0,0.0,0.0,0.0,0.0,0.0,0.0,0.0,3.6847,3.7151,3.8118,3.9677,3.9833,3.9935,4.0087,4.0087,4.0087,4.0155,4.0899,4.2016,4.3301,4.4215,4.4587,4.4587,4.4587,4.4587,4.4587,0.0,0.0,0.0,0.0,0.0,0.0,0.0,1.5242,0.0,1.6896,1.7365,1.7733,1.8055,1.8163,1.8163,1.8095,1.7882,1.7556,1.724,1.6565,1.5957,1.5424,1.4582,0.0,1.3102,1.251,1.2017,1.1719,0.0,0.0,1.1719,1.1968,1.2412,1.2997,0.0,1.4697,0.0,0.0,0.0,1.6693,1.6863,1.7099,1.7308,1.7447,1.7693,1.7975,1.8242,1.8595,1.897,1.9546,2.0097,2.0665,2.1754,2.2372,2.2802,2.34,2.361,2.361,2.361,2.3653,2.3696,2.3696,2.3739,2.3782,2.3769,2.3683,2.364,2.3523,2.3436,2.3348,2.3231,2.326,0.0,0.0,0.0,0.0,0.0,0.0,0.0,0.0,0.0,0.0,0.0,0.0,0.0,0.0,0.0,0.0,0.0,0.0,0.0,0.0,0.0,0.0,0.0,0.0,0.0,3.7018,3.7619,3.8555,3.9781,3.9935,4.0037,4.0087,4.0087,4.0087,4.0155,4.1305,4.2185,4.2963,4.4113,4.4587,4.4587,4.4587,4.4587,4.4587,0.0,0.8277,0.0,0.0,1.1665,0.0,0.0,1.4652,1.5599,1.6752,1.7214,1.7611,1.8083,1.8163,1.8163,1.8123,1.7842,1.7515,1.7157,1.6522,1.5869,1.5266,1.4444,1.3695,1.3006,1.2412,1.1986,0.0,0.0,0.0,0.0,1.1968,0.0,0.0,0.0,0.0,0.0,0.0,1.6088,1.6349,1.659,1.682,1.7073,1.7157,1.7447,1.7842,1.8083,1.84,1.8864,1.9872,2.041,2.0823,2.2088,2.2688,2.2951,2.346,2.361,2.361,2.361,2.361,2.361,2.361,2.361,2.3566,2.3509,2.3466,2.3378,2.3216,2.3083,2.2949,2.2859,2.2904,0.0,0.0,0.0,0.0,0.0,0.0,0.0,0.0,0.0,0.0,0.0,0.0,0.0,0.0,0.0,0.0,0.0,0.0,0.0,0.0,0.0,3.1646,3.2057,0.0,3.6141,0.0,3.8137,3.9025,3.9884,4.0037,4.0087,4.0087,4.0087,4.0087,4.0189,4.1677,4.2286,4.2455,4.3978,4.4587,4.4587,4.4587,4.4587,4.4587,0.0,0.0,0.0,0.0,0.0,0.0,0.0,1.405,1.5062,1.6367,1.6947,1.7406,1.7882,1.7975,1.8016,1.7922,1.7693,1.7365,1.6973,1.6349,1.5736,1.5153,1.4398,1.3695,1.3006,1.2412,1.1986,0.0,0.0,0.0,0.0,0.0,0.0,0.0,0.0,0.0,0.0,1.5513,1.5804,1.5913,1.6349,1.6522,1.6607,1.7031,1.7365,1.757,1.7908,1.8293,1.891,2.0198,2.093,2.1454,2.2277,2.2957,2.352,2.358,2.361,2.361,2.361,2.361,2.361,2.361,2.3566,2.3509,2.3509,2.329,2.3112,2.2949,2.2768,2.2661,2.2661,2.2661,2.2661,0.0,0.0,0.0,0.0,0.0,0.0,0.0,0.0,0.0,0.0,0.0,0.0,0.0,0.0,0.0,0.0,0.0,0.0,2.8018,0.0,3.1789,3.2196,3.4594,0.0,3.727,3.8187,3.9025,3.9884,4.0037,4.0087,4.0087,4.0087,4.0087,4.0189,4.1677,4.2286,4.2455,4.3978,4.4587,4.4587,4.4587,4.4587,4.4553,0.0,0.0,0.0,0.0,0.0,0.0,0.0,1.3273,1.4261,1.54,1.6238,1.6989,1.7529,1.7611,1.7652,1.7652,1.7447,1.7157,1.6693,1.6151,1.5579,1.4903,1.4212,1.3573,1.2949,1.2363,1.1986,0.0,0.0,0.0,0.0,0.0,0.0,0.0,0.0,1.449,1.4903,1.5289,1.5582,1.5848,1.6175,1.6392,1.6522,1.6863,1.7199,1.7474,1.7814,1.8242,1.8736,1.9815,2.0698,2.1562,2.2668,2.3271,2.361,2.361,2.361,2.361,2.361,2.361,2.361,2.3523,2.3509,2.3466,2.329,2.3112,2.2949,2.2843,2.2569,2.231,2.2123,2.217,2.2263,0.0,0.0,0.0,0.0,0.0,0.0,0.0,0.0,0.0,0.0,0.0,0.0,0.0,0.0,0.0,0.0,0.0,0.0,2.9434,0.0,3.2205,3.291,3.5317,3.6871,3.7452,3.8723,3.9615,4.0037,4.0087,4.0087,4.0087,4.0087,4.0087,4.0189,4.1677,4.2286,4.2455,4.3978,4.4587,4.4587,4.4587,4.4497,4.444,0.4003,0.0,0.6578,0.0,0.9013,1.0151,1.1366,1.2337,1.3321,1.4283,1.5287,1.6213,1.7073,1.7157,1.7199,1.7256,1.7115,1.682,1.6392,1.5932,1.54,1.472,1.4093,0.0,1.2822,1.2332,1.1936,1.1619,1.1418,0.0,0.0,0.0,0.0,0.0,1.3978,1.4419,1.4834,1.5108,1.5447,1.5736,1.5981,1.6219,1.6436,1.6761,1.7057,1.7391,1.776,1.8163,1.8641,1.953,2.0494,2.155,2.2641,2.3287,2.361,2.361,2.361,2.361,2.361,2.361,2.3566,2.3509,2.3422,2.3334,2.3112,2.2978,2.2843,2.2644,2.2338,2.203,2.1841,2.1888,2.1983,0.0,0.0,0.0,0.0,0.0,0.0,0.0,0.0,2.2152,2.2596,0.0,0.0,0.0,0.0,0.0,0.0,0.0,0.0,0.0,0.0,0.0,0.0,3.5927,3.727,3.7501,3.9127,3.9986,4.0087,4.0087,4.0087,4.0087,4.0087,4.0087,4.0239,4.173,4.2339,4.2475,4.4088,4.4699,4.4609,4.4643,4.444,4.4293,0.2841,0.4223,0.5538,0.6891,0.8078,0.9183,1.0254,1.1316,1.2307,1.3102,1.4003,1.5039,1.6367,1.6625,1.671,1.671,1.6607,1.6392,1.6044,1.5691,1.5244,0.0,0.0,1.3334,1.2725,1.2184,1.1769,1.1519,0.0,0.0,1.1719,0.0,1.3065,1.3409,1.3931,1.4373,1.4627,1.4971,1.5244,1.5513,1.5691,1.5981,1.6244,1.659,1.6931,1.724,1.776,1.8163,1.8641,1.953,2.0414,2.1339,2.2069,2.2901,2.361,2.361,2.361,2.361,2.361,2.3523,2.3509,2.3509,2.329,2.3068,2.2949,2.2843,2.2689,2.2292,2.1983,2.1793,2.1793,2.1793,2.1793,2.1793,0.0,0.0,0.0,0.0,0.0,0.0,2.3068,2.3348,2.348,0.0,0.0,0.0,0.0,0.0,0.0,0.0,0.0,3.083,3.1713,0.0,3.3604,3.6073,3.7369,3.7501,3.9127,3.9986,4.0087,4.0087,4.0087,4.0087,4.0087,4.0087,4.0239,4.18,4.2464,4.2634,4.4164,4.4776,4.4776,4.4643,4.444,4.4293,0.1615,0.3053,0.4436,0.5638,0.6827,0.8013,0.9131,1.0151,1.1116,1.211,1.289,1.3653,1.4538,1.5511,1.6107,0.0,1.6107,1.6001,0.0,1.5244,1.4834,1.4208,1.3668,1.3094,1.2578,1.2135,1.1769,1.1519,0.0,0.0,0.0,1.2529,1.2997,1.3409,1.3763,1.414,1.4466,1.4834,1.5062,1.5244,1.5647,1.5913,1.6088,1.6547,1.6931,1.724,1.776,1.8095,1.8439,1.8949,1.971,2.0586,2.131,2.249,2.3523,2.361,2.3566,2.3553,2.3553,2.3466,2.3334,2.3246,2.3112,2.2949,2.2872,2.2569,2.2292,2.1841,2.165,2.1506,2.141,2.1313,2.1313,2.1506,0.0,0.0,0.0,0.0,0.0,0.0,0.0,2.326,0.0,2.3782,0.0,0.0,0.0,0.0,0.0,0.0,0.0,0.0,3.2158,0.0,3.5086,3.667,3.7686,3.8271,3.9463,4.0087,4.0087,4.0087,4.0087,4.0087,4.0087,4.0138,4.0306,4.1342,4.2074,4.2704,4.3639,4.43,4.4776,4.4643,4.4384,4.4155,0.0334,0.1835,0.3279,0.4381,0.5529,0.673,0.78,0.8856,0.9843,1.0847,1.1572,1.2282,1.2966,1.3949,0.0,1.5287,1.5445,1.5379,1.5085,1.4789,1.4398,1.3973,1.3382,1.2852,1.2431,0.0,0.0,1.1418,1.1418,1.1619,1.2017,1.248,1.2871,1.3238,1.3573,1.3905,1.428,1.4605,1.488,1.5108,1.5468,1.578,1.6044,1.6461,1.6863,1.724,1.776,1.8055,1.8344,1.8693,1.9353,2.0117,2.0644,2.1833,2.3052,2.342,2.3436,2.3422,2.3422,2.3334,2.3201,2.3068,2.2933,2.2797,2.2644,2.2292,2.1935,2.1602,2.141,2.1264,2.1144,2.1046,2.1046,2.1242,0.0,2.1506,0.0,0.0,0.0,0.0,0.0,0.0,0.0,2.4152,0.0,0.0,0.0,0.0,0.0,0.0,0.0,3.2131,3.2689,0.0,3.5877,3.6903,3.782,3.8555,3.9547,4.0037,4.0037,4.0087,4.0087,4.0087,4.0087,4.0188,4.0356,4.112,4.1835,4.2415,4.3011,4.3537,4.398,4.3741,4.3429,4.3213,-0.0949,0.0557,0.0,0.0,0.4168,0.0,0.6323,0.7393,0.8449,0.9306,1.0041,1.0785,1.1541,1.2016,1.2858,1.4171,0.0,0.0,0.0,1.428,1.4046,1.3763,1.3142,0.0,1.2283,1.1868,1.1569,1.1318,1.1519,1.1719,1.1868,1.2431,1.2725,1.292,1.3334,1.3716,1.3973,1.428,1.4651,1.5062,1.5267,1.5558,1.6044,1.6392,1.6778,1.724,1.772,1.8055,1.8344,1.8683,1.9247,1.9883,2.0069,2.1053,2.2235,2.3024,2.3231,2.326,2.326,2.3157,2.3023,2.2904,2.2797,2.2644,2.2245,2.1935,2.1698,2.141,2.1291,2.1144,2.1046,2.0997,2.0997,2.0997,2.1193,2.1361,2.141,0.0,0.0,0.0,0.0,0.0,0.0,2.4606,2.5469,0.0,0.0,0.0,0.0,0.0,3.1531,3.255,3.3241,3.4424,3.6075,3.6887,3.772,3.852,3.9479,3.9884,3.9884,4.0037,4.0087,4.0087,4.0087,4.0188,4.0356,4.1187,4.1644,4.1831,4.2415,4.262,4.2602,4.2267,4.1942,4.1766,0.0,0.0,0.0557,0.1615,0.267,0.3802,0.4816,0.5736,0.6657,0.7511,0.8256,0.8954,0.9596,1.0274,1.1022,1.1893,1.3252,1.3999,1.3999,1.381,1.3573,1.3218,1.29,1.248,1.2036,1.1769,1.1569,1.1318,1.1368,1.1519,1.1769,1.2085,1.2431,1.2774,1.3025,1.3362,1.3716,1.4093,1.4419,1.4765,1.5131,1.5537,1.5913,1.6349,1.6778,1.724,1.7638,1.7963,1.8282,1.8489,1.8758,1.9073,1.9678,2.0407,2.1268,2.2261,2.2746,2.2994,2.2994,2.2859,2.2706,2.2706,2.2523,2.2245,2.1841,2.1602,2.1458,2.1264,2.1095,2.0974,2.0924,2.0875,2.0799,2.0924,2.0974,2.1122,2.1361,0.0,0.0,0.0,2.2922,2.3612,2.4072,2.5213,2.6287,0.0,0.0,0.0,0.0,0.0,3.2957,3.334,3.3598,3.4736,3.6837,3.7153,3.8037,3.941,3.9662,3.9729,3.9729,3.9884,3.9935,3.9935,4.0037,4.0188,4.0322,4.0542,4.1016,4.1663,4.1682,4.1988,4.2339,4.2159,4.1832,4.1564,-0.3329,-0.2007,-0.0836,0.0,0.1266,0.2377,0.3229,0.4049,0.4931,0.5858,0.6577,0.7304,0.8138,0.8716,0.9399,1.0284,1.1912,1.2969,1.3286,1.319,1.2997,1.2803,1.2559,1.2234,1.1819,1.1619,1.1368,1.1116,1.1167,1.1318,1.1519,1.1769,1.2085,1.2431,1.2706,1.3045,1.3362,1.3742,1.414,1.4466,1.4926,1.5334,1.578,1.6262,1.6735,1.7157,1.7488,1.7801,1.8083,1.8333,1.8517,1.8691,1.9148,1.9729,2.0356,2.121,2.2091,2.2768,2.2768,2.2632,2.2477,2.2385,2.2123,2.1841,2.1554,2.141,2.1291,2.1095,2.0974,2.0901,2.0825,2.0775,2.0699,2.0775,2.0825,2.0974,2.1171,2.1291,0.0,2.1983,2.2875,2.3702,2.4246,2.5634,2.7011,2.8232,0.0,0.0,3.202,3.2943,3.351,3.3697,3.4358,3.5448,3.7001,3.7628,3.8408,3.9309,3.9468,3.952,3.952,3.9729,3.9781,3.9833,3.9935,4.0087,4.0188,4.0288,4.0626,4.1066,4.0866,4.1036,4.1271,4.0936,4.0612,4.0292,-0.4462,-0.318,-0.2032,-0.1486,-0.0161,0.105,0.1616,0.2379,0.3257,0.4267,0.4994,0.5733,0.6719,0.7238,0.7898,0.8959,1.0309,1.1509,1.2396,1.2337,1.2307,1.2382,1.2135,1.1868,1.1619,1.1368,1.1133,1.093,1.0964,1.1133,1.1217,1.1469,1.1769,1.2036,1.2431,1.2706,1.2977,1.3362,1.381,1.4233,1.4674,1.5175,1.5623,1.6175,1.6607,1.7031,1.7365,1.7652,1.7922,1.8175,1.8333,1.8478,1.8595,1.9018,1.9611,2.0147,2.1251,2.2335,2.2495,2.2431,2.2217,2.1983,2.1698,2.1506,2.1361,2.1242,2.1095,2.0951,2.0901,2.0825,2.0699,2.0699,2.0699,2.0699,2.0775,2.0901,2.0901,0.0,2.1437,2.1835,2.2873,2.3779,2.4417,2.6093,2.7649,2.8762,2.999,0.0,0.0,3.3372,3.3743,3.398,3.5103,3.6105,3.6927,3.8166,3.8766,3.8766,3.904,3.9202,3.9202,3.9468,3.9625,3.9625,3.9781,3.9935,4.0037,4.0138,4.0288,4.0387,4.0138,3.9986,3.9884,3.9415,3.8985,3.8721,-0.5064,-0.3969,-0.2958,-0.2348,-0.1421,-0.0551,0.0194,0.1057,0.1839,0.242,0.3334,0.4135,0.4684,0.5456,0.6363,0.736,0.8089,0.9295,1.1119,1.1316,1.1459,1.1819,1.1669,1.1519,1.1368,1.0981,1.0828,1.093,1.0828,1.0812,1.0981,1.1116,1.1318,1.1619,1.1868,1.2264,1.2774,1.3142,1.3552,1.4067,1.4558,1.5062,1.5558,1.6044,1.6547,1.6931,1.7157,1.7529,1.7922,1.7963,1.8083,1.8242,1.8282,1.8698,1.9197,1.928,2.0081,2.1158,2.189,2.1888,2.1698,2.1506,2.1361,2.1242,2.1095,2.1023,2.0951,2.0901,2.0825,2.0699,2.0699,2.0699,2.0699,2.0699,2.0699,2.0775,0.0,0.0,2.1354,2.2115,2.3169,2.421,2.5128,2.6983,2.8381,2.9062,3.076,3.2032,3.2606,3.3809,3.4555,3.471,3.5143,3.5974,3.7254,3.8042,3.8432,3.8432,3.8655,3.8678,3.8678,3.8985,3.9202,3.9362,3.9501,3.9625,3.9781,3.9781,3.9833,3.9833,3.9625,3.9415,3.9115,3.8952,3.8511,3.8001,-0.579,-0.4882,-0.4052,-0.3401,-0.2663,-0.1937,-0.1238,-0.0466,0.0365,0.1118,0.1914,0.2716,0.3466,0.416,0.4937,0.5892,0.6518,0.7477,0.8852,0.9945,1.0626,1.0861,1.1015,1.0964,1.0777,1.0573,1.047,1.0419,1.0368,1.0419,1.0573,1.0726,1.093,1.1167,1.1519,1.1868,1.2283,1.2803,1.3238,1.3716,1.4373,1.4926,1.5424,1.5913,1.6349,1.6735,1.6989,1.7282,1.7529,1.7652,1.7801,1.7922,1.7922,1.8113,1.8385,1.8753,1.9724,2.0863,2.139,2.1458,2.1361,2.1242,2.1095,2.1023,2.0974,2.0875,2.0775,2.0775,2.0675,2.0599,2.0599,2.0498,2.0448,2.0448,2.0448,0.0,0.0,2.1038,2.1504,2.2126,2.3327,2.4434,2.5185,2.6939,2.8349,2.932,3.076,3.2027,3.3096,3.3833,3.4526,3.5169,3.5617,3.6294,3.7233,3.7552,3.7743,3.7743,3.8059,3.823,3.823,3.8623,3.8876,3.8931,3.9148,3.9255,3.9362,3.9382,3.9382,3.9309,3.9202,3.8931,3.8623,3.8399,3.8001,3.7476,-0.6486,-0.5719,-0.5005,-0.443,-0.3765,-0.3083,-0.2479,-0.1825,-0.1027,-0.0044,0.0624,0.1381,0.2361,0.3025,0.3723,0.4613,0.5308,0.5989,0.6817,0.8357,0.9437,0.9851,1.0202,1.0324,1.0162,1.0162,1.0043,0.9888,0.9888,1.0007,1.0162,1.0316,1.0522,1.0828,1.1167,1.1519,1.1868,1.2461,1.2997,1.3409,1.4186,1.4765,1.5222,1.5736,1.6132,1.6479,1.6778,1.6989,1.7199,1.7323,1.7447,1.7597,1.7597,1.7597,1.7677,1.8131,1.9225,2.0348,2.0979,2.1068,2.1019,2.0871,2.0799,2.0725,2.0725,2.0675,2.0599,2.0599,2.0498,2.0398,2.0398,2.0296,2.0169,2.0169,0.0,0.0,0.0,2.0991,2.1616,2.2085,2.3339,2.4422,2.5124,2.6686,2.81,2.9287,3.0448,3.1749,3.3196,3.3495,3.4143,3.5155,3.5887,3.6435,3.6876,3.6937,3.6937,3.6997,3.7445,3.7711,3.7679,3.8173,3.8399,3.8455,3.8678,3.8821,3.8876,3.8952,3.8898,3.8788,3.8623,3.8343,3.8001,3.777,3.7358,3.6815,-0.6967,-0.6237,-0.5576,-0.5096,-0.456,-0.398,-0.3398,-0.2854,-0.214,-0.1203,-0.0491,0.0268,0.1118,0.1917,0.2755,0.3649,0.4308,0.5014,0.5761,0.6505,0.7518,0.8833,0.929,0.9557,0.9666,0.9666,0.9666,0.9614,0.9614,0.9681,0.9851,0.9851,1.011,1.0522,1.0828,1.1217,1.1769,1.2283,1.2803,1.3266,1.3931,1.4419,1.4789,1.5468,1.5937,1.6244,1.6479,1.6735,1.6989,1.7031,1.7115,1.724,1.724,1.724,1.724,1.7293,1.8044,1.9118,2.0456,2.0746,2.0623,2.0472,2.0321,2.022,2.022,2.0246,2.0246,2.0246,2.0246,2.0246,2.0246,2.022,2.0169,2.0169,0.0,0.0,2.0246,2.0836,2.1562,2.2297,2.3093,2.4037,2.5107,2.6576,2.7794,2.8539,2.9959,3.125,3.2258,3.2883,3.368,3.4626,3.5503,3.5915,3.5976,3.6196,3.6258,3.6258,3.6723,3.6966,3.7027,3.7535,3.786,3.7943,3.8116,3.823,3.8464,3.823,3.8173,3.8173,3.786,3.7567,3.7238,3.6906,3.6507,3.6037,-0.7405,-0.6859,-0.6307,-0.5739,-0.5265,-0.4744,-0.422,-0.3649,-0.3025,-0.2361,-0.1561,-0.0759,0.0,0.0893,0.1739,0.2539,0.329,0.3993,0.4657,0.5301,0.6417,0.8085,0.8304,0.8463,0.8623,0.8769,0.8866,0.8866,0.9113,0.9263,0.933,0.9472,0.9681,0.994,1.03,1.0761,1.1217,1.1968,1.251,1.3006,1.3763,1.4326,1.4743,1.5334,1.5736,1.5981,1.6306,1.6522,1.665,1.6693,1.6735,1.6778,1.6778,1.6778,1.6854,1.7298,1.7753,1.8241,1.9059,1.9829,2.0321,2.0271,2.022,2.0169,2.0169,2.0169,2.0169,2.0169,2.0144,2.0093,2.0093,2.0016,1.9965,1.9965,0.0,2.0091,2.0576,2.1164,2.1863,2.2652,2.3363,2.4168,2.5074,2.6234,2.7281,2.8088,2.9205,3.042,3.1639,3.2606,3.3243,3.3589,3.3768,3.4245,3.4942,3.5008,3.5169,3.5365,3.5913,3.6258,3.6383,3.6937,3.7207,3.7266,3.7562,3.7653,3.7685,3.7594,3.7417,3.7238,3.6997,3.6693,3.6383,3.6039,3.5688,3.5264,-0.7946,-0.7489,-0.7027,-0.6465,-0.6039,-0.5567,-0.5048,-0.4482,-0.3869,-0.3252,-0.2495,-0.1695,-0.085,-0.0045,0.0805,0.1564,0.2406,0.3114,0.3737,0.4395,0.5524,0.7236,0.7402,0.7534,0.7719,0.7915,0.8055,0.8105,0.8366,0.8524,0.8626,0.8866,0.9069,0.9271,0.9794,1.0295,1.0814,1.1616,1.2264,1.2783,1.3525,1.4093,1.4512,1.5108,1.5468,1.5715,1.6044,1.6175,1.6219,1.6262,1.6306,1.6349,1.6349,1.6392,1.651,1.6999,1.7314,1.7586,1.792,1.875,1.9509,1.9559,1.9686,1.9813,1.9813,1.994,2.0067,2.0067,1.9965,1.9939,1.9939,1.9862,1.9811,1.9811,1.9759,1.996,2.0643,2.1197,2.1807,2.2592,2.3237,2.3919,2.4762,2.5555,2.6445,2.7346,2.8193,2.9231,3.0636,3.1541,3.2055,3.2245,3.2101,3.2461,3.3353,3.3796,3.4235,3.4601,3.5103,3.5494,3.5653,3.6321,3.66,3.66,3.6937,3.6997,3.6876,3.6754,3.6569,3.6321,3.6133,3.5879,3.5589,3.5234,3.4839,3.4534,-0.8496,-0.8126,-0.7739,-0.7266,-0.693,-0.6507,-0.5922,-0.5351,-0.47,-0.3832,-0.3252,-0.2544,-0.1523,-0.085,-0.0134,0.0805,0.1698,0.241,0.2943,0.3832,0.4888,0.6236,0.6464,0.673,0.7086,0.7146,0.7242,0.7373,0.7385,0.7529,0.778,0.7909,0.8193,0.8537,0.9257,0.9881,1.0448,1.1294,1.2017,1.2529,1.3122,1.3621,1.4067,1.4674,1.5062,1.5312,1.5582,1.576,1.5804,1.5804,1.5869,1.6001,1.6001,1.6088,1.62,1.62,1.6569,1.7032,1.7169,1.7567,1.8012,1.8157,1.8606,1.8958,1.8958,1.9434,1.9786,1.9786,1.9811,1.9811,1.9811,1.9811,1.9811,1.9811,1.9708,1.9803,2.0296,2.0754,2.1297,2.2039,2.2586,2.3255,2.4115,2.4709,2.5371,2.6233,2.6827,2.779,2.9118,2.96,3.0025,3.0594,3.0594,3.0771,3.122,3.2605,3.3479,3.3785,3.4341,3.4677,3.4935,3.5653,3.5973,3.5973,3.6133,3.6196,3.6133,3.5816,3.5688,3.5688,3.5299,3.5037,3.4868,3.4534,3.4128,3.3785,-0.8943,-0.8496,-0.8126,-0.7739,-0.728,-0.6774,-0.6349,-0.5836,-0.5188,-0.4439,-0.3825,-0.312,-0.2281,-0.152,-0.076,0.0045,0.085,0.1654,0.2593,0.3214,0.3803,0.4381,0.51,0.5616,0.5957,0.6178,0.6394,0.658,0.686,0.7098,0.7398,0.7529,0.7767,0.8146,0.8528,0.8999,0.9534,1.0225,1.0995,1.1883,1.2496,1.3191,1.3905,1.4466,1.4765,1.4926,1.5198,1.5334,1.5447,1.5447,1.5513,1.5647,1.5647,1.578,1.5937,1.5937,1.6166,1.649,1.6598,1.6766,1.7065,1.7956,1.8329,1.8455,1.8455,1.8857,1.9258,1.9258,1.956,1.9811,1.9811,1.9708,1.9656,1.9656,1.9874,2.0182,2.0611,2.1092,2.1593,2.2128,2.2347,2.2639,2.3276,2.3919,2.4591,2.5177,2.6233,2.7047,2.7444,2.8274,2.88,2.895,2.9503,2.9935,3.0343,3.1589,3.2489,3.3058,3.3618,3.3962,3.4167,3.4905,3.5169,3.5008,3.5365,3.5335,3.5073,3.5008,3.4876,3.4802,3.4534,3.4332,3.4128,3.3716,3.3437,3.3199,-0.9288,-0.8926,-0.8618,-0.8193,-0.7739,-0.7266,-0.6859,-0.6307,-0.5663,-0.4961,-0.4308,-0.3656,-0.286,-0.2103,-0.1341,-0.0626,0.0358,0.1252,0.2148,0.2549,0.2898,0.3214,0.3869,0.4482,0.5058,0.5316,0.561,0.5834,0.6065,0.6372,0.6648,0.6832,0.7107,0.7516,0.7972,0.8427,0.8943,0.9616,1.0481,1.1396,1.2022,1.2742,1.3552,1.4093,1.4348,1.4466,1.4743,1.4926,1.504,1.504,1.5153,1.5334,1.5379,1.5513,1.5691,1.576,1.5893,1.6025,1.6219,1.6262,1.6523,1.7285,1.7656,1.7877,1.7877,1.848,1.8983,1.8983,1.9434,1.9811,1.9811,1.9708,1.9604,1.9604,1.9863,2.0207,2.0628,2.0984,2.1391,2.1854,2.1862,2.1989,2.2486,2.3138,2.3823,2.4493,2.5278,2.5805,2.602,2.662,2.7076,2.7268,2.8106,2.8709,2.9096,3.0366,3.1442,3.2345,3.2917,3.3269,3.3646,3.4196,3.4438,3.4409,3.4572,3.4505,3.4274,3.4138,3.4031,3.3922,3.3756,3.3548,3.3409,3.3157,3.2945,3.2775,-0.9607,-0.9368,-0.9047,-0.8602,-0.8275,-0.7863,-0.7308,-0.6761,-0.6124,-0.5437,-0.4744,-0.4096,-0.3303,-0.2637,-0.1966,-0.1207,0.0045,0.1031,0.1567,0.1876,0.2192,0.2598,0.2815,0.3341,0.4236,0.4543,0.4893,0.5198,0.5241,0.5458,0.5793,0.605,0.6349,0.6689,0.7439,0.8063,0.856,0.9302,1.0148,1.1006,1.1575,1.2242,1.2966,1.3552,1.381,1.3973,1.4233,1.4419,1.4534,1.4581,1.4811,1.5062,1.5222,1.5334,1.5468,1.5626,1.5715,1.576,1.5957,1.6088,1.6244,1.6349,1.6879,1.73,1.73,1.8154,1.8908,1.8908,1.9359,1.9811,1.9811,1.9656,1.9552,1.9552,1.9697,2.0001,2.0342,2.0534,2.0804,2.1267,2.121,2.1266,2.1701,2.2273,2.3006,2.399,2.4082,2.4333,2.4791,2.4837,2.5164,2.5624,2.6496,2.7167,2.7633,2.8917,3.0266,3.169,3.2128,3.266,3.3255,3.3577,3.3785,3.3991,3.3785,3.3687,3.3687,3.3339,3.3199,3.3199,3.2988,3.2988,3.2917,3.2775,3.2561,3.2345,-0.9804,-0.9487,-0.9208,-0.8926,-0.8496,-0.8044,-0.767,-0.7112,-0.6477,-0.5717,-0.5188,-0.4526,-0.3605,-0.2948,-0.2326,-0.1612,-0.0493,0.0403,0.0895,0.1207,0.1567,0.1973,0.2281,0.2637,0.3043,0.3744,0.4272,0.4587,0.4806,0.5145,0.5577,0.5717,0.6019,0.6489,0.6796,0.7206,0.7687,0.8169,0.8958,0.989,1.0741,1.1453,1.2223,1.305,1.3362,1.3409,1.381,1.402,1.4161,1.4488,1.4673,1.4743,1.4926,1.5108,1.5244,1.5468,1.5626,1.576,1.5957,1.6088,1.6244,1.6349,1.6535,1.6697,1.6697,1.7576,1.838,1.838,1.9058,1.9656,1.9656,1.9473,1.9263,1.9158,1.9737,2.0098,1.9807,2.0557,2.0968,2.0635,2.0593,2.0573,2.051,2.1329,2.2103,2.2678,2.3077,2.3342,2.3453,2.3807,2.4225,2.4489,2.517,2.583,2.637,2.7609,2.9149,3.0924,3.1495,3.2009,3.2472,3.2775,3.2988,3.2988,3.3129,3.3058,3.2917,3.2704,3.2704,3.2846,3.2632,3.2561,3.2489,3.2489,3.2345,3.2228,-0.998,-0.9686,-0.9448,-0.9128,-0.8724,-0.8316,-0.7904,-0.7321,-0.6732,-0.605,-0.5394,-0.4744,-0.4001,-0.3258,-0.2415,-0.1523,-0.0718,-0.0,0.0538,0.0762,0.1031,0.1389,0.1701,0.2014,0.2286,0.2904,0.3524,0.4052,0.4316,0.4709,0.5188,0.5415,0.5761,0.6233,0.6562,0.6943,0.7335,0.778,0.848,0.9348,1.0161,1.0912,1.164,1.2532,1.2852,1.29,1.3286,1.3573,1.3858,1.4161,1.4348,1.4512,1.4651,1.4834,1.5062,1.5244,1.5424,1.5647,1.5824,1.6001,1.6244,1.6287,1.6392,1.6522,1.6522,1.74,1.8204,1.8109,1.8909,1.9552,1.9525,1.9263,1.9052,1.8999,1.953,1.9866,1.9654,2.0217,2.0571,2.0313,2.014,2.003,2.0092,2.0586,2.1118,2.1731,2.2008,2.2243,2.2531,2.2864,2.3069,2.3297,2.4062,2.4691,2.5249,2.637,2.7738,2.9428,3.0517,3.1347,3.1936,3.2055,3.2273,3.2417,3.2444,3.2444,3.23,3.2082,3.2082,3.2155,3.2082,3.2082,3.2155,3.2155,3.2155,3.2182,-1.0098,-0.9902,-0.9664,-0.9288,-0.8967,-0.8561,-0.8111,-0.7474,-0.6888,-0.638,-0.561,-0.4927,-0.436,-0.3429,-0.241,-0.1389,-0.0853,-0.0359,0.0225,0.0359,0.0584,0.0896,0.1165,0.1433,0.1705,0.2192,0.2771,0.3568,0.3869,0.4264,0.4762,0.5067,0.5501,0.5976,0.6435,0.6816,0.7167,0.7628,0.8196,0.8877,0.9771,1.0401,1.0966,1.1981,1.2382,1.2431,1.2822,1.3142,1.3525,1.3716,1.3999,1.428,1.4373,1.4605,1.4858,1.5062,1.5289,1.5513,1.5671,1.5937,1.6156,1.6156,1.6306,1.6436,1.6436,1.7355,1.8131,1.8037,1.8809,1.9473,1.9368,1.9158,1.8946,1.8893,1.9272,1.9536,1.9477,1.982,2.0031,1.9966,1.966,1.9565,1.9808,1.9912,2.0219,2.0772,2.0896,2.1217,2.1824,2.192,2.2017,2.2327,2.3091,2.3743,2.4122,2.5226,2.6376,2.7569,2.9101,3.039,3.1421,3.1421,3.1616,3.1982,3.1863,3.1817,3.1817,3.1596,3.1596,3.1596,3.1522,3.1669,3.1817,3.1817,3.1963,3.2109,-1.0098,-0.9902,-0.9704,-0.9368,-0.9065,-0.87,-0.825,-0.7739,-0.714,-0.6422,-0.5879,-0.5285,-0.4403,-0.3258,-0.2326,-0.1746,-0.1254,-0.0762,-0.0404,-0.009,0.0225,0.0539,0.0717,0.0984,0.1433,0.1839,0.2375,0.2998,0.3435,0.3921,0.4456,0.484,0.5275,0.5761,0.6105,0.6477,0.6816,0.728,0.7685,0.8166,0.9314,0.9835,1.009,1.1336,1.1868,1.2017,1.2431,1.2822,1.3142,1.3478,1.3668,1.381,1.4233,1.4534,1.4719,1.5017,1.5289,1.5513,1.5671,1.5869,1.6044,1.6044,1.6132,1.6244,1.6244,1.7173,1.8037,1.7989,1.8658,1.921,1.9105,1.8946,1.8679,1.8302,1.8988,1.9417,1.8879,1.9569,1.9922,1.9462,1.9131,1.8838,1.8697,1.9061,1.9344,1.9465,1.988,2.0305,2.0771,2.0941,2.1329,2.1873,2.2164,2.2563,2.3163,2.41,2.4974,2.5644,2.6839,2.8499,3.0596,3.0748,3.1048,3.1421,3.1421,3.1522,3.1596,3.1421,3.1421,3.1596,3.1447,3.1447,3.1596,3.1596,3.1669,3.1669,-1.0137,-0.998,-0.9823,-0.9487,-0.9168,-0.8822,-0.8373,-0.7863,-0.7308,-0.6732,-0.6105,-0.5458,-0.4753,-0.3517,-0.2504,-0.1973,-0.1478,-0.1075,-0.0807,-0.0539,-0.0269,-0.0,0.0359,0.0674,0.0988,0.1436,0.1884,0.2286,0.3037,0.3612,0.4148,0.4578,0.5014,0.5501,0.589,0.6264,0.6605,0.7027,0.7461,0.8047,0.8928,0.9517,0.993,1.0913,1.1368,1.1619,1.2135,1.2578,1.2968,1.3162,1.3382,1.3668,1.3952,1.4233,1.4534,1.4857,1.5131,1.5334,1.5513,1.5736,1.5913,1.6001,1.6088,1.6274,1.6569,1.7257,1.7774,1.7774,1.8481,1.9052,1.8893,1.8625,1.8356,1.8139,1.8644,1.8999,1.8758,1.9253,1.9528,1.9085,1.8818,1.8549,1.8414,1.8594,1.8725,1.8844,1.9021,1.939,1.9992,2.0086,2.0508,2.1275,2.152,2.1924,2.2628,2.3295,2.4063,2.501,2.5667,2.7158,2.9277,2.9606,3.0086,3.0596,3.0748,3.0823,3.0898,3.0823,3.0823,3.0898,3.0999,3.1149,3.1447,3.1522,3.1596,3.1596]}]]